[[{"header":{"parameterUnit":"m.s-1","parameterCategory":1,"la1":30.6,"la2":29.2853,"lo1":-89.7004,"lo2":-87.6739,"dy":0.0162,"dx":0.0183,"nx":112,"ny":82,"refTime":"2026-04-27T12:00:00:Z","depth":0,"parameterNumber":2,"parameterNumberName":"U-component_of_WINDS"},"data":[0.0,0.0,0.0,0.0,0.0,0.0,0.0,0.0,0.0,0.0,0.0,0.0,0.0,0.0,0.0,0.0,0.0,0.0,0.0,0.0,0.0,0.0,0.0,0.0,0.0,0.0,0.0,0.0,0.0,0.0,0.0,0.0,0.0,0.0,0.0,0.0,0.0,0.0,0.0,0.0,0.0,0.0,0.0,0.0,0.0,0.0,0.0,0.0,0.0,0.0,0.0,0.0,0.0,0.0,0.0,0.0,0.0,0.0,0.0,0.0,0.0,0.0,0.0,0.0,0.0,0.0,0.0,0.0,0.0,0.0,0.0,0.0,0.0,0.0,0.0,0.0,0.0,0.0,0.0,0.0,0.0,0.0,0.0,0.0,0.0,0.0,0.0,0.0,0.0,0.0,0.0,-5.4934,-5.8588,-6.1089,-6.1831,-6.0204,-5.7126,-5.2385,0.0,0.0,0.0,0.0,0.0,0.0,0.0,0.0,0.0,0.0,0.0,0.0,0.0,0.0,0.0,0.0,0.0,0.0,0.0,0.0,0.0,0.0,0.0,0.0,0.0,0.0,0.0,0.0,0.0,0.0,0.0,0.0,0.0,0.0,0.0,0.0,0.0,0.0,0.0,0.0,0.0,0.0,0.0,0.0,0.0,0.0,0.0,0.0,0.0,0.0,0.0,0.0,0.0,0.0,0.0,0.0,0.0,0.0,0.0,0.0,0.0,0.0,0.0,0.0,0.0,0.0,0.0,0.0,0.0,0.0,0.0,0.0,0.0,0.0,0.0,0.0,0.0,0.0,0.0,0.0,0.0,0.0,0.0,0.0,0.0,0.0,0.0,0.0,0.0,0.0,0.0,0.0,0.0,0.0,0.0,0.0,0.0,0.0,0.0,0.0,0.0,0.0,0.0,0.0,-5.1933,-5.8088,-5.9973,-6.0858,-6.0973,-5.8781,-5.6115,-5.3203,0.0,0.0,0.0,0.0,0.0,0.0,0.0,0.0,0.0,0.0,0.0,0.0,0.0,0.0,0.0,0.0,0.0,0.0,0.0,0.0,0.0,0.0,0.0,0.0,0.0,0.0,0.0,0.0,0.0,0.0,0.0,0.0,0.0,0.0,0.0,0.0,0.0,0.0,0.0,0.0,0.0,0.0,0.0,0.0,0.0,0.0,0.0,0.0,0.0,0.0,0.0,0.0,0.0,0.0,0.0,0.0,0.0,0.0,0.0,0.0,0.0,0.0,0.0,0.0,0.0,0.0,0.0,0.0,0.0,0.0,0.0,0.0,0.0,0.0,0.0,0.0,0.0,0.0,0.0,0.0,0.0,0.0,0.0,0.0,0.0,0.0,0.0,0.0,0.0,0.0,0.0,0.0,0.0,0.0,0.0,0.0,0.0,0.0,0.0,0.0,0.0,0.0,0.0,-5.0548,-5.3703,-5.9588,-6.0316,-6.0508,-6.0769,-5.8654,-5.6163,-5.3385,-4.9125,0.0,0.0,0.0,0.0,0.0,0.0,0.0,0.0,0.0,0.0,0.0,0.0,0.0,0.0,0.0,0.0,0.0,0.0,0.0,0.0,0.0,0.0,0.0,0.0,0.0,0.0,0.0,0.0,0.0,0.0,0.0,0.0,0.0,0.0,0.0,0.0,0.0,0.0,0.0,0.0,0.0,0.0,0.0,0.0,0.0,0.0,0.0,0.0,0.0,0.0,0.0,0.0,0.0,0.0,0.0,0.0,0.0,0.0,0.0,0.0,0.0,0.0,0.0,0.0,0.0,0.0,0.0,0.0,0.0,0.0,0.0,0.0,0.0,0.0,0.0,0.0,0.0,0.0,0.0,0.0,0.0,0.0,0.0,0.0,0.0,0.0,0.0,0.0,0.0,0.0,0.0,0.0,0.0,0.0,0.0,0.0,0.0,0.0,0.0,0.0,0.0,0.0,-5.3703,-5.5588,-6.0281,-6.0365,-6.0193,-6.0353,-5.8026,-5.5361,-5.2537,-4.7472,0.0,0.0,0.0,0.0,0.0,0.0,0.0,0.0,0.0,0.0,0.0,0.0,0.0,0.0,0.0,0.0,0.0,0.0,0.0,0.0,0.0,0.0,0.0,0.0,0.0,0.0,0.0,0.0,0.0,0.0,0.0,0.0,0.0,0.0,0.0,0.0,0.0,0.0,0.0,0.0,0.0,0.0,0.0,0.0,0.0,0.0,0.0,0.0,0.0,0.0,0.0,0.0,0.0,0.0,0.0,0.0,0.0,0.0,0.0,0.0,0.0,0.0,0.0,0.0,0.0,0.0,0.0,0.0,0.0,0.0,0.0,0.0,0.0,0.0,0.0,0.0,0.0,0.0,0.0,0.0,0.0,0.0,0.0,0.0,0.0,0.0,0.0,0.0,0.0,0.0,0.0,0.0,0.0,0.0,0.0,0.0,0.0,0.0,0.0,0.0,0.0,0.0,-5.3626,-5.6896,-6.0435,-6.0365,-5.9827,-5.9106,-5.5707,-5.2544,-4.9986,-4.4661,0.0,0.0,0.0,0.0,0.0,0.0,0.0,0.0,0.0,0.0,0.0,0.0,0.0,0.0,0.0,0.0,0.0,0.0,0.0,0.0,0.0,0.0,0.0,0.0,0.0,0.0,0.0,0.0,0.0,0.0,0.0,0.0,0.0,0.0,0.0,0.0,0.0,0.0,0.0,0.0,0.0,0.0,0.0,0.0,0.0,0.0,0.0,0.0,0.0,0.0,0.0,0.0,0.0,0.0,0.0,0.0,0.0,0.0,0.0,0.0,0.0,0.0,0.0,0.0,0.0,0.0,0.0,0.0,0.0,0.0,0.0,0.0,0.0,0.0,0.0,0.0,0.0,0.0,0.0,0.0,0.0,0.0,0.0,0.0,0.0,0.0,0.0,0.0,0.0,0.0,0.0,0.0,0.0,0.0,0.0,0.0,0.0,0.0,0.0,0.0,0.0,0.0,-5.2395,-5.5511,0.0,-5.9185,-5.8786,-5.8499,-5.5501,-5.2247,-4.9046,0.0,0.0,0.0,0.0,0.0,0.0,0.0,0.0,0.0,0.0,0.0,0.0,0.0,0.0,0.0,0.0,0.0,0.0,0.0,0.0,0.0,0.0,0.0,0.0,0.0,0.0,0.0,0.0,0.0,0.0,0.0,0.0,0.0,0.0,0.0,0.0,0.0,0.0,0.0,0.0,0.0,0.0,0.0,0.0,0.0,0.0,0.0,0.0,0.0,0.0,0.0,0.0,0.0,0.0,0.0,0.0,0.0,0.0,0.0,0.0,0.0,0.0,0.0,0.0,0.0,0.0,0.0,0.0,0.0,0.0,0.0,0.0,0.0,0.0,0.0,0.0,0.0,0.0,0.0,0.0,0.0,0.0,0.0,0.0,0.0,0.0,0.0,0.0,0.0,0.0,0.0,0.0,0.0,0.0,0.0,0.0,0.0,0.0,0.0,0.0,0.0,0.0,-4.7963,-5.132,-5.4473,0.0,-5.785,-5.7389,-5.688,-5.413,-5.0819,-4.7087,0.0,0.0,0.0,0.0,0.0,0.0,0.0,0.0,0.0,0.0,0.0,0.0,0.0,0.0,0.0,0.0,0.0,0.0,0.0,0.0,0.0,0.0,0.0,0.0,0.0,0.0,0.0,0.0,0.0,0.0,0.0,0.0,0.0,0.0,0.0,0.0,0.0,0.0,0.0,0.0,0.0,0.0,0.0,0.0,0.0,0.0,0.0,0.0,0.0,0.0,0.0,0.0,0.0,0.0,0.0,0.0,0.0,0.0,0.0,0.0,0.0,0.0,0.0,0.0,0.0,0.0,0.0,0.0,0.0,0.0,0.0,0.0,0.0,0.0,0.0,0.0,0.0,0.0,0.0,0.0,0.0,0.0,0.0,0.0,0.0,0.0,0.0,0.0,0.0,0.0,0.0,0.0,0.0,0.0,0.0,0.0,0.0,0.0,0.0,0.0,0.0,0.0,-4.6539,-5.0665,-5.4176,-5.6722,-5.6572,-5.5622,-5.4037,-5.121,-4.7792,0.0,0.0,0.0,0.0,0.0,0.0,0.0,0.0,0.0,0.0,0.0,0.0,0.0,0.0,0.0,0.0,0.0,0.0,0.0,0.0,0.0,0.0,0.0,0.0,0.0,0.0,0.0,0.0,0.0,0.0,0.0,0.0,0.0,0.0,0.0,0.0,0.0,0.0,0.0,0.0,0.0,0.0,0.0,0.0,0.0,0.0,0.0,0.0,0.0,0.0,0.0,0.0,0.0,0.0,0.0,0.0,0.0,0.0,0.0,0.0,0.0,0.0,0.0,0.0,0.0,0.0,0.0,0.0,0.0,0.0,0.0,0.0,0.0,0.0,0.0,0.0,0.0,0.0,0.0,0.0,0.0,0.0,0.0,0.0,0.0,0.0,0.0,0.0,0.0,0.0,0.0,0.0,0.0,0.0,0.0,0.0,0.0,0.0,0.0,0.0,0.0,0.0,0.0,-4.5795,-5.0839,-5.4484,-5.5489,-5.5529,-5.491,-5.3514,-5.1564,-4.7939,-4.2176,0.0,0.0,0.0,0.0,0.0,0.0,0.0,0.0,0.0,0.0,0.0,0.0,0.0,0.0,0.0,0.0,0.0,0.0,0.0,0.0,0.0,0.0,0.0,0.0,0.0,0.0,0.0,0.0,0.0,0.0,0.0,0.0,0.0,0.0,0.0,0.0,0.0,0.0,0.0,0.0,0.0,0.0,0.0,0.0,0.0,0.0,0.0,0.0,0.0,0.0,0.0,0.0,0.0,0.0,0.0,0.0,0.0,0.0,0.0,0.0,0.0,0.0,0.0,0.0,0.0,0.0,0.0,0.0,0.0,0.0,0.0,0.0,0.0,0.0,0.0,0.0,0.0,0.0,0.0,0.0,0.0,0.0,0.0,0.0,0.0,0.0,0.0,0.0,0.0,0.0,0.0,0.0,0.0,0.0,0.0,0.0,0.0,0.0,0.0,0.0,0.0,0.0,-4.4109,-4.9155,-5.2732,-5.3271,-5.3363,-5.2949,-5.185,-5.0875,-4.7829,-4.1956,0.0,0.0,0.0,0.0,0.0,0.0,0.0,0.0,0.0,0.0,0.0,0.0,0.0,0.0,0.0,0.0,0.0,0.0,0.0,0.0,0.0,0.0,0.0,0.0,0.0,0.0,0.0,0.0,0.0,0.0,0.0,0.0,0.0,0.0,0.0,0.0,0.0,0.0,0.0,0.0,0.0,0.0,0.0,0.0,0.0,0.0,0.0,0.0,0.0,0.0,0.0,0.0,0.0,0.0,0.0,0.0,0.0,0.0,0.0,0.0,0.0,0.0,0.0,0.0,0.0,0.0,0.0,0.0,0.0,0.0,0.0,0.0,0.0,0.0,0.0,0.0,0.0,0.0,0.0,0.0,0.0,0.0,0.0,0.0,0.0,0.0,0.0,0.0,0.0,0.0,0.0,0.0,0.0,0.0,0.0,0.0,0.0,0.0,0.0,0.0,0.0,0.0,-4.1992,-4.6617,-5.0014,-5.0729,-5.0802,-5.0472,-4.9684,-4.961,-4.7517,-4.2616,0.0,0.0,0.0,0.0,0.0,0.0,0.0,0.0,0.0,0.0,0.0,0.0,0.0,0.0,0.0,0.0,0.0,0.0,0.0,0.0,0.0,0.0,0.0,0.0,0.0,0.0,0.0,0.0,0.0,0.0,0.0,0.0,0.0,0.0,0.0,0.0,0.0,0.0,0.0,0.0,0.0,0.0,0.0,0.0,0.0,0.0,0.0,0.0,0.0,0.0,0.0,0.0,0.0,0.0,0.0,0.0,0.0,0.0,0.0,0.0,-4.8016,0.0,0.0,0.0,0.0,0.0,0.0,0.0,0.0,0.0,0.0,0.0,0.0,0.0,0.0,0.0,0.0,0.0,0.0,0.0,0.0,0.0,0.0,0.0,0.0,0.0,0.0,0.0,0.0,0.0,0.0,0.0,0.0,0.0,0.0,0.0,0.0,0.0,0.0,0.0,0.0,0.0,-4.2066,-4.7131,-5.0618,-5.0765,-5.0802,-5.0472,-4.9684,-4.961,-4.7517,-4.2616,-4.0047,0.0,0.0,0.0,0.0,0.0,0.0,0.0,0.0,0.0,0.0,0.0,0.0,0.0,0.0,0.0,0.0,0.0,0.0,0.0,0.0,0.0,0.0,0.0,0.0,0.0,0.0,0.0,0.0,0.0,0.0,0.0,0.0,0.0,0.0,0.0,0.0,0.0,0.0,0.0,0.0,0.0,0.0,0.0,0.0,0.0,0.0,0.0,0.0,0.0,0.0,0.0,0.0,0.0,0.0,0.0,0.0,0.0,0.0,0.0,0.0,-4.8099,0.0,0.0,0.0,0.0,0.0,0.0,0.0,0.0,0.0,0.0,0.0,0.0,0.0,0.0,0.0,0.0,0.0,0.0,0.0,0.0,0.0,0.0,0.0,0.0,0.0,0.0,0.0,0.0,0.0,0.0,0.0,0.0,0.0,0.0,0.0,0.0,0.0,0.0,0.0,0.0,-4.1515,-4.6324,-4.9591,-4.9591,-4.9591,-4.9444,-4.9003,-4.8967,-4.7388,-4.3681,-4.1185,0.0,0.0,0.0,0.0,0.0,0.0,0.0,0.0,0.0,0.0,0.0,0.0,0.0,0.0,0.0,0.0,0.0,0.0,0.0,0.0,0.0,0.0,0.0,0.0,0.0,0.0,0.0,0.0,0.0,0.0,0.0,0.0,0.0,0.0,0.0,0.0,0.0,0.0,0.0,0.0,0.0,0.0,0.0,0.0,0.0,0.0,0.0,0.0,0.0,0.0,0.0,0.0,0.0,-5.3813,-5.4056,-5.2974,-5.3521,-5.3381,-5.2625,-5.0634,-5.0152,-5.0593,-4.8074,0.0,0.0,0.0,0.0,0.0,0.0,0.0,0.0,0.0,0.0,0.0,0.0,0.0,0.0,0.0,0.0,0.0,0.0,0.0,0.0,0.0,0.0,0.0,0.0,-4.4966,-4.4378,0.0,0.0,0.0,0.0,0.0,0.0,0.0,0.0,0.0,0.0,0.0,0.0,-4.1095,-4.5406,-4.8306,-4.8306,-4.8306,-4.8306,-4.8306,-4.8306,-4.7388,-4.5241,-4.2856,-4.0194,0.0,0.0,0.0,0.0,0.0,0.0,0.0,0.0,0.0,0.0,0.0,0.0,0.0,0.0,0.0,0.0,0.0,0.0,0.0,0.0,0.0,0.0,0.0,0.0,0.0,0.0,0.0,0.0,0.0,0.0,0.0,0.0,-4.5162,-4.5229,0.0,0.0,0.0,0.0,0.0,0.0,0.0,0.0,0.0,0.0,0.0,0.0,0.0,-5.1997,-5.4599,-5.7149,-5.7965,-5.7094,-5.9395,-5.9284,-5.7083,-5.6539,-5.6233,-5.6097,-5.5145,0.0,-5.0814,-5.1175,0.0,0.0,0.0,0.0,0.0,0.0,0.0,0.0,0.0,0.0,0.0,0.0,0.0,0.0,0.0,0.0,0.0,0.0,0.0,0.0,0.0,0.0,-4.8802,-4.8802,-4.8306,-4.7498,0.0,-4.2159,-3.8542,-3.8036,-3.5634,0.0,0.0,0.0,0.0,0.0,0.0,0.0,-4.1919,-4.5773,-4.8306,-4.8306,-4.8306,-4.8306,-4.8306,-4.8306,-4.7865,-4.6856,-4.4525,-4.2359,-4.0545,-3.6655,0.0,0.0,0.0,0.0,0.0,0.0,0.0,0.0,0.0,0.0,0.0,0.0,0.0,0.0,0.0,0.0,0.0,0.0,0.0,0.0,0.0,0.0,0.0,0.0,0.0,0.0,0.0,0.0,0.0,-4.5669,-4.7394,-4.6989,-4.7394,-4.6718,0.0,0.0,0.0,0.0,0.0,0.0,0.0,0.0,0.0,-5.3179,-5.4424,-5.5899,-5.7639,-6.0552,-6.1092,-5.9356,-6.1305,-6.1147,-5.9133,-5.8795,-5.8423,-5.8017,-5.7712,-5.6268,-5.4055,-5.2651,-5.1005,-4.9077,0.0,0.0,0.0,0.0,-4.5315,-4.5746,-4.6629,-4.719,0.0,-4.5908,0.0,0.0,0.0,0.0,0.0,0.0,0.0,0.0,0.0,0.0,-4.8857,-4.8857,-4.86,-4.8196,-4.7846,-4.5461,-4.2893,0.0,-3.9203,-3.7059,-3.4417,0.0,0.0,0.0,0.0,-4.1148,-4.2763,-4.6104,-4.8306,-4.8306,-4.8306,-4.8122,-4.7663,-4.7626,-4.7076,-4.5828,-4.4342,-4.2983,-4.1809,-3.8322,-3.5459,0.0,0.0,0.0,0.0,0.0,0.0,0.0,0.0,0.0,0.0,0.0,0.0,0.0,0.0,0.0,0.0,0.0,0.0,0.0,0.0,0.0,0.0,0.0,0.0,0.0,0.0,0.0,0.0,-4.7767,-4.9661,-4.9089,-5.0168,-4.9729,0.0,0.0,0.0,0.0,0.0,0.0,-5.1454,-5.2604,-5.4329,-5.6765,-5.8186,-5.9493,-6.0693,-6.3075,-6.3329,-6.16,-6.2758,-6.2369,-6.0689,-6.0283,-5.981,-5.9268,-5.8896,-5.8118,-5.6869,-5.4151,-5.2537,-5.1618,-4.9486,-4.8291,-4.7763,-4.7747,-4.789,-4.8222,-4.946,-4.9996,-4.9889,-4.8417,0.0,-4.609,-4.3014,0.0,0.0,0.0,0.0,-4.4745,-4.614,-4.7388,-4.8379,-4.86,-4.8453,-4.8306,-4.8306,-4.7663,-4.6379,0.0,-4.2727,-4.0912,-3.7463,0.0,0.0,0.0,0.0,-4.2286,-4.3901,-4.6544,-4.8233,-4.8012,-4.7993,-4.7663,-4.6856,-4.6782,-4.6269,-4.5076,-4.4232,-4.3482,-4.2737,-3.9812,-3.7374,-3.5581,0.0,0.0,0.0,0.0,0.0,0.0,0.0,0.0,0.0,0.0,0.0,0.0,0.0,0.0,0.0,0.0,0.0,0.0,0.0,0.0,0.0,0.0,0.0,0.0,0.0,0.0,0.0,0.0,0.0,-5.2097,-5.2807,0.0,0.0,0.0,0.0,-5.071,-5.2334,-5.3856,-5.5344,-5.7476,-5.8998,-5.9844,-6.0694,-6.2314,-6.4685,-6.4855,-6.489,-6.4756,-6.4858,-6.3973,-6.2212,-6.0757,-6.008,-5.9979,-5.8558,-5.7915,-5.7712,-5.6158,-5.504,-5.416,-5.2606,-5.1904,-5.1785,-5.1728,-5.221,-5.2846,-5.2959,-5.3469,-5.3946,-5.3124,-5.0725,-4.7768,-4.551,-4.4652,0.0,0.0,-4.5234,-4.7113,-4.7976,-4.8233,-4.8526,-4.9353,-4.8893,-4.8306,-4.8306,-4.7663,-4.7039,0.0,-4.5572,-4.3975,-4.2249,0.0,-4.0802,-4.0802,-4.2286,-4.3938,-4.5553,-4.7241,-4.8012,-4.7223,-4.7149,-4.6819,-4.603,-4.5957,-4.592,-4.5847,-4.5076,-4.4401,-4.3818,-4.145,-3.9157,-3.7031,-3.3224,0.0,0.0,0.0,0.0,0.0,0.0,0.0,0.0,0.0,0.0,0.0,0.0,0.0,0.0,0.0,0.0,0.0,0.0,0.0,0.0,0.0,0.0,0.0,0.0,0.0,0.0,0.0,0.0,-5.4431,-5.6021,0.0,-5.4296,-5.3822,-5.3754,-5.4059,-5.5919,-5.7476,-5.849,-5.9776,-6.0825,-6.1535,-6.2423,-6.3295,-6.4148,-6.4698,-6.4698,-6.4148,-6.4148,-6.3295,-6.167,-6.1129,-6.0317,-5.937,-5.8863,-5.8355,-5.7848,-5.734,-5.6095,-5.4462,-5.344,-5.2438,-5.1576,-5.2081,-5.2423,-5.2702,-5.2641,-5.2819,-5.2893,-5.2032,-5.055,-4.8874,-4.7543,-4.6724,-4.6195,-4.5971,-4.687,-4.792,-4.8233,-4.871,-4.9077,-4.882,-4.8526,-4.8306,-4.8306,-4.8086,-4.7846,-4.7846,-4.6581,-4.5149,-4.4048,-4.359,-4.3119,-4.2177,-4.3761,-4.5297,-4.6012,-4.6922,-4.7406,-4.7113,-4.6636,-4.5993,-4.5223,-4.4635,-4.3979,-4.3105,-4.2305,-4.1668,-4.1153,-3.9808,-3.8232,-3.6429,-3.4023,-3.1045,0.0,0.0,0.0,0.0,0.0,0.0,0.0,0.0,0.0,0.0,0.0,0.0,0.0,0.0,0.0,0.0,0.0,0.0,0.0,0.0,0.0,0.0,0.0,0.0,0.0,0.0,-5.5716,-5.6731,-5.8592,-5.9099,-5.7374,-5.7645,-5.7814,-5.7611,-5.8964,-6.0114,-6.0825,-6.1366,-6.1907,-6.2381,-6.2935,-6.3425,-6.3683,-6.4253,-6.4253,-6.3719,-6.3442,-6.2621,-6.1298,-6.0757,-5.9979,-5.8998,-5.8761,-5.8355,-5.7881,-5.7611,-5.6528,-5.4905,-5.4431,-5.3315,-5.2092,-5.3112,-5.3492,-5.3497,-5.3457,-5.3046,-5.2449,-5.1574,-5.0532,-4.9512,-4.8673,-4.7849,-4.7192,-4.7192,-4.7731,-4.8306,-4.8306,-4.871,-4.9003,-4.8453,-4.8306,-4.8306,-4.8306,-4.8306,-4.8306,-4.8306,-4.7462,-4.6471,-4.5645,-4.5333,-4.4797,-4.3615,-4.4492,-4.5361,-4.5494,-4.6057,-4.6336,-4.6044,-4.5718,-4.5186,-4.4378,-4.3375,-4.2432,-4.1559,-4.0364,-3.9435,-3.8959,-3.7952,-3.6798,-3.5533,-3.347,-3.0803,-2.7526,0.0,0.0,0.0,0.0,0.0,0.0,0.0,0.0,0.0,0.0,0.0,0.0,0.0,0.0,0.0,0.0,0.0,0.0,0.0,0.0,0.0,0.0,0.0,-5.1217,-5.4532,-5.7442,-5.893,-6.0452,-6.1095,-6.0351,-6.0216,-6.052,-6.1332,-6.1366,-6.1637,-6.2347,-6.2381,-6.2381,-6.2381,-6.2381,-6.2817,-6.3647,-6.3647,-6.3647,-6.3647,-6.2886,-6.2105,-6.1231,-5.9708,-5.8998,-5.893,-5.822,-5.7881,-5.7814,-5.7103,-5.6359,-5.5683,-5.5683,-5.4803,-5.3685,-5.5149,-5.566,-5.5628,-5.558,-5.4509,-5.3057,-5.2249,-5.0997,-4.9667,-4.8864,-4.8034,-4.7406,-4.7406,-4.7838,-4.8306,-4.8306,-4.8306,-4.8306,-4.8306,-4.8306,-4.8306,-4.8306,-4.8306,-4.8306,-4.8306,-4.8306,-4.803,-4.7241,-4.663,-4.5957,-4.5183,-4.4557,0.0,-4.4156,-4.4677,-4.4755,-4.3976,-4.4308,-4.4289,-4.3499,-4.2196,-4.1431,-4.1377,-3.9489,-3.8133,-3.7519,-3.6116,-3.509,-3.4493,-3.1562,-2.9311,-2.7858,0.0,0.0,0.0,0.0,0.0,0.0,0.0,0.0,0.0,0.0,0.0,0.0,0.0,0.0,0.0,0.0,0.0,0.0,0.0,0.0,0.0,-5.0608,-5.2807,-5.3551,-5.6393,-5.9167,-6.1231,-6.2313,-6.3226,-6.4072,-6.3193,-6.2685,-6.2888,-6.2415,-6.2178,-6.2381,-6.2381,-6.2381,-6.2381,-6.2381,-6.2537,-6.2774,-6.274,-6.274,-6.274,-6.1991,-6.1227,-6.0385,-5.9438,-5.8727,-5.8186,-5.7983,-5.7577,-5.7103,-5.69,-5.6055,-5.4905,-5.4905,-5.4329,-5.3618,-5.4544,-5.4847,-5.4799,-5.4756,-5.4069,-5.3066,-5.2322,-5.1045,-4.9649,-4.8972,-4.8133,-4.7406,-4.7406,-4.7838,-4.8306,-4.8306,-4.8306,-4.8306,-4.8306,-4.8306,-4.8306,-4.8306,-4.8306,-4.8306,-4.8306,-4.8306,-4.8117,-4.7425,-4.7166,-4.6514,-4.4836,-4.4823,0.0,-4.3663,-4.3549,-4.3494,-4.3259,-4.2849,-4.2517,-4.2302,-4.0895,-3.9645,-3.8717,-3.7081,-3.5937,-3.5386,-3.4955,-3.4427,-3.3728,-3.0818,-2.9111,0.0,0.0,0.0,0.0,0.0,0.0,0.0,0.0,0.0,0.0,0.0,0.0,0.0,0.0,0.0,0.0,0.0,0.0,0.0,0.0,0.0,0.0,-5.3585,-5.5818,-5.7205,-5.8896,-6.0689,-6.2618,-6.326,-6.3835,-6.4681,-6.4005,-6.3396,-6.3057,-6.2618,-6.2381,-6.2381,-6.2381,-6.2381,-6.2381,-6.2381,-6.2381,-6.2381,-6.2381,-6.2245,-6.1907,-6.1163,-6.0385,-5.9607,-5.8896,-5.8321,0.0,-5.7577,-5.7205,-5.6765,-5.6122,-5.5378,0.0,0.0,0.0,0.0,0.0,-5.454,-5.4471,-5.4399,-5.3697,-5.268,-5.2229,-5.0701,-4.8921,-4.8834,-4.7784,-4.6705,-4.7255,-4.7674,-4.7995,-4.8248,-4.8306,-4.8306,-4.8306,-4.8306,-4.8306,-4.8306,-4.8306,-4.8306,-4.8306,-4.8306,0.0,-4.7132,-4.6713,-4.5922,-4.4227,-4.3736,-4.3176,-4.2117,-4.2044,-4.2118,-4.2118,-4.1929,-4.181,-4.181,-4.0172,0.0,0.0,0.0,-3.4561,-3.3613,-3.358,0.0,0.0,0.0,0.0,0.0,0.0,0.0,0.0,-2.91,-2.9093,0.0,0.0,0.0,0.0,0.0,0.0,0.0,0.0,0.0,0.0,0.0,0.0,0.0,0.0,0.0,0.0,-5.6697,-5.8896,-6.1129,-6.1434,-6.1941,-6.3362,-6.3531,-6.3531,-6.3632,-6.3565,-6.3226,-6.255,-6.2448,-6.2381,-6.2381,0.0,0.0,0.0,0.0,-6.2381,-6.2381,-6.2313,-6.1941,-6.1298,-6.0419,-5.9641,-5.8998,-5.822,-5.7848,-5.7712,-5.707,-5.6697,-5.6461,-5.5141,-5.4532,-5.4465,-5.4465,-5.4025,-5.3447,-5.4139,-5.4252,-5.4129,-5.4141,0.0,0.0,-5.1886,-5.0024,-4.7916,-4.8432,-4.7114,-4.5749,-4.6932,-4.7342,-4.7533,-4.8134,-4.8306,-4.8306,-4.8306,-4.8306,-4.8306,-4.8306,-4.8306,-4.8306,-4.8306,-4.8248,-4.7781,-4.6493,-4.5799,-4.4918,-4.3395,-4.2125,-4.1035,-4.0214,-4.0504,-4.0803,-4.0803,0.0,0.0,-4.1617,-3.9778,-3.8555,-3.8486,-3.5988,-3.3918,-3.2598,-3.2564,-3.2564,-3.2564,-3.2462,-3.2767,-3.3423,-3.3423,-3.3457,-3.3457,-3.0021,-2.9685,0.0,0.0,0.0,0.0,0.0,0.0,0.0,0.0,0.0,0.0,0.0,0.0,0.0,0.0,0.0,-5.5852,-5.822,-6.025,-6.1941,-6.2178,-6.2516,-6.3396,-6.3531,-6.3734,-6.4343,-6.3869,-6.3463,-6.3294,-6.2719,-6.2381,-6.2381,-6.2381,-6.2381,-6.2381,-6.2381,-6.2381,-6.2381,-6.1806,-6.1434,-6.1298,0.0,0.0,-5.8998,-5.822,-5.7577,-5.7002,-5.6867,-5.6122,-5.5006,-5.4702,-5.4262,-5.3721,-5.3721,-5.3247,-5.2598,-5.327,-5.2783,-5.1906,-5.2377,-5.1982,-5.1189,-5.0608,-4.9241,-4.7726,-4.7323,-4.6391,0.0,-4.6401,-4.6977,-4.7533,-4.8134,-4.8306,-4.8306,-4.8306,-4.8306,-4.8306,-4.8306,-4.8306,-4.8306,-4.8306,-4.7899,-4.7126,-4.576,-4.5882,-4.5361,-4.2877,-4.2257,-4.161,-4.0282,-4.0179,-4.0254,-4.0254,-4.0343,-4.0417,-4.0417,-3.8966,-3.7806,-3.7217,-3.5508,-3.437,-3.4066,-3.4066,-3.4066,-3.4066,-3.3491,-3.3254,-3.3423,-3.3423,-3.3728,-3.4269,-3.2949,-3.2584,0.0,0.0,0.0,0.0,0.0,0.0,0.0,0.0,0.0,0.0,0.0,-4.9255,-5.1894,0.0,-5.5547,-5.8558,-5.9979,-6.1095,-6.2245,-6.2381,-6.2516,-6.2922,-6.2956,-6.3091,-6.3463,-6.3159,-6.2956,-6.2956,-6.2618,-6.2381,-6.2381,-6.2381,-6.2381,-6.2381,-6.2042,-6.1839,-6.1839,-6.1095,-6.052,-6.0148,-5.937,-5.8829,-5.8423,-5.7679,-5.7137,-5.6765,-5.6021,-5.5277,-5.4566,-5.4194,-5.3585,-5.2909,-5.2909,-5.2672,-5.2328,-5.2235,-5.1812,-5.1251,-5.1525,-5.1138,-5.043,-4.9695,-4.8465,-4.717,-4.6462,-4.5688,-4.5214,-4.6161,-4.6623,-4.711,-4.8055,-4.8306,-4.8306,-4.8306,-4.8306,-4.8306,-4.8306,-4.8306,-4.8229,-4.7899,-4.7632,-4.6837,-4.5129,-4.5148,-4.456,-4.2132,-4.1441,-4.0925,-4.018,-4.0113,-4.0113,-4.0113,-4.0113,-4.0113,-4.0113,-3.8734,-3.7415,-3.6265,-3.5487,-3.4878,-3.4506,-3.4506,-3.4506,-3.4506,-3.4134,-3.4134,-3.4484,-3.4484,-3.4709,-3.5047,-3.5081,-3.5081,0.0,0.0,0.0,0.0,0.0,0.0,0.0,0.0,-4.8376,-5.0168,-5.1454,-5.3145,-5.5817,-5.6934,-5.8287,-6.0892,-6.1434,-6.1704,-6.2313,-6.2279,-6.2178,-6.2178,-6.2313,-6.2381,-6.2381,-6.2381,-6.2381,-6.2381,-6.2381,-6.2381,-6.2381,-6.2381,-6.2313,-6.2178,-6.1603,-6.1231,-6.1061,-6.0283,-5.9607,-5.9032,-5.8863,-5.8389,-5.7645,-5.707,-5.663,-5.6292,-5.4938,-5.4397,-5.4329,-5.3754,-5.311,-5.2495,-5.2359,-5.2189,-5.2013,-5.1429,-5.1078,-5.0957,-5.0935,-5.039,-4.97,-4.8941,-4.782,-4.665,-4.594,-4.5162,-4.4852,-4.6063,-4.6389,-4.6682,-4.7818,-4.8229,-4.8267,-4.8134,-4.8229,-4.8267,-4.8134,-4.8114,-4.7919,-4.7342,-4.7088,-4.6443,-4.4505,-4.4067,-4.334,-4.1485,-4.0696,-4.0282,-4.0113,-4.0113,-4.0113,-4.0113,-4.0113,-3.9977,-3.9706,-3.8565,-3.7222,-3.5701,-3.56,-3.5329,-3.4742,-3.4709,-3.4709,-3.4709,-3.4709,-3.5013,-3.56,-3.56,-3.5667,-3.5859,-3.6502,-3.6795,-4.8302,-4.7656,-4.7491,-4.7396,-4.7464,-4.8643,0.0,0.0,-5.2503,-5.5344,-5.6055,-5.6697,-5.8355,-5.9235,-6.008,-6.1129,-6.1839,-6.2313,-6.2381,-6.1839,-6.1434,-6.1434,-6.2009,-6.2381,-6.2381,-6.2381,-6.2381,-6.2381,-6.2381,-6.2381,-6.2381,-6.2381,-6.211,-6.1434,-6.1332,-6.096,-6.025,-5.9505,-5.9099,-5.8998,-5.8355,-5.7645,-5.6934,-5.6833,-5.6089,-5.4803,-5.3991,-5.3619,-5.3619,-5.3551,-5.3405,-5.3214,-5.2555,-5.1928,-5.1307,-5.1222,-5.0732,-5.0108,-5.0153,-4.9664,-4.8972,-4.826,-4.7454,-4.665,-4.594,-4.5162,-4.4852,-4.6063,-4.6389,-4.6553,-4.732,-4.7879,-4.8153,-4.7653,-4.7899,-4.8134,-4.7632,-4.7491,-4.732,-4.6623,-4.6088,-4.5221,-4.3697,-4.2929,-4.2223,-4.1305,-4.1136,-4.0832,-4.018,-4.0113,-4.0113,-4.0113,-4.0113,-3.9571,-3.8261,-3.799,-3.7222,-3.5701,-3.56,-3.5566,-3.5464,-3.5464,-3.5464,-3.5464,-3.5464,-3.5532,-3.56,-3.56,-3.596,-3.666,-3.6761,-3.6795,-5.1096,-5.0641,-5.0234,-5.0761,-5.1359,-5.2248,-5.416,-5.4431,-5.4769,-5.6461,-5.7476,-5.8287,-5.8896,-6.0013,-6.0926,0.0,-6.1907,-6.2245,-6.1806,-6.1501,-6.096,-6.008,-6.0622,-6.1231,-6.1704,-6.1772,-6.1941,-6.2347,-6.2381,-6.2381,-6.2381,-6.1975,-6.1603,-6.1332,-6.0452,-5.981,-5.9471,-5.8727,-5.8355,-5.8355,-5.7611,-5.7103,-5.6765,-5.5919,-5.4938,-5.3923,-5.3619,-5.375,-5.4104,-5.3626,-5.3406,-5.3287,-5.212,-5.147,-5.1072,-5.0661,-5.0027,-4.9402,-4.9402,-4.9226,-4.8815,-4.7631,-4.7056,-4.6583,-4.5399,-4.4823,-4.4852,-4.6063,-4.6161,-4.6112,-4.711,-4.732,-4.7132,-4.6887,-4.7021,-4.7132,-4.6887,-4.6819,-4.6635,-4.5989,-4.5316,-4.4388,-4.2971,-4.2124,-4.1407,-4.0663,-4.0561,-4.0451,-4.0146,-4.0113,-4.0113,-4.0113,-3.974,-3.9039,-3.799,-3.7516,-3.6772,-3.5667,-3.56,-3.56,-3.56,-3.56,-3.56,-3.56,-3.56,-3.5836,-3.6299,-3.6299,-3.6705,-3.7449,-3.7855,-3.8058,-5.2344,-5.2769,-5.3135,-5.3787,-5.4774,-5.5563,-5.5517,-5.5925,-5.6528,-5.7273,-5.8084,-5.8829,-5.9235,-6.0047,-6.0791,-6.1231,-6.1738,-6.1907,-6.1366,-6.0926,-6.0258,-5.9159,-5.8942,-5.9343,-6.0588,-6.0876,-6.1197,-6.1738,-6.1772,-6.1772,-6.1772,-6.1264,-6.0892,-6.0689,-5.9607,-5.893,-5.8693,-5.8152,-5.778,-5.7577,-5.707,-5.6596,-5.6156,-5.4871,-5.4025,-5.3484,-5.3717,-5.3874,-5.3949,-5.3762,-5.3346,-5.2705,-5.1815,-5.1199,-5.0743,-5.0202,-4.9693,-4.9256,-4.9046,-4.8883,-4.8511,-4.7192,-4.665,-4.6244,-4.4987,-4.4615,-4.4831,-4.584,-4.5815,-4.5724,-4.6635,-4.6659,-4.6342,-4.6209,-4.627,-4.6342,-4.6209,-4.6161,-4.5965,-4.5372,-4.4647,-4.3735,-4.2528,-4.1677,-4.0933,-4.0214,-4.0113,-4.0113,-4.0113,-4.0113,-4.0011,-3.9842,-3.9334,-3.8599,-3.7686,-3.711,-3.6468,-3.5633,-3.56,-3.56,-3.56,-3.56,-3.56,-3.56,-3.56,-3.5994,-3.6795,-3.6795,-3.728,-3.8227,-3.8734,-3.9106,-5.1279,-5.3151,-5.5505,-5.5593,-5.6775,-5.7907,-5.789,-5.7877,-5.8051,-5.8795,-5.8389,-5.8355,-5.981,-5.9539,-5.9573,-6.1061,-6.1332,-6.1332,-6.1298,-6.0013,-5.9091,-5.9081,-5.7191,-5.671,0.0,-5.975,-6.0148,-6.0182,-6.0182,-6.0182,-6.0182,-6.0148,-5.981,-5.9099,-5.9032,-5.866,-5.7915,-5.7915,-5.7543,-5.6833,-5.6799,-5.6055,-5.4634,-5.389,-5.3518,-5.3517,-5.4264,-5.3722,-5.2464,-5.3876,-5.3204,-5.1333,-5.1939,-5.131,-5.0033,-5.0004,-4.9976,-4.9861,-4.9226,-4.8545,-4.7804,-4.7056,-4.6312,-4.5602,-4.4852,-4.4615,-4.472,-4.5346,-4.5494,-4.5494,-4.5545,-4.5989,-4.6222,-4.5673,-4.5965,-4.6257,-4.5648,-4.552,-4.5346,-4.4748,-4.3972,-4.3193,-4.2422,-4.1677,-4.0933,-4.0214,-4.0113,-4.0113,-4.0113,-4.0113,-3.9842,-3.9106,-3.9005,-3.8396,-3.6965,-3.6829,-3.6468,-3.5633,-3.56,-3.56,-3.56,-3.56,-3.56,-3.56,-3.56,-3.5994,-3.6795,-3.6795,-3.754,-3.8971,-3.8971,-3.9377,-5.3555,-5.5537,-5.7321,-5.7898,-5.8826,-5.9436,-5.8853,-5.8322,-5.7878,-5.7584,-5.6562,-5.5852,-5.6359,-5.6664,-5.7137,-5.8152,-5.9539,-6.0317,-5.9844,-6.0216,-5.9806,-5.7837,-5.8254,0.0,0.0,0.0,0.0,-6.0047,-6.0114,-6.0114,-6.0114,-5.9641,-5.9531,-5.9871,-5.8819,-5.8411,-5.8668,-5.8173,-5.7509,-5.6799,-5.5818,-5.4803,-5.3856,-5.3619,-5.3518,-5.3517,-5.3716,-5.3521,-5.3118,-5.3477,-5.2953,-5.1896,-5.1582,-5.0881,-4.9947,-4.9492,-4.904,-4.8567,-4.8365,-4.8139,-4.7703,-4.6481,-4.5906,-4.5568,-4.4818,-4.4615,-4.472,-4.532,-4.5188,-4.5015,-4.5399,-4.5346,-4.5169,-4.4961,-4.5062,-4.5169,-4.4961,-4.4906,-4.4824,-4.4637,-4.3538,-4.2591,-4.232,-4.1271,-4.0383,-4.0146,-4.0113,-4.0113,-4.0113,-3.9673,-3.9276,-3.9005,-3.8115,-3.7337,-3.6829,-3.6299,-3.5893,-3.5633,-3.56,-3.56,-3.56,-3.56,-3.56,-3.56,-3.56,-3.5994,-3.6795,-3.728,-3.8024,-3.9005,-3.9503,-3.9876,-5.5721,-5.7629,-5.9113,-6.0201,-6.0675,-6.0603,-5.9748,-5.8962,-5.8122,-5.7015,-5.5412,-5.4188,-5.4155,-5.3922,-5.4296,-5.6122,-5.7814,-5.9032,-5.937,-6.0013,-5.9772,-5.7871,-5.822,-5.8255,0.0,0.0,0.0,-5.9201,-5.9302,-5.9302,-5.9302,-5.8863,-5.8996,-5.9839,-5.8873,-5.8737,-5.9574,-5.8497,-5.7289,-5.5987,-5.4769,-5.3957,-5.3518,-5.3518,-5.3348,-5.3077,-5.3338,-5.3004,-5.2326,-5.2986,-5.2416,-5.1123,-5.1114,-5.05,-4.9576,-4.9168,-4.8545,-4.7906,-4.7906,-4.7534,-4.6989,-4.6007,-4.5534,-4.5196,-4.475,-4.4615,-4.4665,-4.5062,-4.4906,-4.4692,-4.5062,-4.4879,-4.4615,-4.4615,-4.4615,-4.4615,-4.4615,-4.4615,-4.4615,-4.4615,-4.3335,-4.2286,-4.2286,-4.1094,-4.0113,-4.0113,-4.0113,-4.0113,-4.0113,-3.9469,-3.8903,-3.8633,-3.754,-3.6694,-3.64,-3.5926,-3.56,-3.56,-3.56,-3.56,-3.56,-3.56,-3.56,-3.56,-3.56,-3.6129,-3.7178,-3.7686,-3.8396,-3.9377,-3.9876,-4.0113,-5.7666,-5.9318,-6.0896,-6.2413,-6.2209,-6.137,-6.053,-5.9681,-5.8627,-5.6952,-5.4809,-5.3221,0.0,0.0,-5.1183,-5.4836,-5.619,-5.7509,-5.9674,-5.9471,-5.9057,0.0,0.0,0.0,0.0,0.0,0.0,-5.7848,0.0,-5.7881,-5.7881,-5.7954,-5.8317,-5.9144,-5.9178,-5.9539,-6.0392,-5.8736,-5.6777,-5.4566,-5.3856,-5.3518,-5.3518,-5.345,-5.301,-5.2333,-5.3091,-5.2138,-5.0255,-5.2306,-5.1537,-4.9138,-5.0535,-5.0202,-4.9018,-4.8951,-4.8477,-4.7838,-4.7804,-4.6887,-4.5703,-4.5669,-4.5162,-4.4615,-4.4615,-4.4615,-4.4615,-4.4615,-4.4615,-4.4615,-4.4615,-4.4615,-4.4615,-4.4615,-4.4615,-4.4615,-4.4615,-4.4615,-4.4615,-4.4615,-4.3335,-4.2286,-4.2185,-4.1027,-4.0113,-4.0113,-4.0113,-4.0113,-4.0113,-3.9436,-3.8667,-3.799,-3.7178,-3.6434,-3.5667,-3.56,-3.56,-3.56,-3.56,-3.56,-3.56,-3.56,-3.5633,-3.5667,-3.5667,-3.6377,-3.7922,-3.7956,-3.8667,-4.0045,-4.0079,-4.0113,-5.9208,-6.097,-6.2291,-6.267,-6.2203,-6.1255,-5.9835,-5.8448,-5.6832,-5.4598,-5.1976,-4.9894,0.0,0.0,0.0,-5.1895,-5.4397,0.0,-5.822,-5.9235,0.0,-5.8321,0.0,-5.8806,-5.7973,-5.8254,0.0,0.0,-5.7881,-5.7881,-5.7881,-5.8459,-5.9178,-6.0023,-6.0055,-6.0175,-6.0431,-5.7653,-5.5713,-5.4566,-5.3856,-5.3518,-5.3484,-5.2875,-5.2503,-5.2265,-5.1959,-5.1146,-5.019,-5.1243,-5.0592,-4.9077,-4.9947,-4.9751,-4.8951,-4.8376,-4.7733,-4.6989,-4.6447,-4.6007,-4.5602,-4.506,-4.475,-4.4615,-4.4615,-4.4615,-4.4615,-4.4615,-4.4615,-4.4615,-4.4615,-4.4615,-4.4615,-4.4615,-4.4615,-4.4615,-4.4615,-4.4615,-4.4615,-4.4615,-4.3335,-4.1948,-4.0857,-4.035,-4.0113,-4.0113,-4.0113,-4.0113,-4.0113,-3.8971,-3.8125,-3.7922,-3.6705,-3.5802,-3.5633,-3.56,-3.56,-3.56,-3.56,-3.56,-3.56,-3.56,-3.5893,-3.6468,-3.6468,-3.6941,-3.7922,-3.8464,-3.8903,-3.9276,-3.9842,-4.0113,-6.0456,-6.1851,-6.278,-6.278,-6.1924,-6.0543,-5.8578,-5.6915,-5.5003,-5.2198,-4.9802,0.0,-4.6751,-4.6672,0.0,0.0,0.0,0.0,-5.7577,-5.8896,-5.9318,0.0,-5.8907,0.0,-5.7981,-5.8324,-5.8388,0.0,-5.7881,-5.8029,-5.8423,-5.8875,-5.9636,-6.0879,-6.0587,-5.9931,-5.8864,-5.6816,-5.5195,-5.4093,-5.3687,-5.3518,-5.3484,-5.2672,-5.2131,-5.1791,0.0,-5.0298,-4.9653,-5.0348,-5.0011,-4.9077,-4.9751,-4.9576,-4.8917,-4.8142,-4.7428,-4.6684,-4.5974,-4.55,-4.5128,-4.475,-4.4615,-4.4615,-4.4615,-4.4615,-4.4615,-4.4615,-4.4615,-4.4615,-4.4615,-4.4615,-4.4615,-4.4615,-4.4615,-4.4615,-4.4615,-4.4615,-4.4412,-4.3735,-4.2888,-4.1839,-4.035,-4.0113,-4.0113,-4.0113,-4.0113,-4.0113,-4.0113,-3.9073,-3.8261,-3.7922,-3.684,-3.5994,-3.5633,-3.56,-3.56,-3.56,-3.56,-3.56,-3.56,-3.56,-3.5994,-3.6795,-3.6795,-3.7313,-3.8396,-3.8802,-3.9174,-3.9503,-3.991,-4.0113,-6.1557,-6.2365,-6.2915,-6.2695,-6.1447,-5.9575,-5.7079,-5.517,-5.3004,-4.9794,0.0,-4.6338,-4.4947,-4.4987,-4.6014,-4.846,0.0,-5.4566,-5.763,-5.8509,-5.8875,-5.9013,-5.8361,-5.7881,-5.7881,-5.7881,-5.7881,-5.7881,-5.7881,-5.8246,-5.9044,-5.9211,-6.0016,-6.157,-6.0693,-5.9155,-5.6914,-5.6043,-5.4918,-5.3518,-5.3518,-5.345,-5.3315,-5.2536,-5.1758,-5.1014,-5.027,0.0,-4.9046,-4.9605,-4.9521,-4.9046,-4.9634,-4.9521,-4.8917,-4.8071,-4.7361,-4.6684,-4.5838,-4.5128,-4.4615,-4.4615,-4.4615,-4.4615,-4.4615,-4.4615,-4.4615,-4.4615,-4.4615,-4.4615,-4.4615,-4.4615,-4.4615,-4.4615,-4.4615,-4.4615,-4.4615,-4.4513,-4.4039,-4.2557,-4.2219,-4.1711,-4.035,-4.0113,-4.0113,-4.0113,-4.0113,-4.0113,-4.0113,-3.9469,-3.8734,-3.8125,-3.7381,-3.6637,-3.5938,-3.5802,-3.5769,-3.5769,-3.5667,-3.5633,-3.5735,-3.5769,-3.6197,-3.7066,-3.71,-3.7777,-3.914,-3.914,-3.9445,-4.0113,-4.0113,-4.0113,-6.2548,-6.3209,-6.3539,-6.2144,-6.0603,-5.8597,-5.5537,-5.3078,0.0,0.0,-4.4907,-4.3451,-4.3162,-4.375,-4.5422,-4.9097,-5.1735,-5.4636,-5.8453,-5.8479,-5.8358,0.0,0.0,0.0,0.0,0.0,0.0,0.0,0.0,-5.8246,-5.9044,-5.98,-6.0623,-6.1554,-6.0254,-5.8672,-5.6914,-5.5488,-5.437,-5.3518,-5.3518,-5.3145,-5.2469,-5.1725,-5.098,-5.0236,-4.9492,0.0,-4.9018,-4.9138,-4.9107,-4.8984,-4.9138,-4.9107,-4.8849,-4.7496,-4.6921,-4.6616,-4.5263,-4.4716,-4.4615,-4.4615,-4.4615,-4.4615,-4.4615,-4.4615,-4.4615,-4.4615,-4.4615,-4.4615,-4.4615,-4.4615,-4.4615,-4.4615,-4.4615,-4.4615,-4.4615,-4.4079,-4.3369,-4.2455,-4.1813,-4.1102,-4.0248,-4.0113,-4.0113,-4.0113,-4.0113,-4.0113,-4.0113,-3.9469,-3.8937,-3.8802,-3.8159,-3.7652,-3.7516,-3.6941,-3.6569,-3.6569,-3.596,-3.5926,-3.6558,-3.6569,-3.7212,-3.8565,-3.8599,-3.9063,-3.991,-3.991,-3.9977,-4.0113,-4.0113,-4.0113,-6.278,-6.3429,-6.3686,-6.1998,-6.0089,-5.7629,-5.3995,0.0,0.0,0.0,-4.2866,-4.1758,-4.1321,-4.2649,0.0,-4.6323,-4.8987,-5.2031,-5.5574,-5.6059,0.0,0.0,0.0,0.0,0.0,0.0,0.0,0.0,0.0,-5.8246,-5.9044,-5.9573,-6.0003,-6.0373,-5.8514,-5.6894,-5.5704,-5.4595,-5.3848,-5.3518,-5.3518,-5.3078,-5.2266,-5.1555,-5.0811,-5.0067,-4.9323,0.0,-4.9018,-4.9018,-4.9018,-4.9018,-4.9018,-4.8781,-4.8308,-4.7192,-4.6549,-4.6075,-4.4987,-4.4615,-4.4615,-4.4615,-4.4615,-4.4615,-4.4615,-4.4615,-4.4615,-4.4615,-4.4615,-4.4615,-4.4615,-4.4615,-4.4615,-4.4615,-4.4615,-4.4615,-4.4615,-4.4282,-4.3809,-4.3031,-4.2286,-4.1542,-4.0798,-4.035,-4.0113,-4.0113,-4.0113,-4.0113,-4.0113,-3.9808,-3.9436,-3.9039,-3.8667,-3.8328,-3.7922,-3.7584,-3.7347,-3.7347,-3.7009,-3.6975,-3.7347,-3.7347,-3.7889,-3.8971,-3.9005,-3.9343,-4.0113,-4.0113,-4.0113,-4.0113,-4.0113,-4.0113,-6.278,-6.3429,-6.3649,-6.1777,-5.9648,-5.6895,-5.2711,-4.9187,0.0,-4.2727,-4.1258,-4.0451,-3.9974,-4.1704,-4.3346,0.0,-4.6552,-4.9692,-5.3219,-5.4192,0.0,0.0,0.0,0.0,0.0,0.0,0.0,0.0,0.0,0.0,-5.9044,-5.9222,-5.92,-5.9042,-5.6932,-5.54,-5.4606,-5.3848,-5.3518,-5.3518,-5.3518,-5.301,-5.2063,-5.1488,-5.071,-4.983,-4.9255,0.0,0.0,-4.9018,-4.9018,-4.9018,-4.9018,-4.8545,-4.7804,-4.7056,-4.6346,-4.5602,-4.4886,-4.4615,-4.4615,-4.4615,-4.4615,-4.4615,-4.4615,-4.4615,-4.4615,-4.4615,-4.4615,-4.4615,-4.4615,-4.4615,-4.4615,-4.4615,-4.4615,-4.4615,-4.4615,-4.4344,-4.391,-4.3301,-4.2455,-4.1644,-4.1068,-4.0485,-4.0113,-4.0113,-4.0113,-4.0113,-4.0113,-4.0113,-3.9876,-3.93,-3.9242,-3.9005,-3.843,-3.8227,-3.8159,-3.8159,-3.799,-3.799,-3.8125,-3.8159,-3.8497,-3.9208,-3.9242,-3.9537,-4.0113,-4.0113,-4.0113,-4.0113,-4.0113,-4.0113,-6.278,-6.3429,-6.3503,-6.1117,-5.9245,-5.6748,-5.1977,0.0,-4.5112,-4.1866,-3.9994,-3.9129,-3.979,-4.0696,-4.2275,-4.5205,0.0,-4.996,-5.47,0.0,0.0,0.0,0.0,0.0,0.0,0.0,0.0,0.0,0.0,0.0,-5.9044,-5.9222,-5.8999,-5.8249,-5.6663,-5.54,-5.4606,-5.3848,-5.3518,-5.3518,-5.3518,-5.2739,-5.1319,-5.1219,-5.0439,-4.9086,-4.9052,0.0,0.0,-4.9018,-4.9018,-4.9018,-4.9018,-4.8545,-4.7804,-4.7056,-4.6346,-4.5602,-4.4886,-4.4615,-4.4615,-4.4615,-4.4615,-4.4615,-4.4615,-4.4615,-4.4615,-4.4615,-4.4615,-4.4615,-4.4615,-4.4615,-4.4615,-4.4615,-4.4615,-4.4615,-4.4615,-4.3498,-4.2489,-4.2422,-4.1264,-4.0282,-4.0214,-4.0146,-4.0113,-4.0113,-4.0113,-4.0113,-4.0113,-4.0113,-4.0079,-4.0011,-4.0011,-3.9977,-3.991,-3.9276,-3.8903,-3.8903,-3.8261,-3.8193,-3.887,-3.8903,-3.9266,-3.9977,-4.0011,-4.0045,-4.0113,-4.0113,-4.0113,-4.0113,-4.0113,-4.0113,-6.1814,-6.3062,-6.3503,-6.1006,-5.9208,-5.6748,-5.1903,0.0,-4.5002,-4.1756,-3.9811,-3.8799,-3.9129,-3.9827,-4.0965,-4.2727,-4.3938,-4.6067,-4.9958,0.0,0.0,0.0,0.0,0.0,0.0,0.0,0.0,0.0,0.0,0.0,-5.7055,-5.7087,-5.6997,-5.6733,-5.5221,-5.4254,-5.3946,-5.3651,-5.3518,-5.3484,-5.301,-5.2232,-5.1151,-5.0744,-4.9965,-4.9018,-4.9018,0.0,0.0,-4.9018,-4.9018,-4.8951,-4.8511,-4.7902,-4.7158,-4.6413,-4.5669,-4.4993,-4.4716,-4.4615,-4.4615,-4.4615,-4.4615,-4.4615,-4.4615,-4.4615,-4.4615,-4.4615,-4.4615,-4.4615,-4.4615,-4.4615,-4.4615,-4.4615,-4.4615,-4.4615,-4.4615,-4.3741,-4.2963,-4.2963,-4.1779,-4.0764,-4.0764,-4.0392,-4.0113,-4.0113,-4.0113,-4.0113,-4.0113,-4.0113,-4.0113,-4.0113,-4.0113,-4.0113,-4.0113,-3.9842,-3.9673,-3.9673,-3.9402,-3.9368,-3.9673,-3.9673,-3.9808,-4.0079,-4.0113,-4.0113,-4.0113,-4.0113,-4.0113,-4.0113,-4.0561,-4.0764,-6.0382,-6.1924,-6.2475,-6.0236,-5.829,-5.5794,0.0,-4.7719,-4.4415,-4.1682,-3.9811,-3.8689,-3.8689,-3.9166,-3.99,-4.0912,-4.1772,-4.3497,-4.6966,-4.8241,0.0,0.0,0.0,0.0,0.0,0.0,0.0,0.0,0.0,0.0,-5.5446,-5.5378,-5.5417,-5.5432,-5.4158,-5.3518,-5.3518,-5.3518,-5.3518,-5.3484,-5.2672,-5.1928,-5.1183,-5.0439,-4.9695,-4.9018,0.0,0.0,0.0,-4.9018,-4.9018,-4.8951,-4.8176,-4.7462,-4.6718,-4.5974,-4.5229,-4.4615,-4.4615,-4.4615,-4.4615,-4.4615,-4.4615,-4.4615,-4.4615,-4.4615,-4.4547,-4.4316,-4.4107,-4.3938,-4.3938,-4.3938,-4.3972,-4.4181,-4.4248,-4.4248,-4.4248,-4.3639,-4.3031,-4.2767,-4.1745,-4.0865,-4.0865,-4.0426,-4.0113,-4.0113,-4.0113,-4.0113,-4.0113,-4.0113,-4.0113,-4.0113,-4.0113,-4.0113,-4.0113,-4.0113,-4.0113,-4.0113,-4.0113,-4.0113,-4.0113,-4.0113,-4.0113,-4.0113,-4.0113,-4.0113,-4.0113,-4.0316,-4.0451,-4.0426,-4.117,-4.1644,-5.8584,-5.9808,-6.0052,-5.8437,-5.6235,-5.3555,-5.0251,-4.6397,-4.3057,-4.1425,-3.9811,-3.8689,-3.8689,-3.8726,-3.9239,-4.0838,-4.1772,-4.3718,-4.7719,-4.8995,0.0,0.0,0.0,0.0,0.0,0.0,0.0,0.0,0.0,0.0,-5.4668,-5.46,-5.46,-5.4634,-5.389,-5.3518,-5.3518,-5.3518,-5.3518,-5.3484,-5.2672,-5.1928,-5.1183,-5.0439,-4.9695,0.0,0.0,0.0,0.0,-4.9018,-4.9018,-4.8951,-4.8176,-4.7462,-4.6718,-4.5974,-4.5229,-4.4615,-4.4615,-4.4615,-4.4615,-4.4615,-4.4615,-4.4615,-4.4615,-4.4615,-4.4418,-4.3639,-4.2895,-4.232,-4.232,-4.232,-4.2489,-4.324,-4.3409,-4.3409,-4.3409,-4.2828,-4.2083,-4.1373,-4.0595,-4.0113,-4.0113,-4.0113,-4.0113,-4.0113,-4.0113,-4.0113,-4.0113,-4.0113,-4.0113,-4.0113,-4.0113,-4.0113,-4.0113,-4.0113,-4.0113,-4.0113,-4.0113,-4.0113,-4.0113,-4.0113,-4.0113,-4.0113,-4.0113,-4.0113,-4.0113,-4.0832,-4.1204,-4.1204,-4.1948,-4.2692,-5.397,-5.528,-5.5904,-5.4289,-5.2894,-5.1242,-4.847,-4.559,-4.302,-4.1425,-3.9811,-3.8689,-3.8689,-3.8689,-3.9423,-4.1589,-4.2139,0.0,0.0,0.0,0.0,0.0,0.0,0.0,0.0,0.0,0.0,0.0,0.0,0.0,-5.389,-5.3856,-5.3856,-5.3856,-5.3619,-5.3518,-5.3518,-5.3518,-5.3213,-5.2672,-5.1928,-5.1183,-5.0405,-4.9695,0.0,0.0,0.0,0.0,0.0,-4.9018,-4.9018,-4.8883,-4.7631,-4.6989,-4.665,-4.5399,-4.4818,-4.4615,-4.4615,-4.4615,-4.4615,-4.4615,-4.4615,-4.4615,-4.4615,-4.4215,-4.3639,-4.2861,-4.2489,-4.2286,-4.2286,-4.2286,-4.2489,-4.3206,-4.3375,-4.3375,-4.3375,-4.2828,-4.2083,-4.1339,-4.0595,-4.0113,-4.0113,-4.0113,-4.0113,-4.0113,-4.0113,-4.0113,-4.0113,-4.0113,-4.0113,-4.0113,-4.0113,-4.0113,-4.0113,-4.0113,-4.0113,-4.0113,-4.0113,-4.0113,-4.0113,-4.0113,-4.0113,-4.0113,-4.0113,-4.0113,-4.0113,-4.035,-4.0967,-4.1982,-4.2726,-4.347,-5.0915,-5.224,-5.2941,-5.1612,-5.0333,-4.8837,-4.6672,-4.4342,-4.2213,-4.0928,-3.9606,-3.8689,-3.8689,-3.8689,-3.9276,-4.1111,-4.1662,-4.269,0.0,0.0,0.0,0.0,0.0,0.0,0.0,0.0,0.0,0.0,0.0,0.0,-5.3551,-5.3518,-5.3518,-5.3518,-5.3518,-5.3518,-5.3518,-5.3518,-5.3112,-5.23,-5.1555,-5.0811,-5.0067,-4.9323,0.0,0.0,0.0,0.0,0.0,-4.9018,-4.8849,-4.8477,-4.7259,-4.6616,-4.6244,-4.5055,-4.4615,-4.4615,-4.4615,-4.4615,-4.4615,-4.4615,-4.4615,-4.4547,-4.4215,-4.3606,-4.2828,-4.2083,-4.1677,-4.1467,-4.1467,-4.1677,-4.2083,-4.2828,-4.2997,-4.2997,-4.2997,-4.2422,-4.1677,-4.0933,-4.0417,-4.0113,-4.0113,-4.0113,-4.0113,-4.0113,-4.0113,-4.0113,-4.0113,-4.0113,-4.0113,-4.0113,-4.0113,-4.0113,-4.0113,-4.0113,-4.0113,-4.0113,-4.0113,-4.0113,-4.0113,-4.0113,-4.0113,-4.0113,-4.0113,-4.0113,-4.0113,-4.0383,-4.1102,-4.2286,-4.276,-4.3234,0.0,-5.0259,-5.0653,-4.9797,-4.8161,-4.6342,-4.4801,-4.2673,0.0,-4.0047,-3.9276,-3.8726,-3.8762,-3.8726,-3.9019,-4.001,-4.0781,-4.2086,0.0,-4.6983,0.0,0.0,0.0,0.0,0.0,0.0,0.0,0.0,0.0,0.0,-5.3551,-5.3518,-5.3518,-5.3518,-5.3518,-5.3518,-5.3518,-5.3518,-5.3078,-5.2198,-5.1555,-5.0811,-4.9999,-4.9323,0.0,0.0,0.0,0.0,0.0,-4.8951,-4.8545,-4.7804,-4.7022,-4.6312,-4.5602,-4.4886,-4.4615,-4.4615,-4.4615,-4.4615,-4.4615,-4.4615,-4.4615,-4.4445,-4.3639,-4.2929,-4.2219,-4.1508,-4.0764,-4.0248,-4.018,-4.073,-4.1441,-4.2117,-4.232,-4.2354,-4.2286,-4.1745,-4.1035,-4.0248,-4.0113,-4.0113,-4.0113,-4.0113,-4.0113,-4.0113,-4.0113,-4.0113,-4.0113,-4.0113,-4.0113,-4.0113,-4.0113,-4.0113,-4.0113,-4.0113,-4.0113,-4.0113,-4.0113,-4.0113,-4.0113,-4.0113,-4.0113,-4.0113,-4.0113,-4.0113,-4.0113,-4.0832,-4.1542,-4.2219,-4.2286,-4.2286,-4.5218,0.0,-4.6275,-4.4892,-4.398,-4.3167,0.0,-4.1038,-4.012,-3.9937,-3.9276,-3.8909,-3.9496,-3.9129,-3.957,-4.2229,-4.28,-4.3791,-4.6195,0.0,0.0,0.0,0.0,0.0,0.0,0.0,0.0,0.0,0.0,-5.3687,-5.3518,-5.3518,-5.3518,-5.3518,-5.3518,-5.3518,-5.3518,-5.3518,-5.2807,-5.1488,-5.1252,-5.0541,-4.9255,-4.9086,-4.9018,0.0,0.0,0.0,-4.8951,-4.8409,-4.8041,-4.777,-4.6481,-4.5838,-4.5602,-4.4886,-4.4615,-4.4615,-4.4615,-4.4615,-4.4615,-4.4615,-4.4615,-4.4445,-4.3639,-4.3274,-4.2997,-4.2252,-4.1914,-4.1644,-4.1102,-4.1474,-4.2083,-4.2252,-4.2726,-4.2997,-4.2422,-4.2151,-4.1644,-4.035,-4.0113,-4.0113,-4.0113,-4.0113,-4.0113,-4.0113,-4.0113,-4.0113,-4.0113,-4.0113,-4.0113,-4.0113,-4.0113,-4.0113,-4.0113,-4.0113,-4.0113,-4.0113,-4.0113,-4.0113,-4.0113,-4.0113,-4.0113,-4.0113,-4.0113,-4.0113,-4.0113,-4.0832,-4.1305,-4.1474,-4.2049,-4.2286,-4.3649,-4.451,-4.5071,-4.3437,-4.2937,-4.2543,-4.1352,-4.0487,-3.979,-3.9423,-3.9019,-3.8946,-3.9753,-3.9533,-3.9937,-4.2066,-4.302,0.0,0.0,0.0,0.0,0.0,0.0,0.0,0.0,0.0,0.0,0.0,0.0,-5.3518,-5.3518,-5.3518,-5.3518,-5.3518,-5.3145,-5.3145,-5.3518,-5.3145,-5.2367,-5.1185,-5.0879,-5.0101,-4.9018,-4.9018,-4.9018,0.0,0.0,0.0,-4.8477,-4.8041,-4.75,-4.679,-4.6007,-4.55,-4.5128,-4.475,-4.4615,-4.4615,-4.4615,-4.4615,-4.4615,-4.4615,-4.4615,-4.4513,-4.4079,-4.3944,-4.3707,-4.2591,-4.2286,-4.2185,-4.1813,-4.2252,-4.2794,-4.2794,-4.3132,-4.3274,-4.2895,-4.2286,-4.1542,-4.0764,-4.035,-4.0113,-4.0113,-4.0113,-4.0113,-4.0113,-4.0113,-4.0113,-4.0113,-4.0113,-4.0113,-4.0113,-4.0113,-4.0113,-4.0113,-4.0113,-4.0113,-4.0113,-4.0113,-4.0113,-4.0113,-4.0113,-4.0113,-4.0113,-4.0113,-4.0113,-4.0113,-4.0519,-4.0696,-4.0696,-4.1102,-4.1297,-4.3278,-4.4484,-4.5283,-4.3489,-4.3193,-4.291,-4.1425,-4.0487,-3.9717,-3.9019,-3.8872,-3.9129,-3.9937,-4.0157,0.0,0.0,0.0,0.0,0.0,0.0,0.0,0.0,0.0,0.0,0.0,0.0,0.0,0.0,0.0,-5.3518,-5.3518,-5.3518,-5.345,-5.3315,-5.2672,-5.257,-5.3145,-5.2469,-5.1758,-5.1048,-5.0405,-4.9695,-4.9018,-4.9018,-4.9018,-4.8984,0.0,0.0,-4.7872,-4.7635,-4.6853,-4.5703,-4.5568,-4.5128,-4.4615,-4.4615,-4.4615,-4.4615,-4.4615,-4.4615,-4.4615,-4.4615,-4.4615,-4.4615,-4.4615,-4.4615,-4.4344,-4.2997,-4.2625,-4.2625,-4.2489,-4.3031,-4.3544,-4.3409,-4.3477,-4.3572,-4.3409,-4.2354,-4.1339,-4.1238,-4.0595,-4.0113,-4.0113,-4.0113,-4.0113,-4.0113,-4.0113,-4.0113,-4.0113,-4.0113,-4.0113,-4.0113,-4.0113,-4.0113,-4.0113,-4.0113,-4.0113,-4.0113,-4.0113,-4.0113,-4.0113,-4.0113,-4.0113,-4.0113,-4.0113,-4.0113,-4.0113,-4.0113,-4.0113,-4.0113,-4.0113,-4.0113,-4.3226,-4.428,-4.4759,-4.2436,-4.2177,-4.2249,-4.1315,-4.0487,-3.9863,0.0,0.0,0.0,0.0,-4.1479,-4.2653,0.0,0.0,0.0,0.0,0.0,0.0,0.0,0.0,0.0,0.0,0.0,0.0,0.0,0.0,-5.3518,-5.3518,-5.3518,-5.3179,-5.2503,-5.2367,-5.2063,-5.1589,-5.1454,-5.1014,-5.027,-5.0135,-4.9695,-4.9018,-4.9018,-4.9018,-4.8984,0.0,-4.8007,-4.7804,-4.6549,-4.5906,-4.5635,-4.4993,-4.4716,-4.4615,-4.4615,-4.4615,-4.4615,-4.4615,-4.4615,-4.4615,-4.4615,-4.4615,-4.4615,-4.4615,-4.4615,-4.4547,-4.431,-4.4242,-4.4107,-4.3403,-4.3809,-4.4215,-4.3572,-4.391,-4.4215,-4.3572,-4.2726,-4.1948,-4.1339,-4.0595,-4.0113,-4.0113,-4.0113,-4.0113,-4.0113,-4.0113,-4.0113,-4.0113,-4.0113,-4.0113,-4.0113,-4.0113,-4.0113,-4.0113,-4.0113,-4.0113,-4.0113,-4.0113,-4.0113,-4.0113,-4.0113,-4.0113,-4.0113,-4.0113,-4.0113,-4.0113,-4.0113,-4.0113,-4.0113,-4.0113,-4.0113,-4.1585,-4.2217,-4.2929,-4.2707,-4.3135,-4.3277,-4.2029,-4.1148,-4.0561,-4.0561,0.0,0.0,0.0,0.0,-4.4525,-4.7425,0.0,0.0,0.0,0.0,0.0,0.0,0.0,0.0,0.0,0.0,0.0,0.0,0.0,0.0,-5.2875,-5.2841,-5.2503,-5.1725,-5.1319,-5.0947,-5.0608,-5.0202,-5.0033,-5.0101,-4.9695,-4.9323,-4.9018,-4.9018,-4.9018,-4.8951,0.0,-4.7669,-4.7225,-4.6143,-4.5466,-4.506,-4.475,-4.4615,-4.4615,-4.4615,-4.4615,-4.4615,-4.4615,-4.4615,-4.4615,-4.4615,-4.4615,-4.4615,-4.4615,-4.4615,-4.4615,-4.4615,-4.4615,-4.4513,-4.4147,-4.4316,-4.4513,-4.4147,-4.4316,-4.4378,-4.3544,-4.2828,-4.2083,-4.1339,-4.0595,-4.0113,-4.0113,-4.0113,-4.0113,-4.0113,-4.0113,-4.0113,-4.0113,-4.0113,-4.0113,-4.0113,-4.0113,-4.0113,-4.0113,-4.0113,-4.0113,-4.0113,-4.0113,-4.0113,-4.0113,-4.0113,-4.0113,-4.0113,-4.0113,-4.0113,-4.0113,-4.0113,-4.0113,-4.0113,-4.0113,-4.0113,-4.0657,-4.0781,-4.1425,-4.2873,-4.3681,-4.4085,-4.3791,-4.2653,-4.1829,-4.2379,0.0,0.0,0.0,-4.4342,0.0,-4.9427,0.0,0.0,0.0,0.0,0.0,0.0,0.0,0.0,0.0,0.0,0.0,0.0,0.0,0.0,-5.2097,-5.2063,-5.1725,-5.098,-5.0405,-4.9999,-4.983,-4.9289,-4.9289,-4.983,-4.9255,-4.9018,-4.9018,-4.9018,-4.9018,-4.8951,-4.8037,-4.7327,-4.6718,-4.5805,-4.5094,-4.4615,-4.4615,-4.4615,-4.4615,-4.4615,-4.4615,-4.4615,-4.4615,-4.4615,-4.4615,-4.4615,-4.4615,-4.4615,-4.4615,-4.4615,-4.4615,-4.4615,-4.4615,-4.4615,-4.4615,-4.4615,-4.4615,-4.4615,-4.4479,-4.4147,-4.3511,-4.2692,-4.188,-4.1305,-4.0595,-4.0113,-4.0113,-4.0113,-4.0113,-4.0113,-4.0113,-4.0113,-4.0113,-4.0113,-4.0113,-4.0113,-4.0113,-4.0113,-4.0113,-4.0113,-4.0113,-4.0113,-4.0113,-4.0113,-4.0113,-4.0113,-4.0113,-4.0113,-4.0113,-4.0113,-4.0113,-4.0113,-4.0113,-4.0113,-4.0282,-4.0383,-4.1956,-4.1625,-4.1315,-4.2176,-4.2433,-4.3424,-4.7058,-4.5516,-4.3975,-4.6195,0.0,0.0,0.0,-4.6471,0.0,0.0,0.0,0.0,0.0,0.0,0.0,0.0,0.0,0.0,0.0,0.0,0.0,0.0,0.0,0.0,-5.1319,-5.1285,-5.0947,-5.0202,-5.0135,-4.9763,-4.9086,-4.9018,-4.9018,-4.9086,-4.9018,-4.9018,-4.9018,-4.9018,-4.9018,-4.8917,-4.7496,-4.6853,-4.6684,-4.5292,-4.4649,-4.4615,-4.4615,-4.4615,-4.4615,-4.4615,-4.4615,-4.4615,-4.4615,-4.4615,-4.4615,-4.4615,-4.4615,-4.4615,-4.4615,-4.4615,-4.4615,-4.4615,-4.4615,-4.4615,-4.4615,-4.4615,-4.4615,-4.4615,-4.4012,-4.3477,-4.3409,-4.2286,-4.1271,-4.1204,-4.0595,-4.0113,-4.0113,-4.0113,-4.0113,-4.0113,-4.0113,-4.0113,-4.0113,-4.0113,-4.0113,-4.0113,-4.0113,-4.0113,-4.0113,-4.0113,-4.0113,-4.0113,-4.0113,-4.0113,-4.0113,-4.0113,-4.0113,-4.0113,-4.0113,-4.0113,-4.0113,-4.0113,-4.0113,-4.0113,-4.0798,-4.1136,-4.0458,-4.1051,-4.2079,-4.3028,-4.3749,-4.4494,-4.5772,-4.5883,-4.614,-4.7553,-4.7609,0.0,0.0,0.0,0.0,0.0,0.0,0.0,0.0,0.0,0.0,0.0,0.0,0.0,0.0,0.0,0.0,0.0,0.0,0.0,0.0,-5.0507,-5.0168,-4.9424,-4.9424,-4.9289,-4.9018,-4.9018,-4.9018,-4.9018,-4.9018,-4.9018,-4.9018,-4.9018,-4.8748,-4.8274,-4.7225,-4.6549,-4.6041,-4.4993,-4.4615,-4.4615,-4.4615,-4.4615,-4.4615,-4.4615,-4.4615,-4.4615,-4.4615,-4.4615,-4.4615,-4.4615,-4.4615,-4.4615,-4.4615,-4.4615,-4.4615,-4.4615,-4.4615,-4.4615,-4.4615,-4.4615,-4.4479,-4.3978,-4.3639,-4.3139,-4.2252,-4.161,-4.1068,-4.0595,-4.0282,-4.0113,-4.0113,-4.0113,-4.0113,-4.0113,-4.0113,-4.0113,-4.0113,-4.0113,-4.0113,-4.0113,-4.0113,-4.0113,-4.0113,-4.0113,-4.0113,-4.0113,-4.0113,-4.0113,-4.0113,-4.0113,-4.0113,-4.0113,-4.0113,-4.0113,-4.0113,-4.0113,-4.035,-4.0798,-4.1068,-4.1441,-4.003,-4.088,-4.2295,-4.3167,-4.4544,-4.569,-4.5808,-4.6801,-4.809,-4.9537,-4.9444,-4.926,-4.9867,0.0,0.0,0.0,0.0,0.0,0.0,0.0,0.0,0.0,0.0,0.0,0.0,0.0,0.0,0.0,0.0,0.0,0.0,-4.9729,-4.9526,-4.9018,-4.9018,-4.9018,-4.9018,-4.9018,-4.9018,-4.9018,-4.9018,-4.9018,-4.9018,-4.9018,-4.8612,-4.7838,-4.7124,-4.638,-4.5635,-4.4919,-4.4615,-4.4615,-4.4615,-4.4615,-4.4615,-4.4615,-4.4615,-4.4615,-4.4615,-4.4615,-4.4615,-4.4615,-4.4615,-4.4615,-4.4615,-4.4615,-4.4615,-4.4615,-4.4615,-4.4615,-4.4615,-4.4615,-4.4412,-4.3578,-4.3206,-4.2726,-4.1474,-4.1035,-4.0696,-4.0214,-4.0113,-4.018,-4.0417,-4.0451,-4.0451,-4.0451,-4.0451,-4.0383,-4.0146,-4.0113,-4.0113,-4.0113,-4.0113,-4.0113,-4.0113,-4.0113,-4.0113,-4.0113,-4.0113,-4.0113,-4.0113,-4.0113,-4.0113,-4.0113,-4.0113,-4.0113,-4.0113,-4.0113,-4.0383,-4.0865,-4.1339,-4.1813,-4.1295,-4.1332,-4.1742,-4.2182,0.0,0.0,-4.8033,-4.8659,-4.9745,-5.2631,-5.194,-5.0802,-5.0802,0.0,0.0,0.0,0.0,0.0,0.0,0.0,0.0,0.0,0.0,0.0,0.0,0.0,0.0,0.0,0.0,0.0,0.0,-4.9018,-4.9018,-4.9018,-4.9018,-4.9018,-4.9018,-4.9018,-4.9018,-4.9018,-4.8984,-4.8984,-4.9018,-4.8984,-4.8612,-4.7838,-4.7124,-4.638,-4.5635,-4.4919,-4.4615,-4.4615,-4.4615,-4.4615,-4.4615,-4.4615,-4.4615,-4.4615,-4.4615,-4.4615,-4.4615,-4.4615,-4.4615,-4.4615,-4.4615,-4.4615,-4.4615,-4.4615,-4.4615,-4.4615,-4.4615,-4.4615,-4.4412,-4.3606,-4.2828,-4.2083,-4.1339,-4.0595,-4.0113,-4.0113,-4.0113,-4.035,-4.1068,-4.1204,-4.1204,-4.1204,-4.1204,-4.0933,-4.0214,-4.0113,-4.0113,-4.0113,-4.0113,-4.0113,-4.0113,-4.0113,-4.0113,-4.0113,-4.0113,-4.0113,-4.0113,-4.0113,-4.0113,-4.0113,-4.0113,-4.0113,-4.0113,-4.0113,-4.0113,-4.0146,-4.161,-4.2286,-3.9621,-4.0915,-4.2956,-4.3623,0.0,0.0,0.0,-5.0996,0.0,0.0,-5.238,-5.1486,-5.0969,0.0,0.0,0.0,0.0,0.0,0.0,0.0,0.0,0.0,0.0,0.0,0.0,0.0,0.0,0.0,0.0,0.0,0.0,-4.9018,-4.9018,-4.9018,-4.9018,-4.9018,-4.9018,-4.9018,-4.9018,-4.8984,-4.8477,-4.8511,-4.8984,-4.8477,-4.7834,-4.709,-4.6346,-4.5602,-4.4891,-4.4716,-4.4615,-4.4615,-4.4615,-4.4615,-4.4615,-4.4615,-4.4615,-4.4615,-4.4615,-4.4615,-4.4615,-4.4615,-4.4615,-4.4615,-4.4615,-4.4615,-4.4615,-4.4615,-4.4615,-4.4615,-4.4615,-4.4615,-4.4276,-4.2929,-4.2455,-4.1948,-4.0696,-4.0248,-4.0113,-4.0113,-4.0493,-4.0933,-4.117,-4.1644,-4.1982,-4.1982,-4.1982,-4.188,-4.1704,-4.167,-4.1441,-4.0933,-4.0865,-4.0663,-4.0146,-4.0113,-4.0113,-4.0113,-4.0113,-4.0113,-4.0113,-4.0113,-4.0113,-4.0113,-4.0113,-4.0113,-4.0113,-4.0113,-4.0654,-4.167,-4.2083,-4.2861,-4.0737,-4.2648,-4.5036,-4.5977,-4.8318,-5.0772,-5.2163,0.0,0.0,0.0,-5.2821,-5.2249,-5.1506,0.0,0.0,0.0,0.0,0.0,0.0,0.0,0.0,0.0,0.0,0.0,0.0,0.0,0.0,0.0,0.0,0.0,0.0,-4.9018,-4.9018,-4.9018,-4.9018,-4.9018,-4.9018,-4.9018,-4.8849,-4.8578,-4.8108,-4.8003,-4.8105,-4.7665,-4.7056,-4.6312,-4.5568,-4.4993,-4.4615,-4.4615,-4.4615,-4.4615,-4.4615,-4.4615,-4.4615,-4.4615,-4.4615,-4.4615,-4.4615,-4.4615,-4.4615,-4.4615,-4.4615,-4.4615,-4.4615,-4.4615,-4.4615,-4.4615,-4.4378,-4.4181,-4.4513,-4.435,-4.3809,-4.2591,-4.2286,-4.1907,-4.0417,-4.0113,-4.0113,-4.0113,-4.0696,-4.1305,-4.1576,-4.2252,-4.2726,-4.2726,-4.2489,-4.2286,-4.2286,-4.2286,-4.2117,-4.1677,-4.1644,-4.1441,-4.1027,-4.0993,-4.0993,-4.0993,-4.0993,-4.0993,-4.0993,-4.0417,-4.0113,-4.0113,-4.0113,-4.0248,-4.0527,-4.0527,-4.1136,-4.2286,-4.2591,-4.3234,-4.3215,-4.5354,-4.7394,-4.8658,-5.0569,0.0,-5.3027,-5.3203,-5.3203,-5.3203,0.0,-5.2959,0.0,0.0,0.0,0.0,0.0,0.0,0.0,0.0,0.0,0.0,0.0,0.0,0.0,0.0,0.0,0.0,0.0,0.0,0.0,-4.9018,-4.9018,-4.9018,-4.9018,-4.9015,-4.9077,-4.8948,-4.8609,-4.7992,-4.7797,-4.7361,-4.6684,-4.6684,-4.6278,-4.5568,-4.4891,-4.4615,-4.4615,-4.4615,-4.4615,-4.4615,-4.4615,-4.4615,-4.4615,-4.4615,-4.4615,-4.4615,-4.4615,-4.4615,-4.4615,-4.4615,-4.4615,-4.4615,-4.4615,-4.4615,-4.4581,-4.4513,-4.3944,-4.3572,-4.4282,-4.3944,-4.3234,-4.2557,-4.2354,-4.1907,-4.0417,-4.0113,-4.0113,-4.0113,-4.073,-4.1508,-4.2185,-4.2963,-4.3538,-4.3538,-4.2929,-4.2489,-4.2489,-4.2489,-4.2455,-4.2388,-4.2388,-4.2354,-4.2286,-4.2286,-4.2286,-4.2286,-4.2286,-4.2286,-4.2286,-4.1027,-4.0316,-4.0316,-4.0316,-4.0629,-4.1305,-4.1227,-4.1598,-4.2422,-4.3017,-4.3354,-4.0702,-4.3732,0.0,-4.9303,-5.1607,-5.3367,-5.3224,-5.3203,-5.3203,-5.3203,-5.3203,0.0,0.0,0.0,0.0,0.0,0.0,0.0,0.0,0.0,0.0,0.0,0.0,0.0,0.0,0.0,0.0,0.0,0.0,0.0,-4.9018,-4.9018,-4.9018,-4.9018,-4.9018,-4.9256,-4.978,-4.8677,-4.8303,0.0,-4.6975,-4.6109,-4.594,-4.594,-4.5534,-4.4852,-4.4682,-4.4615,-4.4615,-4.4615,-4.4615,-4.4615,-4.4615,-4.4615,-4.4615,-4.4615,-4.4615,-4.4615,-4.4615,-4.4615,-4.4615,-4.4615,-4.4615,-4.4615,-4.4615,-4.4615,-4.4479,-4.3842,-4.3511,-4.3443,-4.3612,-4.3538,-4.3341,-4.32,-4.2726,-4.1907,-4.0417,-4.0113,-4.0113,-4.0113,-4.1162,-4.2117,-4.2252,-4.3436,-4.4316,-4.4316,-4.4209,-4.4107,-4.4107,-4.4107,-4.3842,-4.3234,-4.3139,-4.2929,-4.2354,-4.2286,-4.2286,-4.2286,-4.2286,-4.2286,-4.2286,-4.1982,-4.1839,-4.1839,-4.1839,-4.188,-4.2049,-4.1361,-4.1788,-4.3139,-4.2689,-4.3113,-4.1602,0.0,0.0,-5.1443,0.0,-5.3683,-5.3314,-5.3203,-5.3203,-5.3203,0.0,0.0,0.0,0.0,0.0,0.0,0.0,0.0,0.0,0.0,0.0,0.0,0.0,0.0,0.0,0.0,0.0,0.0,0.0,-4.9018,-4.9018,-4.9018,-4.9018,-4.9018,-4.868,-4.8625,-4.8973,-4.7942,-4.7364,-4.7323,-4.6243,-4.5534,-4.5162,-4.5162,-4.4959,-4.4615,-4.4615,-4.4615,-4.4615,-4.4615,-4.4615,-4.4615,-4.4615,-4.4615,-4.4615,-4.4615,-4.4615,-4.4615,-4.4615,-4.4615,-4.4615,-4.4615,-4.4615,-4.4615,-4.4615,-4.4316,-4.3944,-4.3511,-4.3166,-4.2963,-4.3308,-4.3375,-4.3308,-4.2963,-4.2591,-4.1982,-4.0865,-4.035,-4.0113,-4.0113,-4.1297,-4.2286,-4.2286,-4.3599,-4.4615,-4.4615,-4.4615,-4.4615,-4.4615,-4.4615,-4.4445,-4.4012,-4.3978,-4.3809,-4.343,-4.3396,-4.3396,-4.3396,-4.3396,-4.3396,-4.3396,-4.3396,-4.2867,-4.171,-4.1677,-4.1877,-4.2273,-4.2183,-4.2752,-4.395,-4.3115,-4.3402,-4.2536,0.0,-4.9844,-5.3384,-5.3979,0.0,-5.3113,-5.2894,-5.2784,0.0,0.0,0.0,0.0,0.0,0.0,0.0,0.0,0.0,0.0,0.0,0.0,0.0,0.0,0.0,0.0,0.0,0.0,0.0,0.0,-4.8815,-4.8815,-4.868,-4.8612,-4.8612,-4.8037,-4.7793,-4.7878,-4.7014,-4.6336,-4.5869,-4.5625,-4.5196,-4.4615,-4.4615,-4.4615,-4.4615,-4.4615,-4.4615,-4.4615,-4.4615,-4.4615,-4.4615,-4.4615,-4.4615,-4.4615,-4.4615,-4.4615,-4.4615,-4.4615,-4.4615,-4.4615,-4.4615,-4.4615,-4.4581,-4.4418,-4.3944,-4.3375,-4.3267,-4.276,-4.2455,-4.3206,-4.3375,-4.3274,-4.2794,-4.2591,-4.2252,-4.1407,-4.0696,-4.035,-4.0451,-4.1568,-4.2523,-4.2658,-4.3768,-4.4615,-4.4615,-4.4615,-4.4615,-4.4615,-4.4615,-4.4615,-4.4615,-4.4615,-4.4615,-4.4615,-4.4615,-4.4615,-4.4615,-4.4615,-4.4615,-4.4615,-4.444,-4.3432,-4.1453,-4.142,-4.1716,-4.24,-4.275,-4.3342,-4.4121,-4.3259,-4.332,-3.8901,0.0,-4.998,0.0,-5.3343,-5.3099,0.0,0.0,0.0,0.0,0.0,0.0,0.0,0.0,0.0,0.0,0.0,0.0,0.0,0.0,0.0,0.0,0.0,0.0,0.0,0.0,0.0,0.0,-4.8409,-4.8041,-4.8041,-4.7428,-4.709,-4.709,-4.6989,-4.7237,-4.7817,-4.6522,-4.6079,-4.6558,-4.5356,-4.4716,-4.4615,-4.4615,-4.4615,-4.4615,-4.4615,-4.4615,-4.4615,-4.4615,-4.4615,-4.4615,-4.4615,-4.4615,-4.4615,-4.4615,-4.4615,-4.4615,-4.4615,-4.4615,-4.4615,-4.4615,-4.4615,-4.4479,-4.3775,-4.3504,-4.3274,-4.2625,-4.2388,-4.2455,-4.3206,-4.3375,-4.3572,-4.4147,-4.3741,-4.2895,-4.1508,-4.1136,-4.1238,-4.188,-4.2692,-4.347,-4.4147,-4.4479,-4.4615,-4.4615,-4.4615,-4.4615,-4.4615,-4.4615,-4.4615,-4.4615,-4.4615,-4.4615,-4.4615,-4.4615,-4.4615,-4.4615,-4.4615,-4.4615,-4.4615,-4.3889,-4.3314,-4.2996,-4.2963,-4.3059,-4.3158,-4.1757,-4.1498,-4.2332,-4.1429,-4.1495,-4.0441,-4.5035,-4.944,0.0,-5.3391,-5.3026,-5.2457,0.0,0.0,0.0,0.0,0.0,0.0,0.0,0.0,0.0,0.0,0.0,0.0,0.0,0.0,0.0,0.0,0.0,0.0,0.0,0.0,0.0,-4.7462,-4.7293,-4.7293,-4.6989,-4.6786,-4.6786,-4.638,-4.6316,-4.6623,-4.5603,-4.5224,-4.5514,-4.4884,-4.4615,-4.4615,-4.4615,-4.4615,-4.4615,-4.4615,-4.4615,-4.4615,-4.4615,-4.4615,-4.4615,-4.4615,-4.4615,-4.4615,-4.4615,-4.4615,-4.4615,-4.4615,-4.4615,-4.4615,-4.4615,-4.4615,-4.4547,-4.4181,-4.3775,-4.3308,-4.3031,-4.2929,-4.2997,-4.3308,-4.3741,-4.4045,-4.3944,-4.3673,-4.3206,-4.2564,-4.2117,-4.2016,-4.2794,-4.32,-4.3673,-4.4479,-4.4615,-4.4615,-4.4615,-4.4615,-4.4615,-4.4615,-4.4615,-4.4615,-4.4615,-4.4615,-4.4615,-4.4615,-4.4615,-4.4615,-4.4615,-4.4615,-4.4615,-4.4615,-4.4241,-4.4035,-4.4035,-4.3078,-4.2583,-4.2583,-4.1788,-4.1626,-4.1949,-4.1129,-4.1164,-4.0677,-4.4126,-4.6982,-5.0812,-5.1845,-5.1876,0.0,0.0,0.0,0.0,0.0,0.0,0.0,0.0,0.0,0.0,0.0,0.0,0.0,0.0,0.0,0.0,0.0,0.0,0.0,0.0,0.0,0.0,-4.6616,-4.6515,-4.6515,-4.6346,-4.6244,-4.6244,-4.5703,-4.5432,-4.5432,-4.4886,-4.4615,-4.4615,-4.4615,-4.4615,-4.4615,-4.4615,-4.4615,-4.4615,-4.4615,-4.4615,-4.4615,-4.4615,-4.4615,-4.4615,-4.4615,-4.4615,-4.4615,-4.4615,-4.4615,-4.4615,-4.4615,-4.4615,-4.4615,-4.4615,-4.4615,-4.4581,-4.435,-4.3876,-4.3375,-4.3375,-4.3375,-4.3443,-4.3673,-4.4147,-4.4445,-4.3842,-4.3707,-4.3673,-4.3443,-4.3132,-4.3031,-4.3606,-4.3707,-4.391,-4.4513,-4.4615,-4.4615,-4.4615,-4.4615,-4.4615,-4.4615,-4.4615,-4.4615,-4.4615,-4.4615,-4.4615,-4.4615,-4.4615,-4.4615,-4.4615,-4.4615,-4.4615,-4.4615,-4.4615,-4.4615,-4.4615,-4.2892,-4.1981,-4.1981,-4.1559,-4.1362,-4.1329,-4.0656,-4.0724,-3.6539,-3.9061,-4.1522,-4.5192,0.0,0.0,0.0,0.0,0.0,0.0,0.0,0.0,0.0,0.0,0.0,0.0,0.0,0.0,0.0,0.0,0.0,0.0,0.0,0.0,0.0,0.0,0.0,0.0,-4.6143,-4.5771,-4.5771,-4.5094,-4.4716,-4.4716,-4.4682,-4.4682,-4.4682,-4.4615,-4.4615,-4.4615,-4.4615,-4.4615,-4.4615,-4.4615,-4.4615,-4.4615,-4.4615,-4.4615,-4.4615,-4.4615,-4.4615,-4.4615,-4.4615,-4.4615,-4.4615,-4.4615,-4.4615,-4.4615,-4.4615,-4.4615,-4.4615,-4.4615,-4.4615,-4.4479,-4.3707,-4.3409,-4.3375,-4.3375,-4.3375,-4.3606,-4.4316,-4.4581,-4.4581,-4.4547,-4.4547,-4.4344,-4.3572,-4.3978,-4.4513,-4.4547,-4.4547,-4.4547,-4.4615,-4.4615,-4.4615,-4.4615,-4.4615,-4.4615,-4.4615,-4.4615,-4.4615,-4.4615,-4.4615,-4.4615,-4.4615,-4.4615,-4.4615,-4.4615,-4.4615,-4.4615,-4.4615,-4.4615,-4.4615,-4.4615,-4.2892,-4.1981,-4.2013,-4.0343,-3.9553,-3.9553,-3.9481,-3.9481,-3.497,-3.7462,0.0,-4.3699,-4.5597,0.0,0.0,0.0,0.0,0.0,0.0,0.0,0.0,0.0,0.0,0.0,0.0,0.0,0.0,0.0,0.0,0.0,0.0,0.0,0.0,0.0,0.0,0.0,0.0,-4.4993,-4.4993,-4.475,-4.4615,-4.4615,-4.4615,-4.4615,-4.4615,-4.4615,-4.4615,-4.4615,-4.4615,-4.4615,-4.4615,-4.4615,-4.4615,-4.4615,-4.4615,-4.4615,-4.4615,-4.4615,-4.4615,-4.4615,-4.4615,-4.4615,-4.4615,-4.4615,-4.4615,-4.4615,-4.4615,-4.4615,-4.4615,-4.4615,-4.4615,-4.4547,-4.4248,-4.4181,-4.4181,-4.4181,-4.4181,-4.4215,-4.4547,-4.4615,-4.4615,-4.4615,-4.4615,-4.4513,-4.4215,-4.4412,-4.4615,-4.4615,-4.4615,-4.4615,-4.4615,-4.4615,-4.4615,-4.4615,-4.4615,-4.4615,-4.4615,-4.4615,-4.4615,-4.4615,-4.4615,-4.4615,-4.4615,-4.4615,-4.4615,-4.4615,-4.4615,-4.4615,-4.4615,-4.4615,-4.4615,-4.4615,-4.3443,-4.2552,-4.2013,-4.027,-3.9373,-3.9373,-3.9373,-3.9373,-3.3009,-3.5143,0.0,0.0,0.0,0.0,0.0,0.0,0.0,0.0,0.0,0.0,0.0,0.0,0.0,0.0,0.0,0.0,0.0,0.0,0.0,0.0,0.0,0.0,0.0,0.0,0.0,0.0,0.0,0.0,-4.4615,-4.4615,-4.4615,-4.4615,-4.4615,-4.4615,-4.4615,-4.4615,-4.4615,-4.4615,-4.4615,-4.4615,-4.4615,-4.4615,-4.4615,-4.4615,-4.4615,-4.4615,-4.4615,-4.4615,-4.4615,-4.4615,-4.4615,-4.4615,-4.4615,-4.4615,-4.4615,-4.4615,-4.4615,-4.4615,-4.4615,-4.4615,-4.4615,-4.4615,-4.4615,-4.4615,-4.4615,-4.4615,-4.4615,-4.4615,-4.4615,-4.4615,-4.4615,-4.4615,-4.4615,-4.4615,-4.4615,-4.4615,-4.4615,-4.4615,-4.4615,-4.4615,-4.4615,-4.4615,-4.4615,-4.4615,-4.4615,-4.4615,-4.4615,-4.4615,-4.4615,-4.4615,-4.4615,-4.4615,-4.4615,-4.4615,-4.4615,-4.4615,-4.4615,-4.4615,-4.4615,-4.4615,-4.4615,-4.4615,-4.3739,-4.3017,-4.2426,-4.0687,-3.9702,-3.9373,-3.9373,-3.9373,0.0,0.0,0.0,0.0,0.0,0.0,0.0,0.0,0.0,0.0,0.0,0.0,0.0,0.0,0.0,0.0,0.0,0.0,0.0,0.0,0.0,0.0,0.0,0.0,0.0,0.0,0.0,0.0,-4.4615,-4.4615,-4.4615,-4.4615,-4.4615,-4.4615,-4.4615,-4.4615,-4.4615,-4.4615,-4.4615,-4.4615,-4.4615,-4.4615,-4.4615,-4.4615,-4.4615,-4.4615,-4.4615,-4.4615,-4.4615,-4.4615,-4.4615,-4.4615,-4.4615,-4.4615,-4.4615,-4.4615,-4.4615,-4.4615,-4.4615,-4.4615,-4.4615,-4.4615,-4.4615,-4.4615,-4.4615,-4.4615,-4.4615,-4.4615,-4.4615,-4.4615,-4.4615,-4.4615,-4.4615,-4.4615,-4.4615,-4.4615,-4.4615,-4.4615,-4.4615,-4.4615,-4.4615,-4.4615,-4.4615,-4.4615,-4.4615,-4.4615,-4.4615,-4.4615,-4.4615,-4.4615,-4.4615,-4.4615,-4.4615,-4.4615,-4.4615,-4.4615,-4.4615,-4.4615,-4.4615,-4.4615,-4.4615,-4.4615,-4.4615,-4.4615,-4.3768,-4.3353,-4.3323,-4.1528,-4.0274,-3.9445,-3.9409,-3.9373,-3.0697,0.0,0.0,0.0,0.0,0.0,0.0,0.0,0.0,0.0,0.0,0.0,0.0,0.0,0.0,0.0,0.0,0.0,0.0,0.0,0.0,0.0,0.0,0.0,0.0,0.0,0.0,0.0,-4.4615,-4.4615,-4.4615,-4.4615,-4.4615,-4.4615,-4.4615,-4.4615,-4.4615,-4.4615,-4.4615,-4.4615,-4.4615,-4.4615,-4.4615,-4.4615,-4.4615,-4.4615,-4.4615,-4.4615,-4.4615,-4.4615,-4.4615,-4.4615,-4.4615,-4.4615,-4.4615,-4.4615,-4.4615,-4.4615,-4.4615,-4.4615,-4.4615,-4.4615,-4.4615,-4.4615,-4.4615,-4.4615,-4.4615,-4.4615,-4.4615,-4.4615,-4.4615,-4.4615,-4.4615,-4.4615,-4.4615,-4.4615,-4.4615,-4.4615,-4.4615,-4.4615,-4.4615,-4.4615,-4.4615,-4.4615,-4.4615,-4.4615,-4.4615,-4.4615,-4.4615,-4.4615,-4.4615,-4.4615,-4.4615,-4.4615,-4.4615,-4.4615,-4.4615,-4.4615,-4.4615,-4.4615,-4.4615,-4.4615,-4.4615,-4.4615,-4.4355,-4.3948,-4.3323,-4.1528,-4.0588,-4.0343,-3.9702,-3.9373,-3.1812,-3.2353,0.0,0.0,0.0,0.0,0.0,-3.797,0.0,0.0,0.0,0.0,0.0,0.0,0.0,0.0,0.0,0.0,0.0,0.0,0.0,0.0,0.0,0.0,0.0,0.0,0.0,-4.4615,-4.4615,-4.4615,-4.4615,-4.4615,-4.4615,-4.4615,-4.4615,-4.4615,-4.4615,-4.4615,-4.4615,-4.4615,-4.4615,-4.4615,-4.4615,-4.4615,-4.4615,-4.4615,-4.4615,-4.4615,-4.4615,-4.4615,-4.4615,-4.4615,-4.4615,-4.4615,-4.4615,-4.4615,-4.4615,-4.4615,-4.4615,-4.4615,-4.4615,-4.4615,-4.4615,-4.4615,-4.4615,-4.4615,-4.4615,-4.4615,-4.4615,-4.4615,-4.4615,-4.4615,-4.4615,-4.4615,-4.4615,-4.4615,-4.4615,-4.4615,-4.4615,-4.4615,-4.4615,-4.4615,-4.4615,-4.4615,-4.4615,-4.4615,-4.4615,-4.4615,-4.4615,-4.4615,-4.4615,-4.4615,-4.4615,-4.4716,-4.5026,-4.506,-4.5162,-4.5495,-4.5529,-4.5529,-4.5529,-4.5529,-4.5393,-4.506,-4.506,-4.4307,-4.2738,-4.2077,-4.1396,-4.069,-3.9809,-3.9373,-3.35,-3.3513,-3.4504,0.0,0.0,0.0,-3.7881,-3.8006,0.0,0.0,0.0,0.0,0.0,0.0,0.0,0.0,0.0,0.0,0.0,0.0,0.0,0.0,0.0,0.0,0.0,-4.4637,-4.4615,-4.4615,-4.4615,-4.4615,-4.4615,-4.4615,-4.4615,-4.4615,-4.4615,-4.4615,-4.4615,-4.4615,-4.4615,-4.4615,-4.4615,-4.4615,-4.4615,-4.4615,-4.4615,-4.4615,-4.4615,-4.4615,-4.4615,-4.4615,-4.4615,-4.4615,-4.4615,-4.4615,-4.4615,-4.4615,-4.4615,-4.4615,-4.4615,-4.4615,-4.4615,-4.4615,-4.4615,-4.4615,-4.4615,-4.4615,-4.4615,-4.4615,-4.4615,-4.4615,-4.4615,-4.4615,-4.4615,-4.4615,-4.4615,-4.4615,-4.4615,-4.4615,-4.4615,-4.4615,-4.4615,-4.4615,-4.4615,-4.4615,-4.4615,-4.4615,-4.4615,-4.4615,-4.4615,-4.4615,-4.4615,-4.4615,-4.4615,-4.4919,-4.5635,-4.5703,-4.6007,-4.6752,-4.6786,-4.6786,-4.6786,-4.6786,-4.6481,-4.5838,-4.5737,-4.453,-4.2173,-4.2833,-4.2269,-4.0519,-3.9773,-3.9373,-3.5041,-3.5642,-3.6391,-3.4688,0.0,0.0,-3.3416,-3.3807,0.0,0.0,0.0,0.0,0.0,0.0,0.0,0.0,0.0,0.0,0.0,0.0,0.0,0.0,0.0,0.0,0.0,-4.4879,-4.4615,-4.4615,-4.4615,-4.4615,-4.4615,-4.4615,-4.4615,-4.4615,-4.4615,-4.4615,-4.4615,-4.4615,-4.4615,-4.4615,-4.4615,-4.4615,-4.4615,-4.4615,-4.4615,-4.4615,-4.4615,-4.4615,-4.4615,-4.4615,-4.4615,-4.4615,-4.4615,-4.4615,-4.4615,-4.4615,-4.4615,-4.4615,-4.4615,-4.4615,-4.4615,-4.4615,-4.4615,-4.4615,-4.4615,-4.4615,-4.4615,-4.4615,-4.4615,-4.4615,-4.4615,-4.4615,-4.4615,-4.4615,-4.4615,-4.4615,-4.4615,-4.4615,-4.4615,-4.4615,-4.4615,-4.4615,-4.4615,-4.4615,-4.4615,-4.4615,-4.4615,-4.4615,-4.4615,-4.4615,-4.4615,-4.4615,-4.4615,-4.4919,-4.5635,-4.5703,-4.6007,-4.6752,-4.6786,-4.6786,-4.6786,-4.6786,-4.6718,-4.6583,-4.6007,-4.48,-4.3047,-4.252,-4.1362,-3.9631,-3.9481,-3.9373,-3.6817,-3.6853,-3.7309,-3.645,0.0,0.0,0.0,0.0,-3.4504,0.0,0.0,0.0,0.0,0.0,0.0,0.0,0.0,0.0,0.0,0.0,0.0,0.0,0.0,0.0,0.0,-4.5249,-4.4934,-4.4643,-4.4615,-4.4615,-4.4615,-4.4615,-4.4615,-4.4615,-4.4615,-4.4615,-4.4615,-4.4615,-4.4615,-4.4615,-4.4615,-4.4615,-4.4615,-4.4615,-4.4615,-4.4615,-4.4615,-4.4615,-4.4615,-4.4615,-4.4615,-4.4615,-4.4615,-4.4615,-4.4615,-4.4615,-4.4615,-4.4615,-4.4615,-4.4615,-4.4615,-4.4615,-4.4615,-4.4615,-4.4615,-4.4615,-4.4615,-4.4615,-4.4615,-4.4615,-4.4615,-4.4615,-4.4615,-4.4615,-4.4615,-4.4615,-4.4615,-4.4615,-4.4615,-4.4615,-4.4615,-4.4615,-4.4615,-4.4615,-4.4615,-4.4615,-4.4615,-4.4615,-4.4615,-4.4919,-4.4993,-4.4649,-4.5258,-4.5838,-4.621,-4.6583,-4.7124,-4.7834,-4.7902,-4.7902,-4.7902,-4.7902,-4.7733,-4.7361,-4.6166,-4.479,-4.3196,-4.2297,-4.1236,-4.006,-3.9595,-3.9373,0.0,0.0,0.0,0.0,0.0,-3.5422,0.0,0.0,0.0,-3.7074,0.0,0.0,0.0,0.0,0.0,0.0,0.0,0.0,0.0,0.0,0.0,0.0,0.0,0.0,0.0,-4.4888,-4.4662,-4.4575,-4.4209,-4.4141,-4.4581,-4.4615,-4.4615,-4.4615,-4.4615,-4.4615,-4.4615,-4.4615,-4.4615,-4.4615,-4.4615,-4.4615,-4.4615,-4.4615,-4.4615,-4.4615,-4.4615,-4.4615,-4.4615,-4.4615,-4.4615,-4.4615,-4.4615,-4.4615,-4.4615,-4.4615,-4.4615,-4.4615,-4.4615,-4.4615,-4.4615,-4.4615,-4.4615,-4.4615,-4.4615,-4.4615,-4.4615,-4.4615,-4.4615,-4.4615,-4.4615,-4.4615,-4.4615,-4.4615,-4.4615,-4.4615,-4.4615,-4.4615,-4.4615,-4.4615,-4.4615,-4.4615,-4.4615,-4.4615,-4.4615,-4.4615,-4.4615,-4.4649,-4.4818,-4.5331,-4.5534,-4.5089,-4.6075,-4.6853,-4.6989,-4.7564,-4.821,-4.8951,-4.9018,-4.9018,-4.9018,-4.9018,-4.8646,-4.7906,-4.6557,-4.5108,-4.3557,-4.2624,-4.1565,-4.0416,-3.9737,-3.9373,0.0,0.0,0.0,0.0,-3.8946,0.0,0.0,0.0,-3.5495,-3.3647,0.0,0.0,0.0,0.0,0.0,0.0,0.0,0.0,0.0,0.0,0.0,0.0,0.0,0.0,0.0,0.0,-4.2528,-4.4445,-4.2726,-4.2455,-4.4513,-4.4615,-4.4615,-4.4615,-4.4615,-4.4615,-4.4615,-4.4615,-4.4615,-4.4615,-4.4615,-4.4615,-4.4615,-4.4615,-4.4615,-4.4615,-4.4615,-4.4615,-4.4615,-4.4615,-4.4615,-4.4615,-4.4615,-4.4615,-4.4615,-4.4615,-4.4615,-4.4615,-4.4615,-4.4615,-4.4615,-4.4615,-4.4615,-4.4615,-4.4615,-4.4615,-4.4615,-4.4615,-4.4615,-4.4615,-4.4615,-4.4615,-4.4615,-4.4615,-4.4615,-4.4615,-4.4615,-4.4615,-4.4615,-4.4615,-4.4615,-4.4615,-4.4615,-4.4615,-4.4615,-4.4615,-4.4615,-4.4852,-4.55,-4.5669,-4.594,-4.6481,-4.6684,-4.7056,-4.7703,-4.7838,-4.821,-4.8951,-4.9018,-4.9018,-4.9018,-4.9018,-4.8646,-4.7906,-4.7713,-4.6845,-4.5236,-4.4265,-4.2344,-3.9553,-3.9445,-3.9373,0.0,0.0,0.0,0.0,0.0,0.0,-3.5495,0.0,-3.4688,0.0,0.0,0.0,0.0,0.0,0.0,0.0,0.0,0.0,0.0,0.0,0.0,0.0,0.0,0.0,0.0,0.0,0.0,0.0,0.0,-4.1982,-4.3809,-4.4378,-4.4615,-4.4615,-4.4615,-4.4615,-4.4615,-4.4615,-4.4615,-4.4615,-4.4615,-4.4615,-4.4615,-4.4615,-4.4615,-4.4615,-4.4615,-4.4615,-4.4615,-4.4615,-4.4615,-4.4615,-4.4615,-4.4615,-4.4615,-4.4615,-4.4615,-4.4615,-4.4615,-4.4615,-4.4615,-4.4615,-4.4615,-4.4615,-4.4615,-4.4615,-4.4615,-4.4615,-4.4615,-4.4615,-4.4615,-4.4615,-4.4615,-4.4615,-4.4615,-4.4615,-4.4615,-4.4615,-4.4615,-4.4615,-4.4925,-4.5229,-4.5229,-4.4857,-4.475,-4.5162,-4.5229,-4.55,-4.6244,-4.6718,-4.6921,-4.6819,-4.7564,-4.8037,-4.7906,-4.8308,-4.868,-4.8984,-4.9018,-4.9018,-4.9018,-4.9018,-4.8849,-4.8545,-4.7981,-4.6911,-4.534,-4.4392,-4.3043,-4.1362,-4.0812,-4.0546,-4.2565,0.0,0.0,0.0,0.0,0.0,0.0,0.0,0.0,0.0,0.0,0.0,0.0,0.0,0.0,0.0,0.0,0.0,0.0,0.0,0.0,0.0,0.0,0.0,0.0,0.0,0.0,0.0,0.0,0.0,-4.3301,-4.3944,-4.435,-4.4615,-4.4615,-4.4615,-4.4615,-4.4615,-4.4615,-4.4615,-4.4615,-4.4615,-4.4615,-4.4615,-4.4615,-4.4615,-4.4615,-4.4615,-4.4615,-4.4615,-4.4615,-4.4615,-4.4615,-4.4615,-4.4615,-4.4615,-4.4615,-4.4615,-4.4615,-4.4615,-4.4615,-4.4615,-4.4615,-4.4615,-4.4615,-4.4615,-4.4615,-4.4615,-4.4615,-4.4615,-4.4615,-4.4615,-4.4615,-4.4615,-4.4615,-4.4615,-4.4615,-4.4615,-4.4682,-4.4857,-4.5331,-4.5771,-4.5974,-4.5534,-4.5365,-4.5906,-4.6007,-4.6278,-4.7022,-4.7597,-4.7767,-4.7428,-4.8376,-4.8781,-4.8274,-4.8714,-4.9018,-4.9018,-4.9018,-4.9018,-4.9018,-4.9018,-4.9018,-4.9018,-4.8321,-4.7276,-4.5884,-4.5161,-4.448,-4.3693,-4.2408,-4.1775,0.0,0.0,0.0,-4.0671,0.0,0.0,0.0,0.0,-3.6229,0.0,0.0,0.0,0.0,0.0,0.0,0.0,0.0,0.0,0.0,0.0,0.0,0.0,0.0,0.0,0.0,0.0,0.0,0.0,0.0,0.0,-4.3166,-4.3409,-4.3809,-4.4581,-4.4615,-4.4615,-4.4615,-4.4615,-4.4615,-4.4615,-4.4615,-4.4615,-4.4615,-4.4615,-4.4615,-4.4615,-4.4615,-4.4615,-4.4615,-4.4615,-4.4615,-4.4615,-4.4615,-4.4615,-4.4615,-4.4615,-4.4615,-4.4615,-4.4615,-4.4615,-4.4615,-4.4615,-4.4615,-4.4615,-4.4615,-4.4615,-4.4615,-4.4615,-4.4615,-4.4615,-4.4615,-4.4615,-4.4615,-4.4615,-4.4615,-4.4615,-4.4615,-4.4615,-4.4818,-4.5534,-4.5703,-4.594,-4.6616,-4.6752,-4.6718,-4.6752,-4.6752,-4.7022,-4.777,-4.7872,-4.8173,-4.8849,-4.8984,-4.8984,-4.8984,-4.8984,-4.9018,-4.9018,-4.9018,-4.9018,-4.9018,-4.9018,-4.9018,-4.9018,-4.8954,-4.848,-4.7506,-4.7473,-4.7005,-4.6042,-4.3791,-4.2771,0.0,0.0,-4.4464,-4.2079,0.0,0.0,0.0,0.0,0.0,0.0,0.0,0.0,0.0,0.0,0.0,0.0,0.0,0.0,0.0,0.0,0.0,0.0,0.0,0.0,0.0,0.0,0.0,0.0,-3.8874,0.0,0.0,-4.3076,-4.3511,-4.3809,-4.4316,-4.4615,-4.4615,-4.4615,-4.4615,-4.4615,-4.4615,-4.4615,-4.4615,-4.4615,-4.4615,-4.4615,-4.4615,-4.4615,-4.4615,-4.4615,-4.4615,-4.4615,-4.4615,-4.4615,-4.4615,-4.4615,-4.4615,-4.4615,-4.4615,-4.4615,-4.4615,-4.4615,-4.4615,-4.4615,-4.4615,-4.4615,-4.4615,-4.4615,-4.4615,-4.4615,-4.4615,-4.4615,-4.4615,-4.4615,-4.4615,-4.4615,-4.4615,-4.4959,-4.5399,-4.5669,-4.6515,-4.7259,-4.7496,-4.7936,-4.8105,-4.7597,-4.753,-4.78,-4.8545,-4.8646,-4.8714,-4.8984,-4.9018,-4.9018,-4.9018,-4.9018,-4.9018,-4.9018,-4.9018,-4.9018,-4.9018,-4.9018,-4.9018,-4.9018,-4.9018,-4.8545,-4.7572,-4.7572,-4.744,-4.7105,-4.6346,-4.5295,-4.5342,-4.5352,0.0,-4.2926,-4.155,0.0,-3.7131,0.0,0.0,0.0,0.0,0.0,0.0,0.0,0.0,0.0,0.0,0.0,0.0,0.0,0.0,0.0,0.0,0.0,0.0,0.0,-3.6902,-3.8869,0.0,0.0,0.0,0.0,-4.2834,-4.3375,-4.4181,-4.4615,-4.4615,-4.4615,-4.4615,-4.4615,-4.4615,-4.4615,-4.4615,-4.4615,-4.4615,-4.4615,-4.4615,-4.4615,-4.4615,-4.4615,-4.4615,-4.4615,-4.4615,-4.4615,-4.4615,-4.4615,-4.4615,-4.4615,-4.4615,-4.4615,-4.4615,-4.4615,-4.4615,-4.4615,-4.4615,-4.4615,-4.4615,-4.4615,-4.4615,-4.4615,-4.4615,-4.4615,-4.4615,-4.4615,-4.4818,-4.4993,-4.4993,-4.5568,-4.6177,-4.6447,-4.7229,-4.7973,-4.8274,-4.8714,-4.8849,-4.8376,-4.8308,-4.8477,-4.8951,-4.9018,-4.9018,-4.9018,-4.9018,-4.9018,-4.9018,-4.9018,-4.9018,-4.9018,-4.9018,-4.9018,-4.9018,-4.9018,-4.9018,-4.9018,-4.9018,-4.8545,-4.7572,-4.7933,-4.7933,-4.7638,-4.7933,-4.7273]},{"header":{"parameterUnit":"m.s-1","parameterCategory":1,"la1":30.6,"la2":29.2853,"lo1":-89.7004,"lo2":-87.6739,"dy":0.0162,"dx":0.0183,"nx":112,"ny":82,"refTime":"2026-04-27T12:00:00:Z","depth":0,"parameterNumber":3,"parameterNumberName":"V-component_of_WINDS"},"data":[0.0,0.0,0.0,0.0,0.0,0.0,0.0,0.0,0.0,0.0,0.0,0.0,0.0,0.0,0.0,0.0,0.0,0.0,0.0,0.0,0.0,0.0,0.0,0.0,0.0,0.0,0.0,0.0,0.0,0.0,0.0,0.0,0.0,0.0,0.0,0.0,0.0,0.0,0.0,0.0,0.0,0.0,0.0,0.0,0.0,0.0,0.0,0.0,0.0,0.0,0.0,0.0,0.0,0.0,0.0,0.0,0.0,0.0,0.0,0.0,0.0,0.0,0.0,0.0,0.0,0.0,0.0,0.0,0.0,0.0,0.0,0.0,0.0,0.0,0.0,0.0,0.0,0.0,0.0,0.0,0.0,0.0,0.0,0.0,0.0,0.0,0.0,0.0,0.0,0.0,0.0,0.9686,1.0331,1.0772,1.0833,1.0616,1.0073,0.9296,0.0,0.0,0.0,0.0,0.0,0.0,0.0,0.0,0.0,0.0,0.0,0.0,0.0,0.0,0.0,0.0,0.0,0.0,0.0,0.0,0.0,0.0,0.0,0.0,0.0,0.0,0.0,0.0,0.0,0.0,0.0,0.0,0.0,0.0,0.0,0.0,0.0,0.0,0.0,0.0,0.0,0.0,0.0,0.0,0.0,0.0,0.0,0.0,0.0,0.0,0.0,0.0,0.0,0.0,0.0,0.0,0.0,0.0,0.0,0.0,0.0,0.0,0.0,0.0,0.0,0.0,0.0,0.0,0.0,0.0,0.0,0.0,0.0,0.0,0.0,0.0,0.0,0.0,0.0,0.0,0.0,0.0,0.0,0.0,0.0,0.0,0.0,0.0,0.0,0.0,0.0,0.0,0.0,0.0,0.0,0.0,0.0,0.0,0.0,0.0,0.0,0.0,0.0,0.0,0.9157,1.0243,1.0575,1.0731,1.0751,1.0365,0.9958,0.9381,0.0,0.0,0.0,0.0,0.0,0.0,0.0,0.0,0.0,0.0,0.0,0.0,0.0,0.0,0.0,0.0,0.0,0.0,0.0,0.0,0.0,0.0,0.0,0.0,0.0,0.0,0.0,0.0,0.0,0.0,0.0,0.0,0.0,0.0,0.0,0.0,0.0,0.0,0.0,0.0,0.0,0.0,0.0,0.0,0.0,0.0,0.0,0.0,0.0,0.0,0.0,0.0,0.0,0.0,0.0,0.0,0.0,0.0,0.0,0.0,0.0,0.0,0.0,0.0,0.0,0.0,0.0,0.0,0.0,0.0,0.0,0.0,0.0,0.0,0.0,0.0,0.0,0.0,0.0,0.0,0.0,0.0,0.0,0.0,0.0,0.0,0.0,0.0,0.0,0.0,0.0,0.0,0.0,0.0,0.0,0.0,0.0,0.0,0.0,0.0,0.0,0.0,0.0,0.8913,0.9469,1.0507,1.152,1.1762,1.0784,1.1268,1.0981,0.9473,0.8662,0.0,0.0,0.0,0.0,0.0,0.0,0.0,0.0,0.0,0.0,0.0,0.0,0.0,0.0,0.0,0.0,0.0,0.0,0.0,0.0,0.0,0.0,0.0,0.0,0.0,0.0,0.0,0.0,0.0,0.0,0.0,0.0,0.0,0.0,0.0,0.0,0.0,0.0,0.0,0.0,0.0,0.0,0.0,0.0,0.0,0.0,0.0,0.0,0.0,0.0,0.0,0.0,0.0,0.0,0.0,0.0,0.0,0.0,0.0,0.0,0.0,0.0,0.0,0.0,0.0,0.0,0.0,0.0,0.0,0.0,0.0,0.0,0.0,0.0,0.0,0.0,0.0,0.0,0.0,0.0,0.0,0.0,0.0,0.0,0.0,0.0,0.0,0.0,0.0,0.0,0.0,0.0,0.0,0.0,0.0,0.0,0.0,0.0,0.0,0.0,0.0,0.0,0.9469,0.9802,1.0629,1.2281,1.2726,1.1322,1.24,1.2337,1.0391,0.9013,0.0,0.0,0.0,0.0,0.0,0.0,0.0,0.0,0.0,0.0,0.0,0.0,0.0,0.0,0.0,0.0,0.0,0.0,0.0,0.0,0.0,0.0,0.0,0.0,0.0,0.0,0.0,0.0,0.0,0.0,0.0,0.0,0.0,0.0,0.0,0.0,0.0,0.0,0.0,0.0,0.0,0.0,0.0,0.0,0.0,0.0,0.0,0.0,0.0,0.0,0.0,0.0,0.0,0.0,0.0,0.0,0.0,0.0,0.0,0.0,0.0,0.0,0.0,0.0,0.0,0.0,0.0,0.0,0.0,0.0,0.0,0.0,0.0,0.0,0.0,0.0,0.0,0.0,0.0,0.0,0.0,0.0,0.0,0.0,0.0,0.0,0.0,0.0,0.0,0.0,0.0,0.0,0.0,0.0,0.0,0.0,0.0,0.0,0.0,0.0,0.0,0.0,0.9456,1.0032,1.0656,1.2281,1.3126,1.2766,1.3438,1.3528,1.2811,1.0414,0.0,0.0,0.0,0.0,0.0,0.0,0.0,0.0,0.0,0.0,0.0,0.0,0.0,0.0,0.0,0.0,0.0,0.0,0.0,0.0,0.0,0.0,0.0,0.0,0.0,0.0,0.0,0.0,0.0,0.0,0.0,0.0,0.0,0.0,0.0,0.0,0.0,0.0,0.0,0.0,0.0,0.0,0.0,0.0,0.0,0.0,0.0,0.0,0.0,0.0,0.0,0.0,0.0,0.0,0.0,0.0,0.0,0.0,0.0,0.0,0.0,0.0,0.0,0.0,0.0,0.0,0.0,0.0,0.0,0.0,0.0,0.0,0.0,0.0,0.0,0.0,0.0,0.0,0.0,0.0,0.0,0.0,0.0,0.0,0.0,0.0,0.0,0.0,0.0,0.0,0.0,0.0,0.0,0.0,0.0,0.0,0.0,0.0,0.0,0.0,0.0,0.0,0.9239,1.0226,0.0,1.3664,1.4657,1.4518,1.5327,1.492,1.2856,0.0,0.0,0.0,0.0,0.0,0.0,0.0,0.0,0.0,0.0,0.0,0.0,0.0,0.0,0.0,0.0,0.0,0.0,0.0,0.0,0.0,0.0,0.0,0.0,0.0,0.0,0.0,0.0,0.0,0.0,0.0,0.0,0.0,0.0,0.0,0.0,0.0,0.0,0.0,0.0,0.0,0.0,0.0,0.0,0.0,0.0,0.0,0.0,0.0,0.0,0.0,0.0,0.0,0.0,0.0,0.0,0.0,0.0,0.0,0.0,0.0,0.0,0.0,0.0,0.0,0.0,0.0,0.0,0.0,0.0,0.0,0.0,0.0,0.0,0.0,0.0,0.0,0.0,0.0,0.0,0.0,0.0,0.0,0.0,0.0,0.0,0.0,0.0,0.0,0.0,0.0,0.0,0.0,0.0,0.0,0.0,0.0,0.0,0.0,0.0,0.0,0.0,0.9758,1.0499,1.1641,0.0,1.5163,1.6118,1.5908,1.6808,1.6267,1.378,0.0,0.0,0.0,0.0,0.0,0.0,0.0,0.0,0.0,0.0,0.0,0.0,0.0,0.0,0.0,0.0,0.0,0.0,0.0,0.0,0.0,0.0,0.0,0.0,0.0,0.0,0.0,0.0,0.0,0.0,0.0,0.0,0.0,0.0,0.0,0.0,0.0,0.0,0.0,0.0,0.0,0.0,0.0,0.0,0.0,0.0,0.0,0.0,0.0,0.0,0.0,0.0,0.0,0.0,0.0,0.0,0.0,0.0,0.0,0.0,0.0,0.0,0.0,0.0,0.0,0.0,0.0,0.0,0.0,0.0,0.0,0.0,0.0,0.0,0.0,0.0,0.0,0.0,0.0,0.0,0.0,0.0,0.0,0.0,0.0,0.0,0.0,0.0,0.0,0.0,0.0,0.0,0.0,0.0,0.0,0.0,0.0,0.0,0.0,0.0,0.0,0.0,1.2253,1.3457,1.439,1.5,1.6556,1.7404,1.6844,1.7571,1.7395,0.0,0.0,0.0,0.0,0.0,0.0,0.0,0.0,0.0,0.0,0.0,0.0,0.0,0.0,0.0,0.0,0.0,0.0,0.0,0.0,0.0,0.0,0.0,0.0,0.0,0.0,0.0,0.0,0.0,0.0,0.0,0.0,0.0,0.0,0.0,0.0,0.0,0.0,0.0,0.0,0.0,0.0,0.0,0.0,0.0,0.0,0.0,0.0,0.0,0.0,0.0,0.0,0.0,0.0,0.0,0.0,0.0,0.0,0.0,0.0,0.0,0.0,0.0,0.0,0.0,0.0,0.0,0.0,0.0,0.0,0.0,0.0,0.0,0.0,0.0,0.0,0.0,0.0,0.0,0.0,0.0,0.0,0.0,0.0,0.0,0.0,0.0,0.0,0.0,0.0,0.0,0.0,0.0,0.0,0.0,0.0,0.0,0.0,0.0,0.0,0.0,0.0,0.0,1.2164,1.3563,1.5046,1.6502,1.7043,1.7709,1.8557,1.845,1.7448,1.5351,0.0,0.0,0.0,0.0,0.0,0.0,0.0,0.0,0.0,0.0,0.0,0.0,0.0,0.0,0.0,0.0,0.0,0.0,0.0,0.0,0.0,0.0,0.0,0.0,0.0,0.0,0.0,0.0,0.0,0.0,0.0,0.0,0.0,0.0,0.0,0.0,0.0,0.0,0.0,0.0,0.0,0.0,0.0,0.0,0.0,0.0,0.0,0.0,0.0,0.0,0.0,0.0,0.0,0.0,0.0,0.0,0.0,0.0,0.0,0.0,0.0,0.0,0.0,0.0,0.0,0.0,0.0,0.0,0.0,0.0,0.0,0.0,0.0,0.0,0.0,0.0,0.0,0.0,0.0,0.0,0.0,0.0,0.0,0.0,0.0,0.0,0.0,0.0,0.0,0.0,0.0,0.0,0.0,0.0,0.0,0.0,0.0,0.0,0.0,0.0,0.0,0.0,1.338,1.4911,1.6437,1.7695,1.779,1.8038,1.8808,1.8517,1.7408,1.5271,0.0,0.0,0.0,0.0,0.0,0.0,0.0,0.0,0.0,0.0,0.0,0.0,0.0,0.0,0.0,0.0,0.0,0.0,0.0,0.0,0.0,0.0,0.0,0.0,0.0,0.0,0.0,0.0,0.0,0.0,0.0,0.0,0.0,0.0,0.0,0.0,0.0,0.0,0.0,0.0,0.0,0.0,0.0,0.0,0.0,0.0,0.0,0.0,0.0,0.0,0.0,0.0,0.0,0.0,0.0,0.0,0.0,0.0,0.0,0.0,0.0,0.0,0.0,0.0,0.0,0.0,0.0,0.0,0.0,0.0,0.0,0.0,0.0,0.0,0.0,0.0,0.0,0.0,0.0,0.0,0.0,0.0,0.0,0.0,0.0,0.0,0.0,0.0,0.0,0.0,0.0,0.0,0.0,0.0,0.0,0.0,0.0,0.0,0.0,0.0,0.0,0.0,1.5284,1.6967,1.8142,1.8464,1.849,1.837,1.8022,1.7995,1.7236,1.5511,0.0,0.0,0.0,0.0,0.0,0.0,0.0,0.0,0.0,0.0,0.0,0.0,0.0,0.0,0.0,0.0,0.0,0.0,0.0,0.0,0.0,0.0,0.0,0.0,0.0,0.0,0.0,0.0,0.0,0.0,0.0,0.0,0.0,0.0,0.0,0.0,0.0,0.0,0.0,0.0,0.0,0.0,0.0,0.0,0.0,0.0,0.0,0.0,0.0,0.0,0.0,0.0,0.0,0.0,0.0,0.0,0.0,0.0,0.0,0.0,1.8793,0.0,0.0,0.0,0.0,0.0,0.0,0.0,0.0,0.0,0.0,0.0,0.0,0.0,0.0,0.0,0.0,0.0,0.0,0.0,0.0,0.0,0.0,0.0,0.0,0.0,0.0,0.0,0.0,0.0,0.0,0.0,0.0,0.0,0.0,0.0,0.0,0.0,0.0,0.0,0.0,0.0,1.5311,1.7154,1.8424,1.8477,1.849,1.837,1.8022,1.7995,1.7236,1.5511,1.4576,0.0,0.0,0.0,0.0,0.0,0.0,0.0,0.0,0.0,0.0,0.0,0.0,0.0,0.0,0.0,0.0,0.0,0.0,0.0,0.0,0.0,0.0,0.0,0.0,0.0,0.0,0.0,0.0,0.0,0.0,0.0,0.0,0.0,0.0,0.0,0.0,0.0,0.0,0.0,0.0,0.0,0.0,0.0,0.0,0.0,0.0,0.0,0.0,0.0,0.0,0.0,0.0,0.0,0.0,0.0,0.0,0.0,0.0,0.0,0.0,1.9739,0.0,0.0,0.0,0.0,0.0,0.0,0.0,0.0,0.0,0.0,0.0,0.0,0.0,0.0,0.0,0.0,0.0,0.0,0.0,0.0,0.0,0.0,0.0,0.0,0.0,0.0,0.0,0.0,0.0,0.0,0.0,0.0,0.0,0.0,0.0,0.0,0.0,0.0,0.0,0.0,1.511,1.686,1.805,1.805,1.805,1.7996,1.7836,1.7822,1.7248,1.5899,1.499,0.0,0.0,0.0,0.0,0.0,0.0,0.0,0.0,0.0,0.0,0.0,0.0,0.0,0.0,0.0,0.0,0.0,0.0,0.0,0.0,0.0,0.0,0.0,0.0,0.0,0.0,0.0,0.0,0.0,0.0,0.0,0.0,0.0,0.0,0.0,0.0,0.0,0.0,0.0,0.0,0.0,0.0,0.0,0.0,0.0,0.0,0.0,0.0,0.0,0.0,0.0,0.0,0.0,2.3959,2.4563,2.6556,2.6685,2.6615,2.6381,2.5383,2.3787,2.1868,2.0903,0.0,0.0,0.0,0.0,0.0,0.0,0.0,0.0,0.0,0.0,0.0,0.0,0.0,0.0,0.0,0.0,0.0,0.0,0.0,0.0,0.0,0.0,0.0,0.0,1.6366,1.6152,0.0,0.0,0.0,0.0,0.0,0.0,0.0,0.0,0.0,0.0,0.0,0.0,1.5008,1.6526,1.7582,1.7582,1.7582,1.7582,1.7582,1.7582,1.7248,1.6522,1.5651,1.4629,0.0,0.0,0.0,0.0,0.0,0.0,0.0,0.0,0.0,0.0,0.0,0.0,0.0,0.0,0.0,0.0,0.0,0.0,0.0,0.0,0.0,0.0,0.0,0.0,0.0,0.0,0.0,0.0,0.0,0.0,0.0,0.0,2.6074,2.6113,0.0,0.0,0.0,0.0,0.0,0.0,0.0,0.0,0.0,0.0,0.0,0.0,0.0,2.8012,2.5897,2.6346,2.6722,2.6927,2.7539,2.9396,3.2296,3.1988,3.1815,3.1738,3.1279,0.0,2.4033,2.3999,0.0,0.0,0.0,0.0,0.0,0.0,0.0,0.0,0.0,0.0,0.0,0.0,0.0,0.0,0.0,0.0,0.0,0.0,0.0,0.0,0.0,0.0,1.7702,1.7702,1.7582,1.7288,0.0,1.5397,1.4028,1.3703,1.2882,0.0,0.0,0.0,0.0,0.0,0.0,0.0,1.5257,1.666,1.7582,1.7582,1.7582,1.7582,1.7582,1.7582,1.7422,1.7112,1.6206,1.5418,1.4807,1.3387,0.0,0.0,0.0,0.0,0.0,0.0,0.0,0.0,0.0,0.0,0.0,0.0,0.0,0.0,0.0,0.0,0.0,0.0,0.0,0.0,0.0,0.0,0.0,0.0,0.0,0.0,0.0,0.0,0.0,2.6367,2.7363,2.7129,2.7363,2.6973,0.0,0.0,0.0,0.0,0.0,0.0,0.0,0.0,0.0,3.0703,3.0168,2.941,2.8581,2.7356,2.768,2.9513,2.9077,3.0737,3.4141,3.3945,3.373,3.3496,3.332,3.1673,2.8969,2.719,2.4808,2.2301,0.0,0.0,0.0,0.0,1.941,1.9595,1.9913,2.0092,0.0,1.849,0.0,0.0,0.0,0.0,0.0,0.0,0.0,0.0,0.0,0.0,1.7782,1.7782,1.7689,1.7542,1.7474,1.6603,1.5665,0.0,1.4269,1.3534,1.2569,0.0,0.0,0.0,0.0,1.4977,1.5565,1.678,1.7582,1.7582,1.7582,1.7515,1.7407,1.7393,1.7192,1.6737,1.6139,1.5645,1.5217,1.3948,1.2906,0.0,0.0,0.0,0.0,0.0,0.0,0.0,0.0,0.0,0.0,0.0,0.0,0.0,0.0,0.0,0.0,0.0,0.0,0.0,0.0,0.0,0.0,0.0,0.0,0.0,0.0,0.0,0.0,2.7578,2.8672,2.8413,2.8965,2.8711,0.0,0.0,0.0,0.0,0.0,0.0,2.9707,3.0371,3.1367,3.2773,3.1922,3.1135,3.0509,2.8413,2.8611,3.0965,2.9934,3.1436,3.5039,3.4805,3.4531,3.4219,3.4004,3.3555,3.275,3.0016,2.7495,2.5245,2.427,2.3423,2.2718,2.2201,2.2078,2.2103,2.2021,2.2064,2.1822,1.9993,0.0,1.8563,1.6565,0.0,0.0,0.0,0.0,1.6286,1.6794,1.7248,1.7609,1.7689,1.7635,1.7582,1.7582,1.7407,1.6938,0.0,1.5551,1.4941,1.3682,0.0,0.0,0.0,0.0,1.5391,1.5979,1.6941,1.7555,1.7475,1.7527,1.7407,1.7112,1.7085,1.6898,1.6406,1.6099,1.5987,1.6085,1.4984,1.4253,1.4016,0.0,0.0,0.0,0.0,0.0,0.0,0.0,0.0,0.0,0.0,0.0,0.0,0.0,0.0,0.0,0.0,0.0,0.0,0.0,0.0,0.0,0.0,0.0,0.0,0.0,0.0,0.0,0.0,0.0,3.0078,3.0488,0.0,0.0,0.0,0.0,2.9277,3.0215,3.1094,3.1953,3.3184,3.4062,3.4551,3.4953,3.357,3.0335,3.0156,3.0173,3.0368,3.0244,3.2245,3.5918,3.5078,3.4687,3.4629,3.3809,3.3437,3.332,3.2341,3.0588,2.8269,2.7531,2.6162,2.4355,2.2492,2.196,2.1957,2.0197,1.9726,1.9902,1.9533,1.8588,1.78,1.8329,1.742,0.0,0.0,1.7647,1.7206,1.7462,1.7555,1.7662,1.7902,1.7796,1.7582,1.7582,1.7407,1.7179,0.0,1.6643,1.6005,1.5378,0.0,1.4901,1.4901,1.5391,1.5992,1.658,1.7194,1.7475,1.7246,1.7219,1.7099,1.6754,1.6727,1.6714,1.6687,1.6406,1.6767,1.7927,1.701,1.6722,1.7268,1.5449,0.0,0.0,0.0,0.0,0.0,0.0,0.0,0.0,0.0,0.0,0.0,0.0,0.0,0.0,0.0,0.0,0.0,0.0,0.0,0.0,0.0,0.0,0.0,0.0,0.0,0.0,0.0,0.0,3.1426,3.2344,0.0,3.1348,3.1074,3.1035,3.1289,3.2285,3.3184,3.3769,3.4512,3.5117,3.5527,3.4512,3.339,3.2158,3.0946,3.0946,3.2158,3.2158,3.339,3.5605,3.5293,3.4824,3.4277,3.3984,3.3691,3.3398,3.3105,3.198,3.0422,2.9928,2.8917,2.764,2.5896,2.5286,2.5067,2.3231,2.2625,2.2452,2.0956,1.9278,1.7849,1.7953,1.7469,1.6985,1.7474,1.7524,1.7501,1.7555,1.7729,1.7862,1.7769,1.7662,1.7582,1.7582,1.7502,1.7474,1.7474,1.6954,1.6433,1.6032,1.5919,1.6068,1.6774,1.658,1.6823,1.8125,1.7719,1.7313,1.7206,1.7032,1.674,1.646,1.6246,1.6334,1.6871,1.6664,1.6994,1.8108,1.7672,1.7273,1.6987,1.5955,1.4849,0.0,0.0,0.0,0.0,0.0,0.0,0.0,0.0,0.0,0.0,0.0,0.0,0.0,0.0,0.0,0.0,0.0,0.0,0.0,0.0,0.0,0.0,0.0,0.0,0.0,0.0,3.2168,3.2754,3.3828,3.4121,3.3125,3.3281,3.3379,3.3262,3.4043,3.4707,3.5117,3.543,3.5742,3.6016,3.4796,3.3812,3.324,3.1948,3.1948,3.317,3.3026,3.3824,3.5391,3.5078,3.4629,3.4062,3.3926,3.3691,3.3418,3.3262,3.2637,3.1699,3.1426,3.0781,2.9773,2.7575,2.6743,2.6382,2.38,2.279,2.2398,2.0837,1.9651,1.882,1.8501,1.8248,1.7997,1.7997,1.7787,1.7582,1.7582,1.7729,1.7836,1.7635,1.7582,1.7582,1.7582,1.7582,1.7582,1.7582,1.7275,1.6914,1.667,1.6949,1.7477,1.801,1.8033,1.8385,1.9487,1.8433,1.7613,1.7502,1.6923,1.6446,1.6152,1.6163,1.6447,1.6949,1.6978,1.7454,1.8583,1.8153,1.7848,1.7765,1.6825,1.578,1.4713,0.0,0.0,0.0,0.0,0.0,0.0,0.0,0.0,0.0,0.0,0.0,0.0,0.0,0.0,0.0,0.0,0.0,0.0,0.0,0.0,0.0,0.0,0.0,2.957,3.1484,3.3164,3.4023,3.4902,3.5273,3.4844,3.4766,3.4941,3.541,3.543,3.5586,3.5996,3.6016,3.6016,3.6016,3.6016,3.5089,3.3309,3.3309,3.3309,3.3309,3.2824,3.3545,3.5351,3.4473,3.4062,3.4023,3.3613,3.3418,3.3379,3.2969,3.2539,3.2148,3.2148,3.1641,3.0528,2.7271,2.6029,2.5351,2.1544,1.984,1.9377,1.9082,1.964,2.0446,2.024,1.9897,1.9576,1.9576,1.8603,1.7582,1.7582,1.7582,1.7582,1.7582,1.7582,1.7582,1.7582,1.7582,1.7582,1.7582,1.7582,1.7541,1.7311,1.8368,1.9095,1.8716,1.978,0.0,2.0473,1.931,1.8424,1.8159,1.7119,1.6284,1.594,1.6621,1.7056,1.7086,1.7427,1.8137,1.9375,1.8601,1.8707,1.9865,1.8223,1.6966,1.6124,0.0,0.0,0.0,0.0,0.0,0.0,0.0,0.0,0.0,0.0,0.0,0.0,0.0,0.0,0.0,0.0,0.0,0.0,0.0,0.0,0.0,2.9219,3.0488,3.0918,3.2559,3.416,3.5351,3.5976,3.6504,3.6992,3.6484,3.6191,3.6309,3.6035,3.5898,3.6016,3.6016,3.6016,3.6016,3.6016,3.5743,3.5245,3.5226,3.5226,3.5226,3.4805,3.4729,3.4863,3.4316,3.3906,3.3594,3.3476,3.3242,3.2969,3.2851,3.2363,3.1699,3.1699,3.1367,3.0645,2.8545,2.6014,2.3261,2.0745,1.9679,1.9577,2.0544,2.0688,2.0693,2.1676,2.0866,1.9576,1.9576,1.8603,1.7582,1.7582,1.7582,1.7582,1.7582,1.7582,1.7582,1.7582,1.7582,1.7582,1.7582,1.7582,1.7871,1.8801,1.9236,1.9984,2.1506,2.126,0.0,2.177,2.0481,1.9478,1.943,1.891,1.8597,1.8503,1.8208,1.8224,1.8727,1.8337,1.8608,1.9716,1.9526,1.9429,1.9473,1.7793,1.6765,0.0,0.0,0.0,0.0,0.0,0.0,0.0,0.0,0.0,0.0,0.0,0.0,0.0,0.0,0.0,0.0,0.0,0.0,0.0,0.0,0.0,0.0,3.0937,3.2226,3.3027,3.4004,3.5039,3.6152,3.6523,3.6855,3.7344,3.6953,3.6601,3.6406,3.6152,3.6016,3.6016,3.6016,3.6016,3.6016,3.6016,3.6016,3.6016,3.6016,3.5937,3.5742,3.5312,3.4863,3.4414,3.4004,3.3672,0.0,3.3242,3.3027,3.2773,3.2402,3.1973,0.0,0.0,0.0,0.0,0.0,2.5288,2.2424,2.0474,2.001,2.0486,2.1301,2.1914,2.2359,2.2642,2.2029,2.11,1.9937,1.902,1.8304,1.774,1.7582,1.7582,1.7582,1.7582,1.7582,1.7582,1.7582,1.7582,1.7582,1.7582,0.0,2.0128,2.0311,2.0746,2.2474,2.2405,2.2297,2.2631,2.1423,2.0486,2.0486,1.9887,1.9497,1.9497,1.9215,0.0,0.0,0.0,1.9108,1.9358,1.9338,0.0,0.0,0.0,0.0,0.0,0.0,0.0,0.0,1.6548,1.592,0.0,0.0,0.0,0.0,0.0,0.0,0.0,0.0,0.0,0.0,0.0,0.0,0.0,0.0,0.0,0.0,3.2734,3.4004,3.5293,3.5469,3.5762,3.6582,3.668,3.668,3.6738,3.6699,3.6504,3.6113,3.6055,3.6016,3.6016,0.0,0.0,0.0,0.0,3.6016,3.6016,3.5976,3.5762,3.5391,3.4883,3.4434,3.4062,3.3613,3.3398,3.332,3.2949,3.2734,3.2598,3.1836,3.1484,3.1445,3.1445,3.1191,3.0393,2.6845,2.451,2.2837,2.0715,0.0,0.0,2.2024,2.3326,2.4612,2.3491,2.3426,2.3185,2.059,1.9731,1.9265,1.7937,1.7582,1.7582,1.7582,1.7582,1.7582,1.7582,1.7582,1.7582,1.7582,1.774,1.8641,2.1188,2.1296,2.1425,2.247,2.335,2.3691,2.3159,2.2164,2.1525,2.1525,0.0,0.0,1.9906,2.0104,2.0177,2.0141,2.0,1.9533,1.8773,1.8754,1.8754,1.8754,1.8695,1.887,1.9297,1.9297,1.9316,1.9316,1.7376,1.6625,0.0,0.0,0.0,0.0,0.0,0.0,0.0,0.0,0.0,0.0,0.0,0.0,0.0,0.0,0.0,3.2246,3.3613,3.4785,3.5762,3.5898,3.6094,3.6601,3.668,3.6797,3.7148,3.6875,3.6641,3.6543,3.6211,3.6016,3.6016,3.6016,3.6016,3.6016,3.6016,3.6016,3.6016,3.5684,3.5469,3.5391,0.0,0.0,3.4062,3.3613,3.3242,3.291,3.2832,3.2402,3.1758,3.1582,3.1328,3.1016,3.1016,3.0742,2.991,2.6487,2.553,2.5457,2.2368,2.2199,2.3599,2.482,2.5022,2.4977,2.5895,2.4992,0.0,2.176,2.0487,1.9265,1.7937,1.7582,1.7582,1.7582,1.7582,1.7582,1.7582,1.7582,1.7582,1.7582,1.8447,1.9641,2.0914,2.1395,2.2124,2.3767,2.4152,2.4023,2.3198,2.2906,2.2775,2.2775,2.2536,2.2403,2.2403,2.1878,2.139,2.1003,2.0294,1.9844,1.9668,1.9668,1.9668,1.9668,1.9336,1.9199,1.9297,1.9297,1.9473,1.9785,1.9023,1.8718,0.0,0.0,0.0,0.0,0.0,0.0,0.0,0.0,0.0,0.0,0.0,2.8437,2.9961,0.0,3.207,3.3809,3.4629,3.5273,3.5937,3.6016,3.6094,3.6328,3.6348,3.6426,3.6641,3.6465,3.6348,3.6348,3.6152,3.6016,3.6016,3.6016,3.6016,3.6016,3.582,3.5703,3.5703,3.5273,3.4941,3.4726,3.4277,3.3965,3.373,3.3301,3.2988,3.2773,3.2344,3.1914,3.1504,3.1289,3.0937,3.0547,3.0547,3.041,2.9832,2.6975,2.6257,2.6325,2.3617,2.371,2.5006,2.5594,2.5837,2.6012,2.6555,2.5783,2.4295,2.2265,2.1186,2.0179,1.8146,1.7582,1.7582,1.7582,1.7582,1.7582,1.7582,1.7582,1.7793,1.8447,1.9124,2.0123,2.1707,2.2203,2.2766,2.3898,2.3926,2.3569,2.314,2.3101,2.3101,2.3101,2.3101,2.3101,2.3101,2.2363,2.1602,2.0937,2.0488,2.0137,1.9922,1.9922,1.9922,1.9922,1.9707,1.9707,1.9959,1.9959,2.0039,2.0234,2.0254,2.0254,0.0,0.0,0.0,0.0,0.0,0.0,0.0,0.0,2.793,2.8965,2.9707,3.0684,3.2307,3.2871,3.3652,3.5156,3.5469,3.5625,3.5976,3.5957,3.5898,3.5898,3.5976,3.6016,3.6016,3.6016,3.6016,3.6016,3.6016,3.6016,3.6016,3.6016,3.5976,3.5898,3.5566,3.5351,3.5254,3.4805,3.4414,3.4082,3.3984,3.3711,3.3281,3.2949,3.2695,3.25,3.1719,3.1406,3.1367,3.1035,3.0432,2.9776,2.9699,2.9602,2.9278,2.7417,2.666,2.6385,2.4774,2.5261,2.6426,2.6023,2.6371,2.6934,2.6523,2.6074,2.5118,2.2466,2.1693,2.1151,1.8655,1.7793,1.7687,1.7937,1.7793,1.7687,1.7937,1.7989,1.8394,1.9731,2.0231,2.0921,2.2615,2.3123,2.3409,2.3771,2.3496,2.3198,2.3101,2.3101,2.3101,2.3101,2.3101,2.3023,2.2867,2.2266,2.1544,2.0664,2.0605,2.0449,2.0059,2.0039,2.0039,2.0039,2.0039,2.0215,2.0605,2.0605,2.0644,2.0703,2.1074,2.119,1.782,1.8532,2.0281,2.4084,2.4972,2.6,0.0,0.0,3.0312,3.1953,3.2363,3.2734,3.3691,3.4199,3.4687,3.5293,3.5703,3.5976,3.6016,3.5703,3.5469,3.5469,3.5801,3.6016,3.6016,3.6016,3.6016,3.6016,3.6016,3.6016,3.6016,3.6016,3.5859,3.5469,3.541,3.5195,3.4785,3.4355,3.4121,3.4062,3.3691,3.3281,3.2871,3.2812,3.2383,3.1641,3.1172,3.0957,3.0957,3.0918,2.9832,2.822,2.7797,2.7393,2.7065,2.6807,2.648,2.6154,2.5899,2.6825,2.799,2.7583,2.726,2.6934,2.6523,2.6074,2.5118,2.2466,2.1693,2.1338,1.9782,1.8499,1.7884,1.9072,1.8447,1.7937,1.9124,1.9369,1.9782,2.1186,2.2416,2.3103,2.2566,2.343,2.4132,2.3848,2.375,2.3574,2.314,2.3101,2.3101,2.3101,2.3101,2.2789,2.209,2.1934,2.1544,2.0664,2.0605,2.0586,2.0527,2.0527,2.0527,2.0527,2.0527,2.0566,2.0605,2.0605,2.0762,2.1112,2.1171,2.119,1.8597,1.9693,2.1517,2.4416,2.6028,2.7708,3.0798,3.1426,3.1621,3.2598,3.3184,3.3652,3.4004,3.4648,3.5176,0.0,3.5742,3.5937,3.5684,3.5508,3.5195,3.4687,3.5,3.5351,3.5625,3.5664,3.5762,3.5996,3.6016,3.6016,3.6016,3.5781,3.5566,3.541,3.4902,3.4531,3.4336,3.3906,3.3691,3.3691,3.3262,3.2969,3.2773,3.2285,3.1719,3.1133,3.0957,3.0333,2.9453,2.9268,2.8024,2.6278,2.6772,2.6155,2.5117,2.6022,2.681,2.7384,2.7384,2.778,2.8184,2.75,2.7168,2.6894,2.6211,2.5879,2.5118,2.2466,2.2265,2.2366,2.0179,1.9782,2.0128,2.0692,2.0385,2.0128,2.0692,2.0845,2.1253,2.2617,2.309,2.3353,2.3514,2.3832,2.3906,2.3477,2.3418,2.3296,2.312,2.3101,2.3101,2.3101,2.2886,2.2539,2.1934,2.166,2.123,2.0644,2.0605,2.0605,2.0605,2.0605,2.0605,2.0605,2.0605,2.0742,2.0957,2.0957,2.1191,2.1621,2.1855,2.1973,1.9052,2.0256,2.1873,2.4018,2.6346,2.8617,3.0694,3.1883,3.2637,3.3066,3.3535,3.3965,3.4199,3.4668,3.5098,3.5351,3.5644,3.5742,3.543,3.5176,3.4615,3.3386,3.3688,3.4089,3.4192,3.4793,3.5332,3.5644,3.5664,3.5664,3.5664,3.5371,3.5156,3.5039,3.4414,3.4023,3.3887,3.3574,3.3359,3.3242,3.2949,3.2676,3.2422,3.168,3.1191,3.0879,3.0392,2.971,2.8836,2.7764,2.6598,2.5422,2.5905,2.5388,2.4544,2.5717,2.6771,2.7726,2.8174,2.8223,2.8008,2.7246,2.6934,2.6699,2.5908,2.5693,2.5235,2.2918,2.2968,2.3235,2.1253,2.1202,2.1794,2.2165,2.1946,2.1794,2.2165,2.2265,2.2667,2.3998,2.3864,2.3746,2.4307,2.4062,2.3633,2.3159,2.3101,2.3101,2.3101,2.3101,2.3042,2.2945,2.2652,2.2285,2.1758,2.1426,2.1055,2.0625,2.0605,2.0605,2.0605,2.0605,2.0605,2.0605,2.0605,2.0781,2.119,2.119,2.1523,2.207,2.2363,2.2578,1.8664,1.9345,2.0752,2.2673,2.5278,2.7853,2.9815,3.1835,3.3516,3.3945,3.3711,3.3691,3.4531,3.4375,3.4394,3.5254,3.541,3.541,3.5391,3.4648,3.3347,3.1331,3.1783,3.2003,0.0,3.3291,3.4726,3.4746,3.4746,3.4746,3.4746,3.4726,3.4531,3.4121,3.4082,3.3867,3.3437,3.3437,3.3223,3.2812,3.2793,3.2363,3.1543,3.1113,3.0898,3.082,2.9157,2.9093,2.991,2.6935,2.6093,2.6509,2.5122,2.5164,2.6045,2.61,2.6155,2.6372,2.778,2.8027,2.7669,2.7168,2.6738,2.6328,2.583,2.5693,2.543,2.4048,2.3683,2.3683,2.3583,2.2617,2.2047,2.3335,2.2667,2.2064,2.3384,2.3633,2.4048,2.5382,2.5323,2.4875,2.4492,2.4062,2.3633,2.3159,2.3101,2.3101,2.3101,2.3101,2.2945,2.2578,2.2519,2.2168,2.1288,2.121,2.1055,2.0625,2.0605,2.0605,2.0605,2.0605,2.0605,2.0605,2.0605,2.0781,2.119,2.119,2.1619,2.25,2.25,2.2734,1.9492,2.0214,2.136,2.3539,2.497,2.6696,2.9906,3.0929,3.1671,3.2995,3.2656,3.2246,3.2539,3.2715,3.2988,3.3574,3.4375,3.4824,3.4551,3.4766,3.375,3.051,3.1056,0.0,0.0,0.0,0.0,3.4668,3.4707,3.4707,3.4707,3.4434,3.3681,3.2339,3.3194,3.2963,3.1689,3.2829,3.3203,3.2793,3.2226,3.1641,3.1094,3.0957,3.0898,3.082,2.8938,2.8308,2.8318,2.4795,2.4062,2.5031,2.4328,2.4885,2.6209,2.7222,2.7393,2.7199,2.7713,2.7793,2.7611,2.6836,2.6504,2.6309,2.581,2.5693,2.543,2.4097,2.4344,2.4824,2.3949,2.4048,2.4461,2.4922,2.4658,2.4461,2.4922,2.502,2.5167,2.5577,2.5137,2.459,2.4434,2.3828,2.3257,2.312,2.3101,2.3101,2.3101,2.2847,2.2676,2.2519,2.1951,2.1502,2.121,2.0957,2.0723,2.0625,2.0605,2.0605,2.0605,2.0605,2.0605,2.0605,2.0605,2.0781,2.119,2.1523,2.1953,2.2519,2.275,2.2964,2.0281,2.0975,2.1808,2.3562,2.4591,2.5881,2.8259,2.9077,2.9535,3.0475,3.04,3.0192,3.0251,3.0663,3.1348,3.2402,3.3379,3.4082,3.4277,3.4648,3.3731,3.0528,3.1038,3.122,0.0,0.0,0.0,3.418,3.4238,3.4238,3.4238,3.3984,3.3039,3.1233,3.2049,3.1643,2.9865,3.1431,3.2248,3.2324,3.1621,3.1152,3.0898,3.0898,3.0801,3.0567,2.8735,2.8034,2.7895,2.3799,2.3543,2.5628,2.4312,2.5041,2.6987,2.796,2.8027,2.7728,2.7728,2.7513,2.7129,2.6562,2.6289,2.6094,2.5771,2.5693,2.5528,2.4658,2.502,2.5479,2.4658,2.5069,2.5693,2.5693,2.5693,2.5693,2.5693,2.5693,2.5693,2.5693,2.5019,2.4414,2.4414,2.3666,2.3101,2.3101,2.3101,2.3101,2.3101,2.273,2.2461,2.2305,2.1619,2.1132,2.1016,2.0742,2.0605,2.0605,2.0605,2.0605,2.0605,2.0605,2.0605,2.0605,2.0605,2.0859,2.1465,2.1758,2.2168,2.2734,2.2964,2.3101,2.0989,2.159,2.2164,2.2794,2.4114,2.5264,2.515,2.6338,2.7338,2.686,2.7252,2.7705,0.0,0.0,2.9551,3.1739,3.2441,3.3203,3.4453,3.4336,3.3328,0.0,0.0,0.0,0.0,0.0,0.0,3.3398,0.0,3.3418,3.3418,3.3292,3.2492,3.0707,3.0642,2.9847,2.8081,2.9445,3.0587,3.1504,3.1094,3.0898,3.0898,3.0859,3.0605,3.0138,2.8452,2.8162,2.8578,2.3975,2.4513,2.8014,2.5058,2.5717,2.8301,2.8262,2.7988,2.7689,2.7669,2.707,2.6387,2.6367,2.6074,2.5693,2.5693,2.5693,2.5693,2.5693,2.5693,2.5693,2.5693,2.5693,2.5693,2.5693,2.5693,2.5693,2.5693,2.5693,2.5693,2.5693,2.5019,2.4414,2.4355,2.3627,2.3101,2.3101,2.3101,2.3101,2.3101,2.2711,2.2324,2.1934,2.1465,2.1035,2.0644,2.0605,2.0605,2.0605,2.0605,2.0605,2.0605,2.0605,2.0625,2.0644,2.0644,2.1055,2.1894,2.1914,2.2324,2.3062,2.3081,2.3101,2.155,2.2191,2.2672,2.2887,2.3025,2.3437,2.4479,2.4659,2.4859,2.5532,2.5844,2.5973,0.0,0.0,0.0,3.0037,3.1406,0.0,3.3613,3.4199,0.0,3.0847,0.0,3.1267,3.0501,3.0974,0.0,0.0,3.3418,3.3418,3.3418,3.2155,3.0642,2.8952,2.8886,2.79,2.5885,2.8197,3.0092,3.1504,3.1094,3.0898,3.0879,3.0527,3.0312,3.0099,2.7918,2.7698,2.8613,2.4855,2.5293,2.8121,2.6209,2.6662,2.8262,2.793,2.7559,2.7129,2.6816,2.6562,2.6328,2.6016,2.5771,2.5693,2.5693,2.5693,2.5693,2.5693,2.5693,2.5693,2.5693,2.5693,2.5693,2.5693,2.5693,2.5693,2.5693,2.5693,2.5693,2.5693,2.5019,2.4219,2.353,2.3237,2.3101,2.3101,2.3101,2.3101,2.3101,2.25,2.2012,2.1894,2.1191,2.0723,2.0625,2.0605,2.0605,2.0605,2.0605,2.0605,2.0605,2.0605,2.0723,2.1055,2.1055,2.1328,2.1894,2.2207,2.2461,2.2676,2.2945,2.3101,2.2004,2.2512,2.2928,2.2928,2.2539,2.2335,2.278,2.242,2.1944,2.209,2.2499,0.0,2.2299,2.4296,0.0,0.0,0.0,0.0,3.3242,3.4004,3.3818,0.0,3.215,0.0,3.1727,3.1832,3.2365,0.0,3.3418,3.3082,3.2301,3.1304,2.9652,2.7105,2.6896,2.6448,2.5671,2.7865,2.9735,3.123,3.0996,3.0898,3.0879,3.041,3.0098,2.9826,0.0,2.8024,2.8451,2.5861,2.6173,2.8121,2.6662,2.6987,2.8242,2.7865,2.7383,2.6953,2.6543,2.6269,2.6055,2.5771,2.5693,2.5693,2.5693,2.5693,2.5693,2.5693,2.5693,2.5693,2.5693,2.5693,2.5693,2.5693,2.5693,2.5693,2.5693,2.5693,2.5577,2.5187,2.4699,2.4095,2.3237,2.3101,2.3101,2.3101,2.3101,2.3101,2.3101,2.2559,2.209,2.1894,2.1269,2.0781,2.0625,2.0605,2.0605,2.0605,2.0605,2.0605,2.0605,2.0605,2.0781,2.119,2.119,2.1543,2.2168,2.2402,2.2617,2.275,2.2984,2.3101,2.2405,2.2699,2.2899,2.2819,2.2365,2.1683,2.0775,2.008,1.9292,1.8062,0.0,1.9194,1.8675,2.1277,2.3953,2.5429,0.0,3.0715,3.244,3.3187,3.365,3.3643,3.3525,3.3418,3.3418,3.3418,3.3418,3.3418,3.3418,3.2619,3.09,3.0578,2.8787,2.5189,2.5062,2.5492,2.6389,2.8018,2.9508,3.0898,3.0898,3.0859,3.0781,3.0332,2.9883,2.9453,2.9023,0.0,2.8174,2.6933,2.7168,2.8174,2.6879,2.7168,2.8242,2.7754,2.7344,2.6953,2.6465,2.6055,2.5693,2.5693,2.5693,2.5693,2.5693,2.5693,2.5693,2.5693,2.5693,2.5693,2.5693,2.5693,2.5693,2.5693,2.5693,2.5693,2.5693,2.5635,2.5362,2.457,2.4375,2.4082,2.3237,2.3101,2.3101,2.3101,2.3101,2.3101,2.3101,2.273,2.2363,2.2012,2.1582,2.1152,2.0801,2.0723,2.0703,2.0703,2.0644,2.0625,2.0683,2.0703,2.0898,2.1346,2.1366,2.1756,2.2598,2.2598,2.2773,2.3101,2.3101,2.3101,2.2766,2.3006,2.3126,2.2619,2.2058,2.14,2.0214,1.9319,0.0,0.0,1.752,1.7998,1.7878,1.9765,2.1909,2.355,2.5093,2.6721,2.843,3.0038,3.1111,0.0,0.0,0.0,0.0,0.0,0.0,0.0,0.0,3.2619,3.09,2.9409,2.6912,2.3091,2.3963,2.5132,2.6389,2.7817,2.929,3.0898,3.0898,3.0684,3.0293,2.9863,2.9434,2.9004,2.8574,0.0,2.8301,2.8014,2.8067,2.8281,2.8014,2.8067,2.8203,2.7422,2.709,2.6914,2.6133,2.5752,2.5693,2.5693,2.5693,2.5693,2.5693,2.5693,2.5693,2.5693,2.5693,2.5693,2.5693,2.5693,2.5693,2.5693,2.5693,2.5693,2.5693,2.5449,2.5039,2.4512,2.4141,2.373,2.3179,2.3101,2.3101,2.3101,2.3101,2.3101,2.3101,2.273,2.248,2.2402,2.2031,2.1738,2.166,2.1328,2.1113,2.1113,2.0762,2.0742,2.1054,2.1113,2.1484,2.2266,2.2285,2.2496,2.2984,2.2984,2.3023,2.3101,2.3101,2.3101,2.2928,2.3086,2.318,2.2565,2.1871,2.0975,1.9653,0.0,0.0,0.0,1.6187,1.6239,1.6069,1.7994,0.0,2.0806,2.2778,2.4748,2.6211,2.8333,0.0,0.0,0.0,0.0,0.0,0.0,0.0,0.0,0.0,3.2619,3.09,2.8895,2.648,2.3553,2.5595,2.6985,2.747,2.8952,3.0079,3.0898,3.0898,3.0644,3.0176,2.9766,2.9336,2.8906,2.8476,0.0,2.8301,2.8301,2.8301,2.8301,2.8301,2.8164,2.7891,2.7246,2.6875,2.6602,2.5908,2.5693,2.5693,2.5693,2.5693,2.5693,2.5693,2.5693,2.5693,2.5693,2.5693,2.5693,2.5693,2.5693,2.5693,2.5693,2.5693,2.5693,2.5693,2.5566,2.5293,2.4844,2.4414,2.3984,2.3555,2.3237,2.3101,2.3101,2.3101,2.3101,2.3101,2.2925,2.2711,2.2539,2.2324,2.2129,2.1894,2.1699,2.1562,2.1562,2.1367,2.1348,2.1562,2.1562,2.1875,2.25,2.2519,2.2715,2.3101,2.3101,2.3101,2.3101,2.3101,2.3101,2.2928,2.3086,2.3166,2.2485,2.171,2.0708,1.9185,1.7903,0.0,1.5551,1.5017,1.4723,1.4549,1.627,1.7844,0.0,2.0483,2.2646,2.4043,2.6651,0.0,0.0,0.0,0.0,0.0,0.0,0.0,0.0,0.0,0.0,3.09,2.8725,2.6745,2.5062,2.7537,2.8763,2.8426,3.0079,3.0898,3.0898,3.0898,3.0605,3.0059,2.9726,2.9277,2.8769,2.8437,0.0,0.0,2.8301,2.8301,2.8301,2.8301,2.8027,2.7669,2.7168,2.6758,2.6328,2.5849,2.5693,2.5693,2.5693,2.5693,2.5693,2.5693,2.5693,2.5693,2.5693,2.5693,2.5693,2.5693,2.5693,2.5693,2.5693,2.5693,2.5693,2.5693,2.5538,2.5352,2.5,2.4512,2.4043,2.3711,2.3315,2.3101,2.3101,2.3101,2.3101,2.3101,2.3101,2.2964,2.2633,2.2656,2.2519,2.2187,2.207,2.2031,2.2031,2.1934,2.1934,2.2012,2.2031,2.2227,2.2637,2.2656,2.2769,2.3101,2.3101,2.3101,2.3101,2.3101,2.3101,2.2928,2.3086,2.3113,2.2245,2.1563,2.0655,1.8918,0.0,1.642,1.529,1.4606,1.4242,1.4482,1.4963,1.5648,1.6733,0.0,1.8741,2.0452,0.0,0.0,0.0,0.0,0.0,0.0,0.0,0.0,0.0,0.0,0.0,3.09,2.8725,2.7277,2.6853,2.8174,2.8763,2.8426,3.0079,3.0898,3.0898,3.0898,3.0449,2.9629,2.9646,2.9121,2.834,2.832,0.0,0.0,2.8301,2.8301,2.8301,2.8301,2.8027,2.7669,2.7168,2.6758,2.6328,2.5849,2.5693,2.5693,2.5693,2.5693,2.5693,2.5693,2.5693,2.5693,2.5693,2.5693,2.5693,2.5693,2.5693,2.5693,2.5693,2.5693,2.5693,2.5693,2.505,2.4531,2.4492,2.3764,2.3198,2.3159,2.312,2.3101,2.3101,2.3101,2.3101,2.3101,2.3101,2.3081,2.3042,2.3042,2.3023,2.2984,2.2676,2.2461,2.2461,2.209,2.2051,2.2441,2.2461,2.2613,2.3023,2.3042,2.3062,2.3101,2.3101,2.3101,2.3101,2.3101,2.3101,2.2498,2.2953,2.3113,2.2205,2.155,2.0655,1.8891,0.0,1.638,1.5249,1.4539,1.4122,1.4242,1.4496,1.491,1.5551,1.5992,1.6767,1.8183,0.0,0.0,0.0,0.0,0.0,0.0,0.0,0.0,0.0,0.0,0.0,3.1707,3.0835,2.9671,2.8209,2.9439,3.0073,2.9903,3.0587,3.0898,3.0879,3.0605,3.0156,2.9607,2.9297,2.8848,2.8301,2.8301,0.0,0.0,2.8301,2.8301,2.8262,2.8008,2.7656,2.7226,2.6797,2.6367,2.5977,2.5752,2.5693,2.5693,2.5693,2.5693,2.5693,2.5693,2.5693,2.5693,2.5693,2.5693,2.5693,2.5693,2.5693,2.5693,2.5693,2.5693,2.5693,2.5693,2.5254,2.4805,2.4805,2.4121,2.3535,2.3535,2.332,2.3101,2.3101,2.3101,2.3101,2.3101,2.3101,2.3101,2.3101,2.3101,2.3101,2.3101,2.2945,2.2847,2.2847,2.2691,2.2672,2.2847,2.2847,2.2925,2.3081,2.3101,2.3101,2.3101,2.3101,2.3101,2.3101,2.3418,2.3535,2.1977,2.2539,2.2739,2.1924,2.1216,2.0307,0.0,1.7368,1.6166,1.5223,1.4539,1.4082,1.4082,1.4255,1.4522,1.4941,1.5204,1.5832,1.7152,2.0415,0.0,0.0,0.0,0.0,0.0,0.0,0.0,0.0,0.0,0.0,3.2012,3.1973,3.1274,2.9707,3.0485,3.0898,3.0898,3.0898,3.0898,3.0879,3.041,2.998,2.9551,2.9121,2.8691,2.8301,0.0,0.0,0.0,2.8301,2.8301,2.8262,2.7885,2.7402,2.6973,2.6543,2.6113,2.5693,2.5693,2.5693,2.5693,2.5693,2.5693,2.5693,2.5693,2.5693,2.5654,2.5586,2.5401,2.5304,2.5304,2.5304,2.5323,2.5508,2.5547,2.5547,2.5547,2.5195,2.4844,2.4754,2.4102,2.3594,2.3594,2.334,2.3101,2.3101,2.3101,2.3101,2.3101,2.3101,2.3101,2.3101,2.3101,2.3101,2.3101,2.3101,2.3101,2.3101,2.3101,2.3101,2.3101,2.3101,2.3101,2.3101,2.3101,2.3101,2.3101,2.3218,2.3296,2.334,2.3769,2.4043,2.1323,2.1842,2.1857,2.1269,2.0468,1.9492,1.829,1.6887,1.5671,1.5129,1.4539,1.4082,1.4082,1.4095,1.4282,1.4914,1.5204,1.5912,1.7368,1.9609,0.0,0.0,0.0,0.0,0.0,0.0,0.0,0.0,0.0,0.0,3.1562,3.1523,3.1523,3.1464,3.1113,3.0898,3.0898,3.0898,3.0898,3.0879,3.041,2.998,2.9551,2.9121,2.8691,0.0,0.0,0.0,0.0,2.8301,2.8301,2.8262,2.7885,2.7402,2.6973,2.6543,2.6113,2.5693,2.5693,2.5693,2.5693,2.5693,2.5693,2.5693,2.5693,2.5693,2.5644,2.5195,2.4766,2.4434,2.4434,2.4434,2.4531,2.5028,2.5125,2.5125,2.5125,2.4727,2.4297,2.3887,2.3437,2.3101,2.3101,2.3101,2.3101,2.3101,2.3101,2.3101,2.3101,2.3101,2.3101,2.3101,2.3101,2.3101,2.3101,2.3101,2.3101,2.3101,2.3101,2.3101,2.3101,2.3101,2.3101,2.3101,2.3101,2.3101,2.3101,2.3574,2.3789,2.3789,2.4219,2.4648,1.9377,2.012,2.0347,1.976,1.9252,1.8651,1.7702,1.6593,1.5658,1.5129,1.4539,1.4082,1.4082,1.4082,1.4349,1.5137,1.5337,0.0,0.0,0.0,0.0,0.0,0.0,0.0,0.0,0.0,0.0,0.0,0.0,0.0,3.1113,3.1094,3.1094,3.1094,3.0957,3.0898,3.0898,3.0898,3.0723,3.041,2.998,2.9551,2.9101,2.8691,0.0,0.0,0.0,0.0,0.0,2.8301,2.8301,2.8223,2.75,2.7129,2.6934,2.6211,2.581,2.5693,2.5693,2.5693,2.5693,2.5693,2.5693,2.5693,2.5693,2.5527,2.5195,2.4746,2.4531,2.4414,2.4414,2.4414,2.4531,2.5008,2.5106,2.5106,2.5106,2.4727,2.4297,2.3867,2.3437,2.3101,2.3101,2.3101,2.3101,2.3101,2.3101,2.3101,2.3101,2.3101,2.3101,2.3101,2.3101,2.3101,2.3101,2.3101,2.3101,2.3101,2.3101,2.3101,2.3101,2.3101,2.3101,2.3101,2.3101,2.3101,2.3101,2.3237,2.3652,2.4238,2.4668,2.5098,1.7345,1.8179,1.8423,1.7961,1.7948,1.7836,1.7045,1.6139,1.5364,1.4897,1.4416,1.4082,1.4082,1.4082,1.4295,1.4963,1.5164,1.5538,0.0,0.0,0.0,0.0,0.0,0.0,0.0,0.0,0.0,0.0,0.0,0.0,3.0918,3.0898,3.0898,3.0898,3.0898,3.0898,3.0898,3.0898,3.0664,3.0195,2.9766,2.9336,2.8906,2.8476,0.0,0.0,0.0,0.0,0.0,2.8301,2.8203,2.7988,2.7285,2.6914,2.6699,2.5947,2.5693,2.5693,2.5693,2.5693,2.5693,2.5693,2.5693,2.5654,2.5527,2.5176,2.4727,2.4297,2.4062,2.3881,2.3881,2.4062,2.4297,2.4727,2.4824,2.4824,2.4824,2.4492,2.4062,2.3633,2.3276,2.3101,2.3101,2.3101,2.3101,2.3101,2.3101,2.3101,2.3101,2.3101,2.3101,2.3101,2.3101,2.3101,2.3101,2.3101,2.3101,2.3101,2.3101,2.3101,2.3101,2.3101,2.3101,2.3101,2.3101,2.3101,2.3101,2.3257,2.373,2.4414,2.4687,2.4961,0.0,1.5967,1.6275,1.6,1.6466,1.6924,1.6362,1.5584,0.0,1.4576,1.4295,1.4095,1.4108,1.4095,1.4202,1.4563,1.4843,1.537,0.0,1.7333,0.0,0.0,0.0,0.0,0.0,0.0,0.0,0.0,0.0,0.0,3.0918,3.0898,3.0898,3.0898,3.0898,3.0898,3.0898,3.0898,3.0644,3.0137,2.9766,2.9336,2.8867,2.8476,0.0,0.0,0.0,0.0,0.0,2.8262,2.8027,2.7669,2.7148,2.6738,2.6328,2.5849,2.5693,2.5693,2.5693,2.5693,2.5693,2.5693,2.5693,2.5596,2.5195,2.4785,2.4375,2.3965,2.3535,2.3179,2.314,2.3516,2.3926,2.4316,2.4434,2.4453,2.4414,2.4102,2.3691,2.3179,2.3101,2.3101,2.3101,2.3101,2.3101,2.3101,2.3101,2.3101,2.3101,2.3101,2.3101,2.3101,2.3101,2.3101,2.3101,2.3101,2.3101,2.3101,2.3101,2.3101,2.3101,2.3101,2.3101,2.3101,2.3101,2.3101,2.3101,2.3574,2.3984,2.4375,2.4414,2.4414,1.1431,0.0,1.4702,1.4154,1.4929,1.5712,0.0,1.4937,1.4603,1.4536,1.4295,1.4162,1.4376,1.4242,1.4402,1.5318,1.5578,1.5939,1.6871,0.0,0.0,0.0,0.0,0.0,0.0,0.0,0.0,0.0,0.0,3.0996,3.0898,3.0898,3.0898,3.0898,3.0898,3.0898,3.0898,3.0898,3.0488,2.9726,2.9665,2.918,2.8437,2.834,2.8301,0.0,0.0,0.0,2.8262,2.7949,2.7806,2.765,2.6836,2.6465,2.6328,2.5849,2.5693,2.5693,2.5693,2.5693,2.5693,2.5693,2.5693,2.5596,2.5195,2.5047,2.4824,2.4394,2.4199,2.4043,2.373,2.3945,2.4297,2.4394,2.4668,2.4824,2.4492,2.4336,2.4043,2.3237,2.3101,2.3101,2.3101,2.3101,2.3101,2.3101,2.3101,2.3101,2.3101,2.3101,2.3101,2.3101,2.3101,2.3101,2.3101,2.3101,2.3101,2.3101,2.3101,2.3101,2.3101,2.3101,2.3101,2.3101,2.3101,2.3101,2.3101,2.3574,2.3848,2.3945,2.4277,2.4414,1.0782,1.1978,1.3297,1.2764,1.4107,1.5484,1.5102,1.4736,1.4482,1.4349,1.4202,1.4175,1.4469,1.4389,1.4536,1.5311,1.5658,0.0,0.0,0.0,0.0,0.0,0.0,0.0,0.0,0.0,0.0,0.0,0.0,3.0898,3.0898,3.0898,3.0898,3.0898,3.0684,3.0684,3.0898,3.0684,3.0234,2.9626,2.9375,2.8926,2.8301,2.8301,2.8301,0.0,0.0,0.0,2.7988,2.7806,2.7493,2.7082,2.6562,2.6269,2.6055,2.5771,2.5693,2.5693,2.5693,2.5693,2.5693,2.5693,2.5693,2.5635,2.5449,2.5371,2.5234,2.459,2.4414,2.4355,2.4141,2.4394,2.4707,2.4707,2.4902,2.5047,2.4766,2.4414,2.3984,2.3535,2.3237,2.3101,2.3101,2.3101,2.3101,2.3101,2.3101,2.3101,2.3101,2.3101,2.3101,2.3101,2.3101,2.3101,2.3101,2.3101,2.3101,2.3101,2.3101,2.3101,2.3101,2.3101,2.3101,2.3101,2.3101,2.3101,2.3101,2.3335,2.3496,2.3496,2.373,2.3783,1.1596,1.2076,1.2558,1.201,1.3826,1.5618,1.5129,1.4736,1.4456,1.4202,1.4148,1.4242,1.4536,1.4616,0.0,0.0,0.0,0.0,0.0,0.0,0.0,0.0,0.0,0.0,0.0,0.0,0.0,0.0,0.0,3.0898,3.0898,3.0898,3.0859,3.0781,3.041,3.0351,3.0684,3.0293,2.9883,2.9473,2.9101,2.8691,2.8301,2.8301,2.8301,2.8281,0.0,0.0,2.7708,2.7571,2.7051,2.6387,2.6309,2.6055,2.5693,2.5693,2.5693,2.5693,2.5693,2.5693,2.5693,2.5693,2.5693,2.5693,2.5693,2.5693,2.5538,2.4824,2.4609,2.4609,2.4531,2.4844,2.5204,2.5125,2.5165,2.5156,2.5125,2.4453,2.3867,2.3809,2.3437,2.3101,2.3101,2.3101,2.3101,2.3101,2.3101,2.3101,2.3101,2.3101,2.3101,2.3101,2.3101,2.3101,2.3101,2.3101,2.3101,2.3101,2.3101,2.3101,2.3101,2.3101,2.3101,2.3101,2.3101,2.3101,2.3101,2.3101,2.3101,2.3101,2.3101,2.3101,1.1937,1.2802,1.3791,1.2974,1.4164,1.5378,1.5089,1.4736,1.4509,0.0,0.0,0.0,0.0,1.5097,1.5524,0.0,0.0,0.0,0.0,0.0,0.0,0.0,0.0,0.0,0.0,0.0,0.0,0.0,0.0,3.0898,3.0898,3.0898,3.0703,3.0312,3.0234,3.0059,2.9785,2.9707,2.9453,2.9023,2.8945,2.8691,2.8301,2.8301,2.8301,2.8281,0.0,2.7787,2.7669,2.6875,2.6504,2.6348,2.5977,2.5752,2.5693,2.5693,2.5693,2.5693,2.5693,2.5693,2.5693,2.5693,2.5693,2.5693,2.5693,2.5693,2.5654,2.5518,2.5479,2.5401,2.5059,2.5293,2.5527,2.5156,2.5352,2.5527,2.5156,2.4668,2.4219,2.3867,2.3437,2.3101,2.3101,2.3101,2.3101,2.3101,2.3101,2.3101,2.3101,2.3101,2.3101,2.3101,2.3101,2.3101,2.3101,2.3101,2.3101,2.3101,2.3101,2.3101,2.3101,2.3101,2.3101,2.3101,2.3101,2.3101,2.3101,2.3101,2.3101,2.3101,2.3101,2.3101,1.3211,1.3921,1.4625,1.4549,1.5222,1.5752,1.5297,1.4977,1.4763,1.4763,0.0,0.0,0.0,0.0,1.6206,1.7261,0.0,0.0,0.0,0.0,0.0,0.0,0.0,0.0,0.0,0.0,0.0,0.0,0.0,0.0,3.0527,3.0508,3.0312,2.9863,2.9629,2.9414,2.9219,2.8984,2.8887,2.8926,2.8691,2.8476,2.8301,2.8301,2.8301,2.8262,0.0,2.7591,2.7266,2.6641,2.625,2.6016,2.5771,2.5693,2.5693,2.5693,2.5693,2.5693,2.5693,2.5693,2.5693,2.5693,2.5693,2.5693,2.5693,2.5693,2.5693,2.5693,2.5693,2.5635,2.5488,2.5586,2.5635,2.5488,2.5586,2.5557,2.5204,2.4727,2.4297,2.3867,2.3437,2.3101,2.3101,2.3101,2.3101,2.3101,2.3101,2.3101,2.3101,2.3101,2.3101,2.3101,2.3101,2.3101,2.3101,2.3101,2.3101,2.3101,2.3101,2.3101,2.3101,2.3101,2.3101,2.3101,2.3101,2.3101,2.3101,2.3101,2.3101,2.3101,2.3101,2.3101,1.4497,1.4843,1.5129,1.5605,1.5899,1.6046,1.5939,1.5524,1.5276,1.5477,0.0,0.0,0.0,1.6139,0.0,1.7929,0.0,0.0,0.0,0.0,0.0,0.0,0.0,0.0,0.0,0.0,0.0,0.0,0.0,0.0,3.0078,3.0059,2.9863,2.9434,2.9101,2.8867,2.8769,2.8457,2.8457,2.8769,2.8437,2.8301,2.8301,2.8301,2.8301,2.8262,2.7734,2.7324,2.6973,2.6445,2.6035,2.5693,2.5693,2.5693,2.5693,2.5693,2.5693,2.5693,2.5693,2.5693,2.5693,2.5693,2.5693,2.5693,2.5693,2.5693,2.5693,2.5693,2.5693,2.5693,2.5693,2.5693,2.5693,2.5693,2.5615,2.5488,2.5184,2.4648,2.418,2.3848,2.3437,2.3101,2.3101,2.3101,2.3101,2.3101,2.3101,2.3101,2.3101,2.3101,2.3101,2.3101,2.3101,2.3101,2.3101,2.3101,2.3101,2.3101,2.3101,2.3101,2.3101,2.3101,2.3101,2.3101,2.3101,2.3101,2.3101,2.3101,2.3101,2.3101,2.3198,2.3257,1.5271,1.515,1.5089,1.5351,1.5444,1.5805,1.7128,1.6567,1.6005,1.6871,0.0,0.0,0.0,1.6914,0.0,0.0,0.0,0.0,0.0,0.0,0.0,0.0,0.0,0.0,0.0,0.0,0.0,0.0,0.0,0.0,2.9629,2.9609,2.9414,2.8984,2.8945,2.873,2.834,2.8301,2.8301,2.834,2.8301,2.8301,2.8301,2.8301,2.8301,2.8242,2.7422,2.7051,2.6953,2.6083,2.5713,2.5693,2.5693,2.5693,2.5693,2.5693,2.5693,2.5693,2.5693,2.5693,2.5693,2.5693,2.5693,2.5693,2.5693,2.5693,2.5693,2.5693,2.5693,2.5693,2.5693,2.5693,2.5693,2.5693,2.541,2.5165,2.5125,2.4414,2.3828,2.3789,2.3437,2.3101,2.3101,2.3101,2.3101,2.3101,2.3101,2.3101,2.3101,2.3101,2.3101,2.3101,2.3101,2.3101,2.3101,2.3101,2.3101,2.3101,2.3101,2.3101,2.3101,2.3101,2.3101,2.3101,2.3101,2.3101,2.3101,2.3101,2.3101,2.3101,2.3555,2.375,1.3882,1.4436,1.516,1.4816,1.4638,1.4996,1.6434,1.67,1.6794,1.7367,1.7328,0.0,0.0,0.0,0.0,0.0,0.0,0.0,0.0,0.0,0.0,0.0,0.0,0.0,0.0,0.0,0.0,0.0,0.0,0.0,0.0,2.916,2.8965,2.8535,2.8535,2.8457,2.8301,2.8301,2.8301,2.8301,2.8301,2.8301,2.8301,2.8301,2.8144,2.7871,2.7266,2.6875,2.6582,2.5977,2.5693,2.5693,2.5693,2.5693,2.5693,2.5693,2.5693,2.5693,2.5693,2.5693,2.5693,2.5693,2.5693,2.5693,2.5693,2.5693,2.5693,2.5693,2.5693,2.5693,2.5693,2.5693,2.5615,2.5391,2.5195,2.4969,2.4394,2.4023,2.3711,2.3437,2.3198,2.3101,2.3101,2.3101,2.3101,2.3101,2.3101,2.3101,2.3101,2.3101,2.3101,2.3101,2.3101,2.3101,2.3101,2.3101,2.3101,2.3101,2.3101,2.3101,2.3101,2.3101,2.3101,2.3101,2.3101,2.3101,2.3101,2.3101,2.3237,2.3555,2.3711,2.3926,1.3686,1.3976,1.4667,1.4653,1.4473,1.4736,1.6334,1.6688,1.6911,1.7969,1.7996,1.7929,1.8089,0.0,0.0,0.0,0.0,0.0,0.0,0.0,0.0,0.0,0.0,0.0,0.0,0.0,0.0,0.0,0.0,0.0,0.0,2.8711,2.8594,2.8301,2.8301,2.8301,2.8301,2.8301,2.8301,2.8301,2.8301,2.8301,2.8301,2.8301,2.8066,2.7689,2.7207,2.6777,2.6348,2.5869,2.5693,2.5693,2.5693,2.5693,2.5693,2.5693,2.5693,2.5693,2.5693,2.5693,2.5693,2.5693,2.5693,2.5693,2.5693,2.5693,2.5693,2.5693,2.5693,2.5693,2.5693,2.5693,2.5577,2.5223,2.5008,2.4668,2.3945,2.3691,2.3496,2.3159,2.3101,2.314,2.3276,2.3296,2.3296,2.3296,2.3296,2.3257,2.312,2.3101,2.3101,2.3101,2.3101,2.3101,2.3101,2.3101,2.3101,2.3101,2.3101,2.3101,2.3101,2.3101,2.3101,2.3101,2.3101,2.3101,2.3101,2.3101,2.3257,2.3594,2.3867,2.4141,1.503,1.398,1.3362,1.4989,0.0,0.0,1.7187,1.6458,1.6163,1.8832,1.8905,1.849,1.849,0.0,0.0,0.0,0.0,0.0,0.0,0.0,0.0,0.0,0.0,0.0,0.0,0.0,0.0,0.0,0.0,0.0,0.0,2.8301,2.8301,2.8301,2.8301,2.8301,2.8301,2.8301,2.8301,2.8301,2.8281,2.8281,2.8301,2.8281,2.8066,2.7689,2.7207,2.6777,2.6348,2.5869,2.5693,2.5693,2.5693,2.5693,2.5693,2.5693,2.5693,2.5693,2.5693,2.5693,2.5693,2.5693,2.5693,2.5693,2.5693,2.5693,2.5693,2.5693,2.5693,2.5693,2.5693,2.5693,2.5577,2.5176,2.4727,2.4297,2.3867,2.3437,2.3101,2.3101,2.3101,2.3237,2.3711,2.3789,2.3789,2.3789,2.3789,2.3633,2.3159,2.3101,2.3101,2.3101,2.3101,2.3101,2.3101,2.3101,2.3101,2.3101,2.3101,2.3101,2.3101,2.3101,2.3101,2.3101,2.3101,2.3101,2.3101,2.3101,2.3101,2.312,2.4023,2.4414,1.2161,1.1925,1.2318,1.3233,0.0,0.0,0.0,1.8184,0.0,0.0,1.9065,1.9122,2.0142,0.0,0.0,0.0,0.0,0.0,0.0,0.0,0.0,0.0,0.0,0.0,0.0,0.0,0.0,0.0,0.0,0.0,0.0,2.8301,2.8301,2.8301,2.8301,2.8301,2.8301,2.8301,2.8301,2.8281,2.7988,2.8008,2.8281,2.7988,2.7617,2.7187,2.6758,2.6328,2.5918,2.5752,2.5693,2.5693,2.5693,2.5693,2.5693,2.5693,2.5693,2.5693,2.5693,2.5693,2.5693,2.5693,2.5693,2.5693,2.5693,2.5693,2.5693,2.5693,2.5693,2.5693,2.5693,2.5693,2.5499,2.4785,2.4512,2.4219,2.3496,2.3179,2.3101,2.3101,2.3379,2.3633,2.3769,2.4043,2.4238,2.4238,2.4238,2.418,2.4017,2.3997,2.3926,2.3633,2.3594,2.3477,2.312,2.3101,2.3101,2.3101,2.3101,2.3101,2.3101,2.3101,2.3101,2.3101,2.3101,2.3101,2.3101,2.3101,2.3413,2.3997,2.4297,2.4746,1.2115,1.1827,1.2278,1.3401,1.3741,1.4679,1.828,0.0,0.0,0.0,1.9225,1.9535,2.1006,0.0,0.0,0.0,0.0,0.0,0.0,0.0,0.0,0.0,0.0,0.0,0.0,0.0,0.0,0.0,0.0,0.0,0.0,2.8301,2.8301,2.8301,2.8301,2.8301,2.8301,2.8301,2.8203,2.8047,2.7845,2.7715,2.7773,2.7519,2.7168,2.6738,2.6309,2.5977,2.5693,2.5693,2.5693,2.5693,2.5693,2.5693,2.5693,2.5693,2.5693,2.5693,2.5693,2.5693,2.5693,2.5693,2.5693,2.5693,2.5693,2.5693,2.5693,2.5693,2.5557,2.5508,2.5635,2.5605,2.5293,2.459,2.4414,2.4134,2.3276,2.3101,2.3101,2.3101,2.3496,2.3848,2.4004,2.4394,2.4668,2.4668,2.4531,2.4414,2.4414,2.4414,2.4316,2.4062,2.4043,2.3926,2.3627,2.3608,2.3608,2.3608,2.3608,2.3608,2.3608,2.3276,2.3101,2.3101,2.3101,2.3179,2.3398,2.3398,2.375,2.4414,2.459,2.4961,1.3626,1.2738,1.2533,1.4529,1.468,0.0,1.8648,1.943,1.943,1.943,0.0,1.9866,0.0,0.0,0.0,0.0,0.0,0.0,0.0,0.0,0.0,0.0,0.0,0.0,0.0,0.0,0.0,0.0,0.0,0.0,0.0,2.8301,2.8301,2.8301,2.8301,2.8228,2.8121,2.8189,2.7994,2.7499,2.7526,2.7344,2.6953,2.6953,2.6719,2.6309,2.5918,2.5693,2.5693,2.5693,2.5693,2.5693,2.5693,2.5693,2.5693,2.5693,2.5693,2.5693,2.5693,2.5693,2.5693,2.5693,2.5693,2.5693,2.5693,2.5693,2.5674,2.5635,2.5371,2.5156,2.5566,2.5371,2.4961,2.457,2.4453,2.4134,2.3276,2.3101,2.3101,2.3101,2.3516,2.3965,2.4355,2.4805,2.5137,2.5137,2.4785,2.4531,2.4531,2.4531,2.4512,2.4473,2.4473,2.4453,2.4414,2.4414,2.4414,2.4414,2.4414,2.4414,2.4414,2.3627,2.3218,2.3218,2.3218,2.3457,2.3848,2.3983,2.4199,2.4492,2.5024,2.522,1.1097,1.0096,0.0,1.1666,1.4312,1.6891,1.8913,1.943,1.943,1.943,1.943,0.0,0.0,0.0,0.0,0.0,0.0,0.0,0.0,0.0,0.0,0.0,0.0,0.0,0.0,0.0,0.0,0.0,0.0,0.0,2.8301,2.8301,2.8301,2.8301,2.8301,2.7726,2.6608,2.74,2.719,0.0,2.6442,2.6621,2.6523,2.6523,2.6289,2.583,2.5732,2.5693,2.5693,2.5693,2.5693,2.5693,2.5693,2.5693,2.5693,2.5693,2.5693,2.5693,2.5693,2.5693,2.5693,2.5693,2.5693,2.5693,2.5693,2.5693,2.5615,2.5312,2.5184,2.5145,2.5243,2.5137,2.5086,2.4941,2.4668,2.4134,2.3276,2.3101,2.3101,2.3101,2.3705,2.4316,2.4394,2.5078,2.5586,2.5586,2.546,2.5401,2.5401,2.5401,2.5312,2.4961,2.4969,2.4785,2.4453,2.4414,2.4414,2.4414,2.4414,2.4414,2.4414,2.4238,2.4095,2.4095,2.4095,2.418,2.4277,2.5284,2.5483,2.4969,2.6032,2.6162,1.0904,0.0,0.0,1.2291,0.0,1.7443,1.901,1.943,1.943,1.943,0.0,0.0,0.0,0.0,0.0,0.0,0.0,0.0,0.0,0.0,0.0,0.0,0.0,0.0,0.0,0.0,0.0,0.0,0.0,2.8301,2.8301,2.8301,2.8301,2.8301,2.8105,2.7651,2.6868,2.7193,2.6866,2.5895,2.623,2.6289,2.6074,2.6074,2.5957,2.5693,2.5693,2.5693,2.5693,2.5693,2.5693,2.5693,2.5693,2.5693,2.5693,2.5693,2.5693,2.5693,2.5693,2.5693,2.5693,2.5693,2.5693,2.5693,2.5693,2.5586,2.5371,2.5184,2.4922,2.4805,2.5067,2.5106,2.5067,2.4805,2.459,2.4238,2.3594,2.3237,2.3101,2.3101,2.3783,2.4414,2.4414,2.5109,2.5693,2.5693,2.5693,2.5693,2.5693,2.5693,2.5596,2.541,2.5391,2.5293,2.5011,2.4992,2.4992,2.4992,2.4992,2.4992,2.4992,2.4992,2.5125,2.531,2.529,2.5412,2.5589,2.566,2.5625,2.5439,2.6681,2.6662,1.1348,0.0,1.105,1.3868,1.5542,0.0,1.8874,1.9252,1.9212,0.0,0.0,0.0,0.0,0.0,0.0,0.0,0.0,0.0,0.0,0.0,0.0,0.0,0.0,0.0,0.0,0.0,0.0,0.0,0.0,2.8184,2.8184,2.8105,2.8066,2.8066,2.7734,2.7454,2.7226,2.7007,2.6618,2.6018,2.6209,2.6094,2.5693,2.5693,2.5693,2.5693,2.5693,2.5693,2.5693,2.5693,2.5693,2.5693,2.5693,2.5693,2.5693,2.5693,2.5693,2.5693,2.5693,2.5693,2.5693,2.5693,2.5693,2.5674,2.5644,2.5371,2.5106,2.498,2.4687,2.4512,2.5008,2.5106,2.5047,2.4707,2.459,2.4394,2.3906,2.3496,2.3237,2.3296,2.3939,2.4551,2.4629,2.5206,2.5693,2.5693,2.5693,2.5693,2.5693,2.5693,2.5693,2.5693,2.5693,2.5693,2.5693,2.5693,2.5693,2.5693,2.5693,2.5693,2.5693,2.5917,2.6161,2.6536,2.6515,2.6704,2.7012,2.6455,2.6236,2.638,2.7626,2.7531,1.0424,0.0,0.9828,0.0,1.448,1.5351,0.0,0.0,0.0,0.0,0.0,0.0,0.0,0.0,0.0,0.0,0.0,0.0,0.0,0.0,0.0,0.0,0.0,0.0,0.0,0.0,0.0,0.0,2.7949,2.7806,2.7806,2.7383,2.7187,2.7187,2.7129,2.6454,2.5224,2.6053,2.5805,2.443,2.5336,2.5752,2.5693,2.5693,2.5693,2.5693,2.5693,2.5693,2.5693,2.5693,2.5693,2.5693,2.5693,2.5693,2.5693,2.5693,2.5693,2.5693,2.5693,2.5693,2.5693,2.5693,2.5693,2.5615,2.5273,2.5117,2.5047,2.4609,2.4473,2.4512,2.5008,2.5106,2.5156,2.5488,2.5254,2.4766,2.3965,2.375,2.3809,2.418,2.4648,2.5098,2.5488,2.5615,2.5693,2.5693,2.5693,2.5693,2.5693,2.5693,2.5693,2.5693,2.5693,2.5693,2.5693,2.5693,2.5693,2.5693,2.5693,2.5693,2.5693,2.6764,2.7395,2.7458,2.7437,2.7432,2.7495,2.9443,2.9874,2.8958,3.0169,3.0079,0.9756,0.906,0.9331,0.0,1.3684,1.4893,1.7044,0.0,0.0,0.0,0.0,0.0,0.0,0.0,0.0,0.0,0.0,0.0,0.0,0.0,0.0,0.0,0.0,0.0,0.0,0.0,0.0,0.0,2.7402,2.7305,2.7305,2.7129,2.7012,2.7012,2.6777,2.6338,2.5711,2.5932,2.5651,2.497,2.5459,2.5693,2.5693,2.5693,2.5693,2.5693,2.5693,2.5693,2.5693,2.5693,2.5693,2.5693,2.5693,2.5693,2.5693,2.5693,2.5693,2.5693,2.5693,2.5693,2.5693,2.5693,2.5693,2.5654,2.5508,2.5273,2.5067,2.4844,2.4785,2.4824,2.5067,2.5254,2.543,2.5371,2.5215,2.5008,2.4636,2.4316,2.4258,2.4707,2.4941,2.5215,2.5615,2.5693,2.5693,2.5693,2.5693,2.5693,2.5693,2.5693,2.5693,2.5693,2.5693,2.5693,2.5693,2.5693,2.5693,2.5693,2.5693,2.5693,2.5693,2.6255,2.6524,2.6524,2.7908,2.8588,2.8588,2.967,2.9897,2.9442,3.0643,3.053,0.9438,0.8827,0.9079,1.1556,1.3107,1.4509,0.0,0.0,0.0,0.0,0.0,0.0,0.0,0.0,0.0,0.0,0.0,0.0,0.0,0.0,0.0,0.0,0.0,0.0,0.0,0.0,0.0,0.0,2.6914,2.6855,2.6855,2.6758,2.6699,2.6699,2.6387,2.623,2.623,2.5849,2.5693,2.5693,2.5693,2.5693,2.5693,2.5693,2.5693,2.5693,2.5693,2.5693,2.5693,2.5693,2.5693,2.5693,2.5693,2.5693,2.5693,2.5693,2.5693,2.5693,2.5693,2.5693,2.5693,2.5693,2.5693,2.5674,2.5605,2.5332,2.5106,2.5106,2.5106,2.5145,2.5215,2.5488,2.5596,2.5312,2.5234,2.5215,2.5145,2.4902,2.4844,2.5176,2.5234,2.5352,2.5635,2.5693,2.5693,2.5693,2.5693,2.5693,2.5693,2.5693,2.5693,2.5693,2.5693,2.5693,2.5693,2.5693,2.5693,2.5693,2.5693,2.5693,2.5693,2.5693,2.5693,2.5693,2.8121,2.9396,2.9396,3.0056,3.0328,3.0373,3.1267,3.1178,0.9577,0.8973,0.9063,1.1845,0.0,0.0,0.0,0.0,0.0,0.0,0.0,0.0,0.0,0.0,0.0,0.0,0.0,0.0,0.0,0.0,0.0,0.0,0.0,0.0,0.0,0.0,0.0,0.0,2.6641,2.6426,2.6426,2.6035,2.5752,2.5752,2.5732,2.5732,2.5732,2.5693,2.5693,2.5693,2.5693,2.5693,2.5693,2.5693,2.5693,2.5693,2.5693,2.5693,2.5693,2.5693,2.5693,2.5693,2.5693,2.5693,2.5693,2.5693,2.5693,2.5693,2.5693,2.5693,2.5693,2.5693,2.5693,2.5615,2.5234,2.5125,2.5106,2.5106,2.5106,2.5176,2.5586,2.5674,2.5674,2.5654,2.5654,2.5538,2.5156,2.5391,2.5635,2.5654,2.5654,2.5654,2.5693,2.5693,2.5693,2.5693,2.5693,2.5693,2.5693,2.5693,2.5693,2.5693,2.5693,2.5693,2.5693,2.5693,2.5693,2.5693,2.5693,2.5693,2.5693,2.5693,2.5693,2.5693,2.8121,2.9396,2.9418,3.1733,3.2896,3.2896,3.2982,3.2982,0.9248,0.8778,0.0,1.0239,1.1686,0.0,0.0,0.0,0.0,0.0,0.0,0.0,0.0,0.0,0.0,0.0,0.0,0.0,0.0,0.0,0.0,0.0,0.0,0.0,0.0,0.0,0.0,0.0,0.0,2.5977,2.5977,2.5771,2.5693,2.5693,2.5693,2.5693,2.5693,2.5693,2.5693,2.5693,2.5693,2.5693,2.5693,2.5693,2.5693,2.5693,2.5693,2.5693,2.5693,2.5693,2.5693,2.5693,2.5693,2.5693,2.5693,2.5693,2.5693,2.5693,2.5693,2.5693,2.5693,2.5693,2.5693,2.5654,2.5547,2.5508,2.5508,2.5508,2.5508,2.5527,2.5654,2.5693,2.5693,2.5693,2.5693,2.5635,2.5527,2.5577,2.5693,2.5693,2.5693,2.5693,2.5693,2.5693,2.5693,2.5693,2.5693,2.5693,2.5693,2.5693,2.5693,2.5693,2.5693,2.5693,2.5693,2.5693,2.5693,2.5693,2.5693,2.5693,2.5693,2.5693,2.5693,2.5693,2.741,2.8634,2.9418,3.1889,3.3111,3.3111,3.3111,3.3111,0.931,0.9048,0.0,0.0,0.0,0.0,0.0,0.0,0.0,0.0,0.0,0.0,0.0,0.0,0.0,0.0,0.0,0.0,0.0,0.0,0.0,0.0,0.0,0.0,0.0,0.0,0.0,0.0,0.0,0.0,2.5693,2.5693,2.5693,2.5693,2.5693,2.5693,2.5693,2.5693,2.5693,2.5693,2.5693,2.5693,2.5693,2.5693,2.5693,2.5693,2.5693,2.5693,2.5693,2.5693,2.5693,2.5693,2.5693,2.5693,2.5693,2.5693,2.5693,2.5693,2.5693,2.5693,2.5693,2.5693,2.5693,2.5693,2.5693,2.5693,2.5693,2.5693,2.5693,2.5693,2.5693,2.5693,2.5693,2.5693,2.5693,2.5693,2.5693,2.5693,2.5693,2.5693,2.5693,2.5693,2.5693,2.5693,2.5693,2.5693,2.5693,2.5693,2.5693,2.5693,2.5693,2.5693,2.5693,2.5693,2.5693,2.5693,2.5693,2.5693,2.5693,2.5693,2.5693,2.5693,2.5693,2.5693,2.6935,2.8002,2.8819,3.1291,3.2655,3.3111,3.3111,3.3111,0.0,0.0,0.0,0.0,0.0,0.0,0.0,0.0,0.0,0.0,0.0,0.0,0.0,0.0,0.0,0.0,0.0,0.0,0.0,0.0,0.0,0.0,0.0,0.0,0.0,0.0,0.0,0.0,2.5693,2.5693,2.5693,2.5693,2.5693,2.5693,2.5693,2.5693,2.5693,2.5693,2.5693,2.5693,2.5693,2.5693,2.5693,2.5693,2.5693,2.5693,2.5693,2.5693,2.5693,2.5693,2.5693,2.5693,2.5693,2.5693,2.5693,2.5693,2.5693,2.5693,2.5693,2.5693,2.5693,2.5693,2.5693,2.5693,2.5693,2.5693,2.5693,2.5693,2.5693,2.5693,2.5693,2.5693,2.5693,2.5693,2.5693,2.5693,2.5693,2.5693,2.5693,2.5693,2.5693,2.5693,2.5693,2.5693,2.5693,2.5693,2.5693,2.5693,2.5693,2.5693,2.5693,2.5693,2.5693,2.5693,2.5693,2.5693,2.5693,2.5693,2.5693,2.5693,2.5693,2.5693,2.5693,2.5693,2.6887,2.7552,2.76,3.0033,3.1821,3.3025,3.3068,3.3111,0.9937,0.0,0.0,0.0,0.0,0.0,0.0,0.0,0.0,0.0,0.0,0.0,0.0,0.0,0.0,0.0,0.0,0.0,0.0,0.0,0.0,0.0,0.0,0.0,0.0,0.0,0.0,0.0,2.5693,2.5693,2.5693,2.5693,2.5693,2.5693,2.5693,2.5693,2.5693,2.5693,2.5693,2.5693,2.5693,2.5693,2.5693,2.5693,2.5693,2.5693,2.5693,2.5693,2.5693,2.5693,2.5693,2.5693,2.5693,2.5693,2.5693,2.5693,2.5693,2.5693,2.5693,2.5693,2.5693,2.5693,2.5693,2.5693,2.5693,2.5693,2.5693,2.5693,2.5693,2.5693,2.5693,2.5693,2.5693,2.5693,2.5693,2.5693,2.5693,2.5693,2.5693,2.5693,2.5693,2.5693,2.5693,2.5693,2.5693,2.5693,2.5693,2.5693,2.5693,2.5693,2.5693,2.5693,2.5693,2.5693,2.5693,2.5693,2.5693,2.5693,2.5693,2.5693,2.5693,2.5693,2.5693,2.5693,2.6062,2.6668,2.76,3.0033,3.1356,3.1733,3.2655,3.3111,1.0915,1.0904,0.0,0.0,0.0,0.0,0.0,1.3773,0.0,0.0,0.0,0.0,0.0,0.0,0.0,0.0,0.0,0.0,0.0,0.0,0.0,0.0,0.0,0.0,0.0,0.0,0.0,2.5693,2.5693,2.5693,2.5693,2.5693,2.5693,2.5693,2.5693,2.5693,2.5693,2.5693,2.5693,2.5693,2.5693,2.5693,2.5693,2.5693,2.5693,2.5693,2.5693,2.5693,2.5693,2.5693,2.5693,2.5693,2.5693,2.5693,2.5693,2.5693,2.5693,2.5693,2.5693,2.5693,2.5693,2.5693,2.5693,2.5693,2.5693,2.5693,2.5693,2.5693,2.5693,2.5693,2.5693,2.5693,2.5693,2.5693,2.5693,2.5693,2.5693,2.5693,2.5693,2.5693,2.5693,2.5693,2.5693,2.5693,2.5693,2.5693,2.5693,2.5693,2.5693,2.5693,2.5693,2.5693,2.5693,2.5752,2.5996,2.6016,2.6074,2.62,2.622,2.622,2.622,2.622,2.6142,2.6016,2.6016,2.6754,2.8355,2.9258,3.0214,3.1223,3.2525,3.3111,1.2234,1.2198,1.2559,0.0,0.0,0.0,1.3788,1.3786,0.0,0.0,0.0,0.0,0.0,0.0,0.0,0.0,0.0,0.0,0.0,0.0,0.0,0.0,0.0,0.0,0.0,2.5577,2.5693,2.5693,2.5693,2.5693,2.5693,2.5693,2.5693,2.5693,2.5693,2.5693,2.5693,2.5693,2.5693,2.5693,2.5693,2.5693,2.5693,2.5693,2.5693,2.5693,2.5693,2.5693,2.5693,2.5693,2.5693,2.5693,2.5693,2.5693,2.5693,2.5693,2.5693,2.5693,2.5693,2.5693,2.5693,2.5693,2.5693,2.5693,2.5693,2.5693,2.5693,2.5693,2.5693,2.5693,2.5693,2.5693,2.5693,2.5693,2.5693,2.5693,2.5693,2.5693,2.5693,2.5693,2.5693,2.5693,2.5693,2.5693,2.5693,2.5693,2.5693,2.5693,2.5693,2.5693,2.5693,2.5693,2.5693,2.5869,2.6348,2.6387,2.6562,2.6992,2.7012,2.7012,2.7012,2.7012,2.6836,2.6465,2.6406,2.7288,2.9189,2.8283,2.905,3.1444,3.2568,3.3111,1.2797,1.2973,1.32,1.2625,0.0,0.0,1.2121,1.2305,0.0,0.0,0.0,0.0,0.0,0.0,0.0,0.0,0.0,0.0,0.0,0.0,0.0,0.0,0.0,0.0,0.0,2.5069,2.5693,2.5693,2.5693,2.5693,2.5693,2.5693,2.5693,2.5693,2.5693,2.5693,2.5693,2.5693,2.5693,2.5693,2.5693,2.5693,2.5693,2.5693,2.5693,2.5693,2.5693,2.5693,2.5693,2.5693,2.5693,2.5693,2.5693,2.5693,2.5693,2.5693,2.5693,2.5693,2.5693,2.5693,2.5693,2.5693,2.5693,2.5693,2.5693,2.5693,2.5693,2.5693,2.5693,2.5693,2.5693,2.5693,2.5693,2.5693,2.5693,2.5693,2.5693,2.5693,2.5693,2.5693,2.5693,2.5693,2.5693,2.5693,2.5693,2.5693,2.5693,2.5693,2.5693,2.5693,2.5693,2.5693,2.5693,2.5869,2.6348,2.6387,2.6562,2.6992,2.7012,2.7012,2.7012,2.7012,2.6973,2.6894,2.6562,2.6919,2.7955,2.868,3.0328,3.2742,3.2982,3.3111,1.34,1.3414,1.3533,1.3267,0.0,0.0,0.0,0.0,1.2559,0.0,0.0,0.0,0.0,0.0,0.0,0.0,0.0,0.0,0.0,0.0,0.0,0.0,0.0,0.0,0.0,2.4313,2.4971,2.5645,2.5693,2.5693,2.5693,2.5693,2.5693,2.5693,2.5693,2.5693,2.5693,2.5693,2.5693,2.5693,2.5693,2.5693,2.5693,2.5693,2.5693,2.5693,2.5693,2.5693,2.5693,2.5693,2.5693,2.5693,2.5693,2.5693,2.5693,2.5693,2.5693,2.5693,2.5693,2.5693,2.5693,2.5693,2.5693,2.5693,2.5693,2.5693,2.5693,2.5693,2.5693,2.5693,2.5693,2.5693,2.5693,2.5693,2.5693,2.5693,2.5693,2.5693,2.5693,2.5693,2.5693,2.5693,2.5693,2.5693,2.5693,2.5693,2.5693,2.5693,2.5693,2.5869,2.5977,2.5713,2.6064,2.6465,2.668,2.6894,2.7207,2.7617,2.7656,2.7656,2.7656,2.7656,2.7559,2.7344,2.7603,2.8056,2.8795,3.01,3.1215,3.2152,3.2785,3.3111,0.0,0.0,0.0,0.0,0.0,1.2893,0.0,0.0,0.0,1.3494,0.0,0.0,0.0,0.0,0.0,0.0,0.0,0.0,0.0,0.0,0.0,0.0,0.0,0.0,0.0,2.3492,2.4249,2.5606,2.546,2.5421,2.5674,2.5693,2.5693,2.5693,2.5693,2.5693,2.5693,2.5693,2.5693,2.5693,2.5693,2.5693,2.5693,2.5693,2.5693,2.5693,2.5693,2.5693,2.5693,2.5693,2.5693,2.5693,2.5693,2.5693,2.5693,2.5693,2.5693,2.5693,2.5693,2.5693,2.5693,2.5693,2.5693,2.5693,2.5693,2.5693,2.5693,2.5693,2.5693,2.5693,2.5693,2.5693,2.5693,2.5693,2.5693,2.5693,2.5693,2.5693,2.5693,2.5693,2.5693,2.5693,2.5693,2.5693,2.5693,2.5693,2.5693,2.5713,2.581,2.6172,2.6289,2.5966,2.6602,2.7051,2.7129,2.7461,2.7904,2.8262,2.8301,2.8301,2.8301,2.8301,2.8086,2.7728,2.8391,2.9084,2.9796,3.1182,3.175,3.1577,3.2612,3.3111,0.0,0.0,0.0,0.0,1.4175,0.0,0.0,0.0,1.2919,1.2288,0.0,0.0,0.0,0.0,0.0,0.0,0.0,0.0,0.0,0.0,0.0,0.0,0.0,0.0,0.0,0.0,2.4307,2.5596,2.4668,2.4512,2.5635,2.5693,2.5693,2.5693,2.5693,2.5693,2.5693,2.5693,2.5693,2.5693,2.5693,2.5693,2.5693,2.5693,2.5693,2.5693,2.5693,2.5693,2.5693,2.5693,2.5693,2.5693,2.5693,2.5693,2.5693,2.5693,2.5693,2.5693,2.5693,2.5693,2.5693,2.5693,2.5693,2.5693,2.5693,2.5693,2.5693,2.5693,2.5693,2.5693,2.5693,2.5693,2.5693,2.5693,2.5693,2.5693,2.5693,2.5693,2.5693,2.5693,2.5693,2.5693,2.5693,2.5693,2.5693,2.5693,2.5693,2.583,2.6269,2.6367,2.6523,2.6836,2.6953,2.7168,2.7611,2.7689,2.7904,2.8262,2.8301,2.8301,2.8301,2.8301,2.8086,2.7728,2.7826,2.8217,2.8958,3.0352,3.1692,3.2896,3.3025,3.3111,0.0,0.0,0.0,0.0,0.0,0.0,1.2919,0.0,1.2625,0.0,0.0,0.0,0.0,0.0,0.0,0.0,0.0,0.0,0.0,0.0,0.0,0.0,0.0,0.0,0.0,0.0,0.0,0.0,0.0,2.4238,2.5293,2.5557,2.5693,2.5693,2.5693,2.5693,2.5693,2.5693,2.5693,2.5693,2.5693,2.5693,2.5693,2.5693,2.5693,2.5693,2.5693,2.5693,2.5693,2.5693,2.5693,2.5693,2.5693,2.5693,2.5693,2.5693,2.5693,2.5693,2.5693,2.5693,2.5693,2.5693,2.5693,2.5693,2.5693,2.5693,2.5693,2.5693,2.5693,2.5693,2.5693,2.5693,2.5693,2.5693,2.5693,2.5693,2.5693,2.5693,2.5693,2.5693,2.5937,2.6113,2.6113,2.5898,2.5771,2.6074,2.6113,2.6269,2.6699,2.6973,2.709,2.7031,2.7461,2.7734,2.7728,2.7891,2.8105,2.8281,2.8301,2.8301,2.8301,2.8301,2.8203,2.8027,2.883,2.9599,3.0367,3.1738,3.2583,3.2901,3.3643,3.4022,1.565,0.0,0.0,0.0,0.0,0.0,0.0,0.0,0.0,0.0,0.0,0.0,0.0,0.0,0.0,0.0,0.0,0.0,0.0,0.0,0.0,0.0,0.0,0.0,0.0,0.0,0.0,0.0,0.0,0.0,2.5,2.5371,2.5605,2.5693,2.5693,2.5693,2.5693,2.5693,2.5693,2.5693,2.5693,2.5693,2.5693,2.5693,2.5693,2.5693,2.5693,2.5693,2.5693,2.5693,2.5693,2.5693,2.5693,2.5693,2.5693,2.5693,2.5693,2.5693,2.5693,2.5693,2.5693,2.5693,2.5693,2.5693,2.5693,2.5693,2.5693,2.5693,2.5693,2.5693,2.5693,2.5693,2.5693,2.5693,2.5693,2.5693,2.5693,2.5693,2.5732,2.5898,2.6172,2.6426,2.6543,2.6289,2.6191,2.6504,2.6562,2.6719,2.7148,2.748,2.7578,2.7383,2.793,2.8164,2.7871,2.8125,2.8301,2.8301,2.8301,2.8301,2.8301,2.8301,2.8301,2.8301,2.925,3.0191,3.1168,3.2139,3.2614,3.2627,3.3657,3.4131,0.0,0.0,0.0,1.4803,0.0,0.0,0.0,0.0,1.3186,0.0,0.0,0.0,0.0,0.0,0.0,0.0,0.0,0.0,0.0,0.0,0.0,0.0,0.0,0.0,0.0,0.0,0.0,0.0,0.0,0.0,2.4922,2.5125,2.5293,2.5674,2.5693,2.5693,2.5693,2.5693,2.5693,2.5693,2.5693,2.5693,2.5693,2.5693,2.5693,2.5693,2.5693,2.5693,2.5693,2.5693,2.5693,2.5693,2.5693,2.5693,2.5693,2.5693,2.5693,2.5693,2.5693,2.5693,2.5693,2.5693,2.5693,2.5693,2.5693,2.5693,2.5693,2.5693,2.5693,2.5693,2.5693,2.5693,2.5693,2.5693,2.5693,2.5693,2.5693,2.5693,2.581,2.6289,2.6387,2.6523,2.6914,2.6992,2.6973,2.6992,2.6992,2.7148,2.765,2.7708,2.7812,2.8203,2.8281,2.8281,2.8281,2.8281,2.8301,2.8301,2.8301,2.8301,2.8301,2.8301,2.8301,2.8301,2.8335,2.8986,3.0338,3.039,3.1038,3.2314,3.2626,3.2746,0.0,0.0,1.8816,1.5837,0.0,0.0,0.0,0.0,0.0,0.0,0.0,0.0,0.0,0.0,0.0,0.0,0.0,0.0,0.0,0.0,0.0,0.0,0.0,0.0,0.0,0.0,0.0,0.0,1.9382,0.0,0.0,2.4371,2.5184,2.5293,2.5586,2.5693,2.5693,2.5693,2.5693,2.5693,2.5693,2.5693,2.5693,2.5693,2.5693,2.5693,2.5693,2.5693,2.5693,2.5693,2.5693,2.5693,2.5693,2.5693,2.5693,2.5693,2.5693,2.5693,2.5693,2.5693,2.5693,2.5693,2.5693,2.5693,2.5693,2.5693,2.5693,2.5693,2.5693,2.5693,2.5693,2.5693,2.5693,2.5693,2.5693,2.5693,2.5693,2.5957,2.6211,2.6367,2.6855,2.7285,2.7422,2.7676,2.7773,2.748,2.7441,2.7598,2.8027,2.8086,2.8125,2.8281,2.8301,2.8301,2.8301,2.8301,2.8301,2.8301,2.8301,2.8301,2.8301,2.8301,2.8301,2.8301,2.8301,2.8953,3.0307,3.0307,3.0514,3.0957,3.1041,3.2085,2.0128,2.0489,0.0,1.7836,1.7583,0.0,1.629,0.0,0.0,0.0,0.0,0.0,0.0,0.0,0.0,0.0,0.0,0.0,0.0,0.0,0.0,0.0,0.0,0.0,0.0,0.0,1.4816,1.6199,0.0,0.0,0.0,0.0,2.4793,2.5106,2.5508,2.5693,2.5693,2.5693,2.5693,2.5693,2.5693,2.5693,2.5693,2.5693,2.5693,2.5693,2.5693,2.5693,2.5693,2.5693,2.5693,2.5693,2.5693,2.5693,2.5693,2.5693,2.5693,2.5693,2.5693,2.5693,2.5693,2.5693,2.5693,2.5693,2.5693,2.5693,2.5693,2.5693,2.5693,2.5693,2.5693,2.5693,2.5693,2.5693,2.581,2.5977,2.5977,2.6309,2.666,2.6816,2.7337,2.7767,2.7871,2.8125,2.8203,2.793,2.7891,2.7988,2.8262,2.8301,2.8301,2.8301,2.8301,2.8301,2.8301,2.8301,2.8301,2.8301,2.8301,2.8301,2.8301,2.8301,2.8301,2.8301,2.8301,2.8953,3.0307,2.9807,2.9807,3.0276,2.9807,3.0773]}]]